.

MPMG - Transparência

Contracheque - Remuneração de todos os servidores ativos - Pós Resolução CNMP 200/2019

Período: 2023 - Agosto

Ordem Matrícula Nome Cargo Efetivo Lotação Rendimentos Descontos Rendimento Líquido Total *14 Data de Referência
Remuneração básica Remuneração eventual ou Temporária Outras Remunerações Temporárias *7 Verbas Indenizatórias *8 Total de Rendimentos Brutos *9 Obrigatórios Legais Outros Descontos Eventuais Total de descontos *13
Remuneração do Cargo Efetivo *1 Outras Verbas Remuneratórias *2 Função de Confiança ou Cargo em Comissão *3 Gratificação Natalina *4 Férias 1/3 Constitucional *5 Abono de Permanência *6 Contribuição Previdenciária *10 Imposto de Renda *11 Retenção por Teto Constitucional *12
1 498900 ABDON MARCIO BARBOSA DA SILVA OFICIAL DO MP ABRE CAMPO - COMARCA; ABRE CAMPO-PJ-01PJ 7.506,70 1.501,34 0,00 0,00 0,00 0,00 527,16 2.584,25 12.119,45 1.845,90 2.193,73 0,00 0,00 4.039,63 8.079,82 31/08/2023
2 177800 ADALBERTO MENEZES FARIA SAMORA OFICIAL DO MP BELO HORIZONTE - COMARCA; DIRET DE PLANOS PROJETOS E PROGRAMAS INST 21.346,53 8.538,61 0,00 0,00 0,00 0,00 0,00 2.105,00 31.990,14 4.562,57 5.974,47 0,00 0,00 10.537,04 21.453,10 31/08/2023
3 306400 ADALBERTO MOREIRA GONCALVES ANALISTA DO MP BELO HORIZONTE - COMARCA; BH-24PJ JUIZO REG BARREIRO-SECRETARIA 22.191,68 6.657,50 0,00 0,00 0,00 0,00 0,00 2.105,00 30.954,18 4.396,82 5.839,44 0,00 0,00 10.236,26 20.717,92 31/08/2023
4 179300 ADENISE AUXILIADORA SOUZA SAD OFICIAL DO MP BARBACENA - COMARCA; BARBACENA-PJ-06PJ 20.533,67 8.213,47 0,00 0,00 0,00 0,00 0,00 2.105,00 30.852,14 4.380,49 5.711,59 0,00 0,00 10.092,08 20.760,06 31/08/2023
5 272200 ADILSON BATISTA ORNELAS OFICIAL DO MP LAVRAS - COMARCA; LAVRAS-PJ-SECRETARIA 7.506,70 2.252,01 0,00 0,00 0,00 0,00 604,34 2.105,00 12.468,05 2.017,98 2.449,62 0,00 0,00 4.467,60 8.000,45 31/08/2023
6 380100 ADILSON GONCALVES DE MELO JUNIOR ANALISTA DO MP ARAXÁ - COMARCA; ARAXA-PJ-05PJ 16.469,17 4.940,75 0,00 0,00 0,00 0,00 0,00 2.105,00 23.514,92 3.206,54 4.016,70 0,00 0,00 7.223,24 16.291,68 31/08/2023
7 148800 ADILSON JANUARIO OFICIAL DO MP BELO HORIZONTE - COMARCA; BH-22PJ PES COM DEF E IDOSOS-SECRETARIA 23.070,31 18.456,25 0,00 0,00 0,00 5.873,01 318,16 5.575,82 53.293,55 5.795,34 9.400,14 3.936,60 0,00 19.132,08 34.161,47 31/08/2023
8 322601 ADMILSON SILVEIRA ANALISTA DO MP SAO JOAO DO PARAISO COMARCA; SAO JOAO DO PARAISO-PJ-UNPJ 12.343,61 2.468,72 0,00 0,00 0,00 0,00 858,16 3.055,00 18.725,49 3.090,98 4.223,42 0,00 0,00 7.314,40 11.411,09 31/08/2023
9 333700 ADRIANA ABRITTA TEIXEIRA OFICIAL DO MP BELO HORIZONTE - COMARCA; DIRET DE PESSOAL DO MINISTERIO PUBLICO - DPMP 12.343,61 3.703,08 0,00 0,00 0,00 0,00 993,57 2.105,00 19.145,26 3.459,39 4.645,16 0,00 0,00 8.104,55 11.040,71 31/08/2023
10 468500 ADRIANA APARECIDA FIRMINO ANALISTA DO MP CARATINGA - COMARCA; CARATINGA-PJ-04PJ 12.343,61 2.468,72 0,00 0,00 0,00 0,00 771,49 2.105,00 17.688,82 3.176,44 4.172,26 0,00 0,00 7.348,70 10.340,12 31/08/2023
11 326100 ADRIANA AUGUSTA AMARAL BELO OFICIAL DO MP BARBACENA - COMARCA; BARBACENA-PJ-05PJ 12.343,61 3.703,08 0,00 0,00 0,00 0,00 993,57 2.105,00 19.145,26 3.459,39 4.540,89 0,00 0,00 8.000,28 11.144,98 31/08/2023
12 605700 ADRIANA COSTA LIRA OFICIAL DO MP BELO HORIZONTE - COMARCA; CAO-EDUCACAO 7.506,70 750,67 4.020,58 0,00 0,00 0,00 755,37 2.105,00 15.138,32 1.673,82 3.613,96 0,00 0,00 5.287,78 9.850,54 31/08/2023
13 541100 ADRIANA CRISTINA DE OLIVEIRA OFICIAL DO MP EXTREMA - COMARCA; EXTREMA-PJ-01PJ 7.506,70 1.501,34 0,00 0,00 0,00 0,00 633,54 3.625,00 13.266,58 1.990,17 2.483,92 0,00 0,00 4.474,09 8.792,49 31/08/2023
14 254800 ADRIANA DAS GRACAS FERNANDES ANALISTA DO MP UBERABA - COMARCA; UBERABA-PJ-07PJ 23.070,31 18.456,25 0,00 0,00 0,00 0,00 33,84 2.105,00 43.665,40 5.795,34 8.095,02 3.936,60 0,00 17.826,96 25.838,44 31/08/2023
15 217400 ADRIANA DE CARVALHO CATAO BRAGA ASSESSOR ADMINISTRATIVO III BELO HORIZONTE - COMARCA; DIV FISCAL ADM CONT TERCEIRIZACAO 0,00 4.343,56 10.858,90 0,00 0,00 0,00 770,87 2.105,00 18.078,33 876,95 5.426,85 0,00 0,00 6.303,80 11.774,53 31/08/2023
16 434600 ADRIANA FERREIRA DA SILVA ANALISTA DO MP BELO HORIZONTE - COMARCA; BH-14PJ DEFESA CONSUMIDOR-GAB 112PJ 17.559,01 3.511,80 0,00 0,00 0,00 0,00 0,00 2.105,00 23.175,81 3.152,28 4.042,64 0,00 0,00 7.194,92 15.980,89 31/08/2023
17 499800 ADRIANA FERREIRA TIAGO OFICIAL DO MP SALINAS - COMARCA; SALINAS-PJ-02PJ 9.699,77 1.939,95 0,00 0,00 0,00 0,00 561,75 3.055,00 15.256,47 2.442,82 3.160,42 0,00 0,00 5.603,24 9.653,23 31/08/2023
18 543400 ADRIANA GUIMARAES NUNES DE PAULA ANALISTA DO MP PATROCÍNIO - COMARCA; PATROCINIO-PJ-01PJ 12.343,61 2.468,72 0,00 0,00 0,00 0,00 751,36 4.563,94 20.127,63 982,16 4.410,92 0,00 0,00 5.393,08 14.734,55 31/08/2023
19 471500 ADRIANA HORTA DE CARVALHO RODRIGUES DE SOUSA ANALISTA DO MP BELO HORIZONTE - COMARCA; GRUPO ESP PROM JUST DEF PROB ADM PAT PUB 12.343,61 2.468,72 0,00 0,00 0,00 0,00 732,43 2.105,00 17.649,76 3.176,44 4.319,15 0,00 0,00 7.495,59 10.154,17 31/08/2023
20 86400 ADRIANA MOREIRA CALDEIRA BRANT OFICIAL DO MP BELO HORIZONTE - COMARCA; BH-21PJ TUTELA FUNDACOES-SECRETARIA 21.346,53 17.077,22 0,00 442,20 0,00 9.545,62 2.134,65 2.105,00 52.651,22 5.795,34 10.336,97 1.667,58 0,00 17.799,89 34.851,33 31/08/2023
21 480700 ADRIANA MOREIRA DE AVELLAR CEZILIO OFICIAL DO MP BELO HORIZONTE - COMARCA; BH-12PJ JUIZO CRIMINAL-SECRETARIA 7.506,70 1.501,34 4.020,58 0,00 0,00 0,00 486,37 2.105,00 15.619,99 1.845,90 3.269,61 0,00 0,00 5.115,51 10.504,48 31/08/2023
22 326000 ADRIANA PEREIRA CARNEIRO RESENDE OFICIAL DO MP BELO HORIZONTE - COMARCA; BH-25PJ DEFESA DA EDUCACAO-SECRETARIA 12.343,61 3.703,08 0,00 0,00 0,00 0,00 905,30 2.105,00 19.056,99 3.459,39 4.645,16 0,00 0,00 8.104,55 10.952,44 31/08/2023
23 502200 ADRIANA PETRUCCI DAVINA OFICIAL DO MP PATROCÍNIO - COMARCA; PATROCINIO-PJ-01PJ 10.516,49 2.103,30 0,00 0,00 0,00 0,00 0,00 3.055,00 15.674,79 2.001,58 2.740,68 0,00 0,00 4.742,26 10.932,53 31/08/2023
24 201900 ADRIANA REIS PIMENTA OFICIAL DO MP TEÓFILO OTONI - COMARCA; TEOFILO OTONI-PJ-03PJ 20.533,67 10.266,84 0,00 0,00 0,00 0,00 2.091,01 2.515,67 35.407,19 5.037,57 6.764,53 0,00 0,00 11.802,10 23.605,09 31/08/2023
25 278700 ADRIANA RODRIGUES PINTO COELHO AMARAL ANALISTA DO MP BELO HORIZONTE - COMARCA; CGMP-DIR ESTAGIO PROBATORIO E ORIENT 23.070,31 6.921,09 0,00 0,00 0,00 0,00 0,00 2.105,00 32.096,40 4.579,57 6.103,29 0,00 0,00 10.682,86 21.413,54 31/08/2023
26 468000 ADRIANA SANTOS DE SANTANA MOREIRA ANALISTA DO MP GOVERNADOR VALADARES - COMARCA; GAECO REGIONAL DE GOVERNADOR VALADARES 12.343,61 4.937,44 0,00 0,00 0,00 0,00 1.069,96 2.105,00 20.456,01 3.742,35 4.961,64 0,00 0,00 8.703,99 11.752,02 31/08/2023
27 194700 ADRIANA TSUKIDE OFICIAL DO MP UBERABA - COMARCA; COORD REG BACIAS PARANAIBA BAIXO RIO GRANDE 20.533,67 8.213,47 0,00 0,00 0,00 0,00 527,03 7.854,43 37.128,60 4.380,49 5.763,73 0,00 0,00 10.144,22 26.984,38 31/08/2023
28 465500 ADRIANO CASSIANO MATOS ANALISTA DO MP ARAXÁ - COMARCA; ARAXA-PJ-02PJ 12.343,61 2.468,72 0,00 0,00 0,00 0,00 936,40 2.105,00 17.853,73 3.176,44 4.371,28 0,00 0,00 7.547,72 10.306,01 31/08/2023
29 500500 ADRIANO DE ALMEIDA SILVA OFICIAL DO MP UBERABA - COMARCA; UBERABA-PJ-12PJ 10.516,49 2.103,30 0,00 0,00 0,00 0,00 0,00 3.055,00 15.674,79 2.001,58 2.196,18 0,00 0,00 4.197,76 11.477,03 31/08/2023
30 187200 ADRIANO DE FREITAS MARON OFICIAL DO MP PONTE NOVA - COMARCA; PONTE NOVA-PJ-03PJ 17.559,01 15.803,11 0,00 489,18 0,00 8.399,15 0,00 2.105,00 44.355,45 5.118,89 8.289,62 0,00 0,00 13.408,51 30.946,94 31/08/2023
31 477900 ADRIANO FERREIRA DE ALMEIDA OFICIAL DO MP TAIOBEIRAS - COMARCA; TAIOBEIRAS-PJ-UNPJ 10.516,49 3.154,95 0,00 0,00 0,00 0,00 0,00 2.861,15 16.532,59 1.968,38 2.229,11 0,00 0,00 4.197,49 12.335,10 31/08/2023
32 269101 ADRIANO PEREIRA SILVA ANALISTA DO MP UBERABA - COMARCA; UBERABA-PJ-02PJ 12.343,61 3.703,08 0,00 0,00 0,00 0,00 917,17 2.105,00 19.068,86 3.373,94 4.353,12 0,00 0,00 7.727,06 11.341,80 31/08/2023
33 414200 ADRIANO RODRIGUES FERNANDES ANALISTA DO MP CARANDAÍ - COMARCA; CARANDAI-PJ-UNPJ 12.343,61 2.468,72 0,00 0,00 0,00 0,00 827,55 2.105,00 17.744,88 3.176,44 4.067,99 0,00 0,00 7.244,43 10.500,45 31/08/2023
34 536700 ADRIELLE COSTA MARIA MOURAO FIGUEIREDO OFICIAL DO MP SERRO - COMARCA; SERRO-PJ-SECRETARIA 7.506,70 1.501,34 0,00 0,00 0,00 0,00 462,77 3.055,00 12.525,81 1.990,17 2.446,73 0,00 0,00 4.436,90 8.088,91 31/08/2023
35 514300 ADRIENE DAMASCENO BRAGA ANALISTA DO MP ALFENAS - COMARCA; ALFENAS-PJ-03PJ 12.343,61 2.468,72 0,00 0,00 0,00 0,00 936,61 2.105,00 17.853,94 3.176,44 4.224,40 0,00 0,00 7.400,84 10.453,10 31/08/2023
36 254600 ADRIENE DOMINGUES COSTA ANALISTA DO MP BELO HORIZONTE - COMARCA; SUPER DE GESTAO DE PESSOAS-LOTACAO TEMPORARIA 23.070,31 9.228,12 0,00 0,00 0,00 0,00 0,00 0,00 32.298,43 5.686,95 7.913,54 0,00 0,00 13.600,49 18.697,94 31/08/2023
37 252001 ADRIENE GOMES BARRETO ANALISTA DO MP BELO HORIZONTE - COMARCA; BH-19PJ SAUDE-SECRETARIA 047PJ 18.720,84 9.360,42 0,00 0,00 0,00 0,00 0,00 2.105,00 30.186,26 4.273,95 5.662,05 0,00 0,00 9.936,00 20.250,26 31/08/2023
38 714800 ADSON GUSTAVO DE OLIVEIRA ASSESSOR PROCURADOR JUSTICA BELO HORIZONTE - COMARCA; GABINETE DE PROCURADOR DE JUSTIÇA - SALA 803 0,00 0,00 8.810,89 0,00 0,00 0,00 424,25 2.105,00 11.340,14 876,95 2.845,21 0,00 0,00 3.722,16 7.617,98 31/08/2023
39 724600 AECIO BRAS SILVA JUNIOR ASSESSOR PROMOTOR JUSTICA BAMBUÍ - COMARCA; BAMBUI-PJ-UNPJ 0,00 0,00 8.810,89 0,00 0,00 0,00 402,14 2.105,00 11.318,03 876,95 2.845,21 0,00 0,00 3.722,16 7.595,87 31/08/2023
40 302500 AGENOR JOSE DA SILVA JUNIOR ANALISTA DO MP JUIZ DE FORA - COMARCA; JUIZ DE FORA-PJ-07PJ 22.191,68 6.657,50 0,00 0,00 0,00 0,00 0,00 3.055,00 31.904,18 4.396,82 5.683,03 0,00 0,00 10.079,85 21.824,33 31/08/2023
41 357500 AILSON WAGNER DE ALENCAR SILVA OFICIAL DO MP BELO HORIZONTE - COMARCA; BH-12PJ JUIZO CRIMINAL-SECRETARIA 14.960,00 5.984,00 0,00 0,00 0,00 0,00 0,00 2.105,00 23.049,00 3.131,99 3.856,93 0,00 0,00 6.988,92 16.060,08 31/08/2023
42 366400 AILTON ALEXSSANDRO ALVES OFICIAL DO MP PARÁ DE MINAS - COMARCA; PARA DE MINAS-PJ-05PJ 12.343,61 4.937,44 0,00 0,00 0,00 0,00 0,00 2.105,00 19.386,05 3.043,66 4.251,56 0,00 0,00 7.295,22 12.090,83 31/08/2023
43 318900 AILTON DE CASTRO RIBEIRO JUNIOR OFICIAL DO MP CANDEIAS - COMARCA; CANDEIAS-PJ-UNPJ 12.343,61 3.703,08 0,00 0,00 0,00 0,00 993,57 2.105,00 19.145,26 3.459,39 4.488,75 0,00 0,00 7.948,14 11.197,12 31/08/2023
44 464400 ALAN MONTEIRO GASPAR ANALISTA DO MP SETE LAGOAS - COMARCA; SETE LAGOAS-PJ-08PJ 12.343,61 2.468,72 0,00 0,00 0,00 0,00 917,17 2.105,00 17.834,50 3.176,44 4.224,40 0,00 0,00 7.400,84 10.433,66 31/08/2023
45 492000 ALANA DE CASTRO FREITAS OFICIAL DO MP BELO HORIZONTE - COMARCA; SECRETARIA DO PROCON-MG 8.003,54 1.600,71 0,00 0,00 335,40 0,00 499,84 2.105,00 12.544,49 2.085,63 2.801,20 0,00 0,00 4.886,83 7.657,66 31/08/2023
46 306700 ALANA MARCIA DE OLIVEIRA OFICIAL DO MP BELO HORIZONTE - COMARCA; DIRETORIA DE ADMINISTRACAO FINANCEIRA 12.343,61 3.703,08 0,00 0,00 0,00 0,00 993,57 2.105,00 19.145,26 3.459,39 4.645,16 0,00 0,00 8.104,55 11.040,71 31/08/2023
47 324500 ALANMAR COUTINHO COSTA OFICIAL DO MP LEOPOLDINA - COMARCA; LEOPOLDINA-PJ-02PJ 12.343,61 3.703,08 0,00 0,00 0,00 0,00 993,57 2.105,00 19.145,26 3.459,39 4.540,89 0,00 0,00 8.000,28 11.144,98 31/08/2023
48 407300 ALBERTO LUIZ SOARES DE OLIVEIRA ANALISTA DO MP BELO HORIZONTE - COMARCA; DIRETORIA DE PROJETOS DE EDIFICACOES 17.559,01 3.511,80 0,00 0,00 0,00 0,00 0,00 2.105,00 23.175,81 3.152,28 4.042,64 0,00 0,00 7.194,92 15.980,89 31/08/2023
49 118200 ALBERTO PEREIRA DA COSTA OFICIAL DO MP DORES DO INDAIÁ - COMARCA; DORES DO INDAIA-PJ-UNPJ 22.191,68 19.972,51 0,00 0,00 0,00 6.048,41 318,16 5.575,83 54.106,59 5.795,34 9.400,14 4.574,23 0,00 19.769,71 34.336,88 31/08/2023
50 282400 ALCILENE MARISE DE ARAUJO ANALISTA DO MP BELO HORIZONTE - COMARCA; BH-23PJ INF-FISC MED SOC FEC 23.070,31 6.921,09 0,00 0,00 0,00 0,00 549,84 8.103,28 38.644,52 4.579,57 6.051,16 0,00 0,00 10.630,73 28.013,79 31/08/2023
51 396400 ALCIONE DE FREITAS E SILVA ANALISTA DO MP BELO HORIZONTE - COMARCA; ASSESS JUR DO CONS SUPERIOR DO MINISTERIO PUB 18.720,84 7.488,34 0,00 0,00 0,00 0,00 0,00 2.105,00 28.314,18 3.974,42 5.532,50 0,00 0,00 9.506,92 18.807,26 31/08/2023
52 657400 ALCIONE MARIA FERREIRA ASSESSOR PROCURADOR JUSTICA BELO HORIZONTE - COMARCA; GABINETE DE PROCURADOR DE JUSTIÇA - SALA 610 0,00 0,00 8.810,89 0,00 0,00 0,00 435,76 3.055,00 12.301,65 876,95 2.845,21 0,00 0,00 3.722,16 8.579,49 31/08/2023
53 161600 ALCIONE NERY SOUZA ASSESSOR ADMINISTRATIVO III BELO HORIZONTE - COMARCA; BH-18PJ DIREITOS HUMANOS-SECRETARIA 0,00 5.429,45 10.858,90 0,00 0,00 0,00 800,31 2.105,00 19.193,66 876,95 6.026,97 0,00 0,00 6.903,92 12.289,74 31/08/2023
54 376000 ALDA GOMES LANA OFICIAL DO MP BELO HORIZONTE - COMARCA; BH-18PJ VIOLENCIA DOMESTICA-SECRETARIA 12.343,61 3.703,08 0,00 0,00 0,00 0,00 0,00 2.105,00 18.151,69 2.348,42 2.829,93 0,00 0,00 5.178,35 12.973,34 31/08/2023
55 148000 ALDA MARTINS SIMOES OFICIAL DO MP BELO HORIZONTE - COMARCA; BH-23PJ CIVEL- FISC ENT AB POL 23.070,31 16.149,22 0,00 0,00 0,00 0,00 0,00 2.105,00 41.324,53 5.795,34 7.858,56 1.629,57 0,00 15.283,47 26.041,06 31/08/2023
56 318400 ALDO CREPALDI JUNIOR OFICIAL DO MP BELO HORIZONTE - COMARCA; DIVISAO DE MATERIAIS 12.343,61 3.703,08 0,00 0,00 0,00 0,00 993,57 2.105,00 19.145,26 3.459,39 4.593,02 0,00 0,00 8.052,41 11.092,85 31/08/2023
57 604500 ALENIZE APARECIDA RODRIGUES HENRIQUE OFICIAL DO MP RIO NOVO - COMARCA; RIO NOVO-PJ-SECRETARIA 7.506,70 750,67 0,00 0,00 0,00 0,00 483,69 2.105,00 10.846,06 1.660,72 2.241,03 0,00 0,00 3.901,75 6.944,31 31/08/2023
58 197900 ALESSA DE SOUSA E SILVA OFICIAL DO MP OLIVEIRA - COMARCA; OLIVEIRA-PJ-02PJ 21.346,53 8.538,61 0,00 0,00 0,00 0,00 547,89 8.082,03 38.515,06 4.562,57 5.974,47 0,00 0,00 10.537,04 27.978,02 31/08/2023
59 428500 ALESSANDRA ALVES DINIZ OFICIAL DO MP BELO HORIZONTE - COMARCA; CENTRAL DE APOIO TECNICO-SECRETARIA 10.015,59 5.007,80 0,00 0,00 0,00 0,00 0,00 2.105,00 17.128,39 2.931,44 3.872,78 0,00 0,00 6.804,22 10.324,17 31/08/2023
60 286801 ALESSANDRA BOTELHO JUNQUEIRA DE MENEZES ANALISTA DO MP PASSOS - COMARCA; PASSOS-PJ-05PJ 18.130,77 7.252,31 0,00 0,00 0,00 0,00 0,00 3.055,00 28.438,08 3.842,24 4.830,22 0,00 0,00 8.672,46 19.765,62 31/08/2023
61 307000 ALESSANDRA CRISTINA SANTOS MENDES ANALISTA DO MP BELO HORIZONTE - COMARCA; BH-18PJ VIOLENCIA DOMESTICA-SECRETARIA 20.533,67 6.160,10 0,00 0,00 0,00 0,00 0,00 2.105,00 28.798,77 4.051,95 5.289,40 0,00 0,00 9.341,35 19.457,42 31/08/2023
62 264400 ALESSANDRA DE SOUZA SANTOS ANALISTA DO MP BELO HORIZONTE - COMARCA; SECRETARIA DE ASSUNTOS INTERNACIONAIS 23.070,31 11.535,16 0,00 0,00 0,00 0,00 0,00 2.105,00 36.710,47 5.795,34 8.518,17 0,00 0,00 14.313,51 22.396,96 31/08/2023
63 441500 ALESSANDRA DRUMMOND DE FIGUEIREDO ROSSI ANALISTA DO MP BELO HORIZONTE - COMARCA; DIRETORIA DE PROJETOS DE EDIFICACOES 12.343,61 2.468,72 0,00 0,00 0,00 0,00 752,00 2.105,00 17.669,33 3.176,44 4.224,40 0,00 0,00 7.400,84 10.268,49 31/08/2023
64 524000 ALESSANDRA LUCIOLI DE BARROS GUERRA ANALISTA DO MP BELO HORIZONTE - COMARCA; BH-19PJ SAUDE--SECRETARIA 12.343,61 2.468,72 0,00 0,00 0,00 0,00 892,41 2.105,00 17.809,74 3.176,44 4.120,13 0,00 0,00 7.296,57 10.513,17 31/08/2023
65 479900 ALESSANDRA MARA ANDRADE DE FARIA OFICIAL DO MP UBERABA - COMARCA; UBERABA-PJ-09PJ 10.516,49 2.103,30 0,00 0,00 0,00 0,00 0,00 2.105,00 14.724,79 1.800,11 2.090,45 0,00 0,00 3.890,56 10.834,23 31/08/2023
66 226700 ALESSANDRA MARA VASCONCELOS REZENDE OFICIAL DO MP CONSELHEIRO LAFAIETE - COMARCA; CONSELHEIRO LAFAIETE-PJ-07PJ 17.559,01 7.023,60 0,00 0,00 0,00 0,00 0,00 2.105,00 26.687,61 3.714,17 4.853,86 0,00 0,00 8.568,03 18.119,58 31/08/2023
67 196500 ALESSANDRA MARIA RIBEIRO LUCIANO OFICIAL DO MP RIO PARANAÍBA - COMARCA; RIO PARANAIBA-PJ-UNPJ 21.346,53 10.673,27 0,00 0,00 0,00 0,00 0,00 2.105,00 34.124,80 4.904,12 6.467,58 0,00 0,00 11.371,70 22.753,10 31/08/2023
68 651700 ALESSANDRA PROFIRIO SOUZA OFICIAL DO MP NOVA ERA - COMARCA; NOVA ERA-PJ-UNPJ 6.097,80 609,78 0,00 0,00 0,00 0,00 323,75 2.105,00 9.136,33 1.314,89 1.479,74 0,00 0,00 2.794,63 6.341,70 31/08/2023
69 384900 ALESSANDRA RODRIGUES ANALISTA DO MP VISCONDE DO RIO BRANCO - COMARCA; VISCONDE DO RIO BRANCO-PJ-03PJ 18.720,84 5.616,25 0,00 0,00 0,00 0,00 0,00 3.055,00 27.392,09 3.674,88 4.952,50 0,00 0,00 8.627,38 18.764,71 31/08/2023
70 390000 ALESSANDRA SPADANO MASSARA VASCONCELOS OFICIAL DO MP BETIM - COMARCA; BETIM-PJ-10PJ 12.343,61 3.703,08 0,00 0,00 0,00 0,00 0,00 2.105,00 18.151,69 2.348,42 3.379,73 0,00 0,00 5.728,15 12.423,54 31/08/2023
71 426500 ALESSANDRO CAMPOS DE PAIVA ANALISTA DO MP BELO HORIZONTE - COMARCA; DIR CRIACAO E MIDIAS 18.130,77 3.626,15 0,00 0,00 0,00 0,00 0,00 2.105,00 23.861,92 3.569,72 4.896,90 0,00 0,00 8.466,62 15.395,30 31/08/2023
72 623400 ALESSANDRO DE OLIVEIRA REZENDE ANALISTA DO MP BELO HORIZONTE - COMARCA; DIRET DE INFORMACAO E CONHECIMENTO-DINC/CEAF 11.577,56 1.157,76 0,00 0,00 0,00 0,00 704,22 2.105,00 15.544,54 2.700,31 3.516,40 0,00 0,00 6.216,71 9.327,83 31/08/2023
73 420600 ALESSANDRO SILVA OFICIAL DO MP VISCONDE DO RIO BRANCO - COMARCA; VISCONDE DO RIO BRANCO-PJ-02PJ 11.577,56 4.631,02 0,00 0,00 0,00 0,00 0,00 2.105,00 18.313,58 2.374,32 1.705,67 0,00 0,00 4.079,99 14.233,59 31/08/2023
74 375301 ALETHEIA PATRICIA ASSIS MORAIS MOREIRA ANALISTA DO MP ITABIRA - COMARCA; ITABIRA-PJ-02PJ 12.343,61 3.703,08 0,00 0,00 0,00 0,00 840,79 3.055,00 19.942,48 3.288,48 4.321,78 0,00 0,00 7.610,26 12.332,22 31/08/2023
75 382300 ALEX CARVALHO LIMA ANALISTA DO MP UBERLÂNDIA - COMARCA; UBERLANDIA-PJ-14PJ 18.720,84 5.616,25 0,00 0,00 0,00 0,00 0,00 3.055,00 27.392,09 3.674,88 5.056,78 0,00 0,00 8.731,66 18.660,43 31/08/2023
76 195201 ALEX DE CASTRO PEREIRA ANALISTA DO MP UBERABA - COMARCA; UBERABA-PJ-09PJ 23.070,31 9.228,12 0,00 0,00 0,00 0,00 0,00 2.105,00 34.403,43 4.948,70 6.636,22 0,00 0,00 11.584,92 22.818,51 31/08/2023
77 358900 ALEX DE PAULA LANZA ASSESSOR ADMINISTRATIVO IV BELO HORIZONTE - COMARCA; DIR CONTEUDO JORNALISTICO 0,00 0,00 14.488,22 0,00 0,00 0,00 692,77 3.055,00 18.235,99 876,95 5.138,35 0,00 0,00 6.015,30 12.220,69 31/08/2023
78 178400 ALEX RODRIGO SALDANHA GUIMARAES OFICIAL DO MP BELO HORIZONTE - COMARCA; DIRETORIA DE SISTEMAS DE INFORMACAO 7.506,70 3.002,68 0,00 0,00 0,00 0,00 506,01 2.105,00 13.120,39 2.190,05 2.757,64 0,00 0,00 4.947,69 8.172,70 31/08/2023
79 413500 ALEX VILELA OLIVEIRA ANALISTA DO MP GOVERNADOR VALADARES - COMARCA; COORD REG PJ DEF EDU DIR CRIANCA ADOL RIODOCE 18.130,77 3.626,15 0,00 0,00 0,00 0,00 0,00 2.105,00 23.861,92 3.262,06 4.201,13 0,00 0,00 7.463,19 16.398,73 31/08/2023
80 264300 ALEXANDRA FATIMA SARAIVA SOARES ANALISTA DO MP BELO HORIZONTE - COMARCA; CENTRAL DE APOIO TECN-SETOR DE MEIO AMBIENTE 23.070,31 9.228,12 0,00 0,00 0,00 0,00 0,00 2.105,00 34.403,43 5.348,01 7.212,72 0,00 0,00 12.560,73 21.842,70 31/08/2023
81 488000 ALEXANDRA LARA PAIS DE CARVALHO ANALISTA DO MP SABARÁ - COMARCA; SABARA-PJ-04PJ 12.343,61 2.468,72 0,00 0,00 0,00 0,00 917,17 2.105,00 17.834,50 3.176,44 4.067,99 0,00 0,00 7.244,43 10.590,07 31/08/2023
82 256300 ALEXANDRA SANTOS GOMES OFICIAL DO MP BELO HORIZONTE - COMARCA; DIRETORIA GESTAO COMPRAS LICITACOES 12.343,61 4.937,44 0,00 0,00 0,00 0,00 782,09 2.105,00 20.168,14 4.094,62 5.675,41 0,00 0,00 9.770,03 10.398,11 31/08/2023
83 403300 ALEXANDRE AUGUSTO RODRIGUES ANALISTA DO MP ÁGUAS FORMOSAS - COMARCA; AGUAS FORMOSAS-PJ-UNPJ 12.343,61 3.703,08 0,00 0,00 0,00 0,00 1.947,59 4.005,00 21.999,28 3.571,43 4.794,68 0,00 0,00 8.366,11 13.633,17 31/08/2023
84 640900 ALEXANDRE BARBOSA MASCARENHAS ANALISTA DO MP BETIM - COMARCA; BETIM-PJ-02PJ 9.393,95 939,40 0,00 0,00 3.444,45 0,00 323,26 2.105,00 16.206,06 982,16 2.509,25 0,00 0,00 3.491,41 12.714,65 31/08/2023
85 311700 ALEXANDRE BARCELOS RESENDE OFICIAL DO MP BELO HORIZONTE - COMARCA; BH-17PJ PATRIMONIO PUBLICO-SECRETARIA 10.858,90 3.257,67 0,00 0,00 0,00 0,00 733,05 3.055,00 17.904,62 3.009,25 4.134,92 0,00 0,00 7.144,17 10.760,45 31/08/2023
86 285600 ALEXANDRE CAMPOS DE OLIVEIRA OFICIAL DO MP UBERABA - COMARCA; COORD REG BACIAS PARANAIBA BAIXO RIO GRANDE 12.343,61 3.703,08 0,00 0,00 0,00 0,00 993,57 2.105,00 19.145,26 3.459,39 4.488,75 0,00 0,00 7.948,14 11.197,12 31/08/2023
87 509200 ALEXANDRE CAPUANO DE REZENDE ANALISTA DO MP BELO HORIZONTE - COMARCA; BH-07PJ 03 TRIBUNAL DO JURI-GAB 061PJ 12.343,61 2.468,72 0,00 0,00 0,00 0,00 713,23 2.105,00 17.630,56 3.176,44 4.172,26 0,00 0,00 7.348,70 10.281,86 31/08/2023
88 229400 ALEXANDRE CARLOS BOTREL SUPERINTENDENTE BELO HORIZONTE - COMARCA; SUPERINTENDENCIA DOS ORGAOS COLEGIADOS 28.013,39 11.205,36 0,00 0,00 0,00 0,00 0,00 2.105,00 41.323,75 3.842,24 7.774,25 1.628,79 2.259,67 15.504,95 25.818,80 31/08/2023
89 411900 ALEXANDRE CARVALHO SANTOS RIBEIRO ANALISTA DO MP OLIVEIRA - COMARCA; OLIVEIRA-PJ-02PJ 18.130,77 3.626,15 0,00 0,00 0,00 0,00 0,00 3.055,00 24.811,92 3.445,36 4.717,34 0,00 0,00 8.162,70 16.649,22 31/08/2023
90 641600 ALEXANDRE DA SILVA ASSUNCAO OFICIAL DO MP BELO HORIZONTE - COMARCA; SERVICO MEDICO-DEPTO PERIC MEDICA SAUDE OCUP 6.603,76 660,38 0,00 0,00 0,00 0,00 436,92 3.055,00 10.756,06 982,16 1.779,02 0,00 0,00 2.761,18 7.994,88 31/08/2023
91 201200 ALEXANDRE DE ALENCAR CORDEIRO OFICIAL DO MP ÁGUAS FORMOSAS - COMARCA; AGUAS FORMOSAS-PJ-UNPJ 7.506,70 5.254,69 0,00 0,00 0,00 0,00 558,14 2.105,00 15.424,53 2.602,35 3.360,33 0,00 0,00 5.962,68 9.461,85 31/08/2023
92 288200 ALEXANDRE DE VASCONCELOS COSTA KER ANALISTA DO MP BELO HORIZONTE - COMARCA; BH-03PJ EMPRESARIAL-SECRETARIA 22.191,68 6.657,50 0,00 0,00 0,00 0,00 0,00 2.105,00 30.954,18 4.396,82 5.787,30 0,00 0,00 10.184,12 20.770,06 31/08/2023
93 445000 ALEXANDRE DIOGENES OLIVEIRA ANALISTA DO MP SALINAS - COMARCA; SALINAS-PJ-02PJ 13.588,97 2.717,79 0,00 0,00 0,00 0,00 55,33 4.005,00 20.367,09 2.954,52 3.918,83 0,00 0,00 6.873,35 13.493,74 31/08/2023
94 463400 ALEXANDRE LEAL WINKELSTROTER ANALISTA DO MP TEÓFILO OTONI - COMARCA; TEOFILO OTONI-PJ-04PJ 12.343,61 3.209,34 0,00 0,00 0,00 0,00 794,91 2.105,00 18.452,86 3.294,94 4.395,48 0,00 0,00 7.690,42 10.762,44 31/08/2023
95 615700 ALEXANDRE LUIZ DE CASTRO MACIEL ANALISTA DO MP BELO HORIZONTE - COMARCA; BH-08PJ JUIZADO ESPECIAL-SECRETARIA 11.577,56 1.852,41 0,00 0,00 0,00 0,00 641,42 3.055,00 17.126,39 2.811,46 3.624,73 0,00 0,00 6.436,19 10.690,20 31/08/2023
96 356900 ALEXANDRE MOISES MENDONCA E ARAUJO OFICIAL DO MP UBERABA - COMARCA; UBERABA-PJ-13PJ 9.699,77 2.909,93 0,00 0,00 0,00 0,00 608,59 4.005,00 17.223,29 2.664,64 3.605,49 0,00 0,00 6.270,13 10.953,16 31/08/2023
97 633300 ALEXANDRE NONATO MARTINS OFICIAL DO MP IGARAPÉ - COMARCA; IGARAPE-PJ-02PJ 6.603,76 660,38 0,00 0,00 0,00 0,00 489,64 2.105,00 9.858,78 1.581,01 1.794,01 0,00 0,00 3.375,02 6.483,76 31/08/2023
98 469900 ALEXANDRE PEREIRA GUEDES ANALISTA DO MP CATAGUASES - COMARCA; CATAGUASES-PJ-03PJ 12.343,61 2.468,72 0,00 0,00 0,00 0,00 917,17 2.105,00 17.834,50 3.176,44 4.224,40 0,00 0,00 7.400,84 10.433,66 31/08/2023
99 208700 ALEXANDRE RESENDE FRAGA ANALISTA DO MP BELO HORIZONTE - COMARCA; BH-19PJ SAUDE-SECRETARIA 130PJ 23.070,31 9.228,12 0,00 0,00 0,00 0,00 0,00 2.105,00 34.403,43 5.348,01 7.056,31 0,00 0,00 12.404,32 21.999,11 31/08/2023
100 216401 ALEXANDRE RIBEIRO DE LIMA MAIORINO ANALISTA DO MP UBERABA - COMARCA; UBERABA-PJ-03PJ 22.191,68 8.876,67 0,00 0,00 0,00 0,00 0,00 2.105,00 33.173,35 4.751,88 6.299,93 0,00 0,00 11.051,81 22.121,54 31/08/2023
101 475100 ALEXANDRE TEOTONIO COSTA ANALISTA DO MP ARAGUARI - COMARCA; ARAGUARI-PJ-01PJ 12.343,61 2.468,72 0,00 0,00 0,00 0,00 835,69 2.105,00 17.753,02 3.176,44 4.120,13 0,00 0,00 7.296,57 10.456,45 31/08/2023
102 339000 ALEXANDRE VITOR CARDOSO OFICIAL DO MP BELO HORIZONTE - COMARCA; BH-23PJ INFRACIONAL-SEC EXP 7.506,70 2.252,01 0,00 0,00 0,00 0,00 603,63 2.105,00 12.467,34 2.017,98 2.345,35 0,00 0,00 4.363,33 8.104,01 31/08/2023
103 623100 ALEXSANDER BATISTA AGUIAR COORDENADOR II BELO HORIZONTE - COMARCA; DIRETORIA DE SUPORTE E MANUTENCAO 20.533,67 2.053,37 0,00 0,00 0,00 0,00 125,43 4.005,00 26.717,47 3.219,16 6.668,66 0,00 899,36 10.787,18 15.930,29 31/08/2023
104 513300 ALFSON MIRANDA BRAGA ANALISTA DO MP BELO HORIZONTE - COMARCA; BH-12PJ JUIZO CRIMINAL-GAB 087PJ 12.343,61 2.468,72 0,00 0,00 0,00 0,00 710,09 2.105,00 17.627,42 3.176,44 4.224,40 0,00 0,00 7.400,84 10.226,58 31/08/2023
105 618400 ALICE MAGALHAES MACEDO DE CARVALHO ANALISTA DO MP IPATINGA - COMARCA; IPATINGA-PJ-10PJ 11.577,56 1.157,76 0,00 0,00 0,00 0,00 795,44 3.055,00 16.585,76 2.700,31 3.516,40 0,00 0,00 6.216,71 10.369,05 31/08/2023
106 707000 ALICE MARIA RIBEIRO DINIZ ASSESSOR PROMOTOR JUSTICA BELO HORIZONTE - COMARCA; PROC JUST ATUACAO TRIBUNAIS SUPERIORES-GAB004 0,00 0,00 8.810,89 0,00 0,00 0,00 469,84 2.105,00 11.385,73 876,95 2.845,21 0,00 0,00 3.722,16 7.663,57 31/08/2023
107 471000 ALICE TITONELI MOREIRA ANALISTA DO MP MIRADOURO - COMARCA; MIRADOURO-PJ-UNPJ 12.343,61 2.468,72 0,00 0,00 0,00 0,00 713,23 3.055,00 18.580,56 3.176,44 4.120,13 0,00 0,00 7.296,57 11.283,99 31/08/2023
108 731600 ALICIA PAULA RODRIGUES DE LIMA ASSESSOR PROMOTOR JUSTICA TIROS - COMARCA; TIROS-PJ-UNPJ 0,00 0,00 8.810,89 0,00 0,00 0,00 149,10 2.105,00 11.064,99 876,95 2.836,47 0,00 0,00 3.713,42 7.351,57 31/08/2023
109 725800 ALINE ALBIERI FRANCISCO ASSESSOR PROMOTOR JUSTICA BELO HORIZONTE - COMARCA; CAO-ORDEM ECONOMICA E TRIBUTARIA-ASSESS TECN 0,00 0,00 8.810,89 0,00 0,00 0,00 331,16 2.105,00 11.247,05 876,95 2.757,84 0,00 0,00 3.634,79 7.612,26 31/08/2023
110 733200 ALINE APARECIDA DO PRADO TERRITO ASSESSOR ADMINISTRATIVO II BELO HORIZONTE - COMARCA; ESCRITORIO DE PROTECAO DE DADOS PESSOAIS 0,00 0,00 7.506,70 0,00 0,00 0,00 26,76 2.105,00 9.638,46 876,95 1.574,04 0,00 0,00 2.450,99 7.187,47 31/08/2023
111 622400 ALINE BALBINO PORTUGAL LOPES ANALISTA DO MP TRÊS PONTAS - COMARCA; TRES PONTAS-PJ-03PJ 11.577,56 1.157,76 0,00 0,00 0,00 0,00 779,19 3.055,00 16.569,51 2.700,31 3.516,40 0,00 0,00 6.216,71 10.352,80 31/08/2023
112 373000 ALINE BOTELHO RESENDE OFICIAL DO MP JUIZ DE FORA - COMARCA; JUIZ DE FORA-PJ-22PJ 11.954,43 3.586,33 0,00 0,00 0,00 0,00 0,00 2.105,00 17.645,76 3.322,73 4.442,83 0,00 0,00 7.765,56 9.880,20 31/08/2023
113 699800 ALINE CRISTINA DE OLIVEIRA AMARAL BARBOSA ASSESSOR PROCURADOR JUSTICA BELO HORIZONTE - COMARCA; GABINETE DE PROCURADOR DE JUSTIÇA - SALA 904 0,00 0,00 8.810,89 0,00 0,00 0,00 470,60 2.105,00 11.386,49 876,95 2.740,94 0,00 0,00 3.617,89 7.768,60 31/08/2023
114 407700 ALINE CRISTINA RODRIGUES PEREIRA COORDENADOR II BELO HORIZONTE - COMARCA; DIRETORIA DE PROJETOS DE EDIFICACOES 20.533,67 4.106,73 0,00 0,00 0,00 0,00 0,00 2.105,00 26.745,40 3.339,11 7.259,44 0,00 0,00 10.598,55 16.146,85 31/08/2023
115 193100 ALINE CRISTINA SENA OLIVEIRA OFICIAL DO MP UBERLÂNDIA - COMARCA; UBERLANDIA-PJ-03PJ 20.533,67 8.213,47 0,00 0,00 0,00 0,00 0,00 3.055,00 31.802,14 4.380,49 5.763,73 0,00 0,00 10.144,22 21.657,92 31/08/2023
116 554200 ALINE CRISTINA SILVA SOUZA OFICIAL DO MP TIROS - COMARCA; TIROS-PJ-UNPJ 7.506,70 1.501,34 0,00 0,00 0,00 0,00 397,60 2.105,00 11.510,64 1.793,93 2.163,40 0,00 0,00 3.957,33 7.553,31 31/08/2023
117 505500 ALINE DA CUNHA MARREIROS OLIVEIRA ANALISTA DO MP EUGENÓPOLIS - COMARCA; EUGENOPOLIS-PJ-UNPJ 12.343,61 2.468,72 0,00 0,00 0,00 0,00 732,49 4.955,00 20.499,82 3.176,44 4.172,26 0,00 0,00 7.348,70 13.151,12 31/08/2023
118 433500 ALINE DE MELO QUEIROZ OFICIAL DO MP BELO HORIZONTE - COMARCA; ASSESSORIA JURIDICA DO PROCON-MG 11.212,54 2.242,51 4.020,58 0,00 0,00 0,00 1.061,95 3.055,00 21.592,58 2.857,96 5.377,11 0,00 543,20 8.778,27 12.814,31 31/08/2023
119 691100 ALINE DE MELO SOUZA ASSESSOR PROCURADOR JUSTICA BELO HORIZONTE - COMARCA; GABINETE DE PROCURADOR DE JUSTIÇA - SALA 401 0,00 0,00 8.810,89 0,00 0,00 0,00 424,25 2.105,00 11.340,14 876,95 2.845,21 0,00 0,00 3.722,16 7.617,98 31/08/2023
120 542700 ALINE DE SOUSA ALBINO ANALISTA DO MP CONTAGEM - COMARCA; CONTAGEM-PJ-09PJ 12.343,61 2.468,72 0,00 0,00 520,00 0,00 834,13 2.105,00 18.271,46 3.266,00 4.341,46 0,00 0,00 7.607,46 10.664,00 31/08/2023
121 330000 ALINE DIORIO MAYRINK OFICIAL DO MP BELO HORIZONTE - COMARCA; SUPER DE GESTAO DE PESSOAS-LOTACAO TEMPORARIA 10.015,59 2.003,12 0,00 0,00 0,00 0,00 730,41 2.105,00 14.854,12 2.529,49 3.397,86 0,00 0,00 5.927,35 8.926,77 31/08/2023
122 499000 ALINE FERREIRA LOPES ANALISTA DO MP TEÓFILO OTONI - COMARCA; TEOFILO OTONI-PJ-09PJ 12.343,61 2.468,72 0,00 0,00 0,00 0,00 936,15 2.105,00 17.853,48 3.176,44 4.319,15 0,00 0,00 7.495,59 10.357,89 31/08/2023
123 405300 ALINE LAIA CARDOZO SUPERINTENDENTE BELO HORIZONTE - COMARCA; SUPERINTENDENCIA LOGISTICA SERVICOS 28.013,39 5.602,68 0,00 0,00 0,00 0,00 0,00 2.105,00 35.721,07 3.375,35 7.119,69 0,00 1.132,90 11.627,94 24.093,13 31/08/2023
124 278200 ALINE MARCIA FARIA BARBOSA FERNANDES OFICIAL DO MP BARBACENA - COMARCA; BARBACENA-PJ-SECRETARIA 9.699,77 2.909,93 0,00 0,00 0,00 0,00 696,91 2.105,00 15.411,61 2.664,64 3.501,21 0,00 0,00 6.165,85 9.245,76 31/08/2023
125 389000 ALINE NERI NOBRE ANALISTA DO MP MONTES CLAROS - COMARCA; COORD REG PJ DEF EDUC DIR CRIANCA ADOL NORTE 18.720,84 7.488,34 0,00 0,00 0,00 0,00 0,00 2.105,00 28.314,18 3.974,42 5.229,60 0,00 0,00 9.204,02 19.110,16 31/08/2023
126 294600 ALINE PATRICIA SILVA VIEIRA OFICIAL DO MP UBERLÂNDIA - COMARCA; UBERLANDIA-PJ-03PJ 14.960,00 4.488,00 0,00 0,00 0,00 0,00 1.771,66 2.105,00 23.324,66 2.892,63 3.946,42 0,00 0,00 6.839,05 16.485,61 31/08/2023
127 420000 ALINE RODRIGUES CAMOROPIN ANALISTA DO MP SABARÁ - COMARCA; SABARA-PJ-02PJ 18.130,77 3.626,15 0,00 0,00 0,00 0,00 0,00 2.105,00 23.861,92 3.262,06 4.452,70 0,00 0,00 7.714,76 16.147,16 31/08/2023
128 715800 ALINE SANTOS PEDROSA MAIA BARBOSA ASSESSOR PROCURADOR JUSTICA BELO HORIZONTE - COMARCA; GABINETE DE PROCURADOR DE JUSTIÇA - SALA 1010 0,00 0,00 8.810,89 0,00 0,00 0,00 424,25 2.105,00 11.340,14 876,95 2.845,21 0,00 0,00 3.722,16 7.617,98 31/08/2023
129 699600 ALINE SEPULVEDA ROSA PIRES ASSESSOR PROCURADOR JUSTICA BELO HORIZONTE - COMARCA; GABINETE DE PROCURADOR DE JUSTIÇA - SALA 905 0,00 0,00 8.810,89 0,00 0,00 0,00 470,20 2.105,00 11.386,09 876,95 2.845,21 0,00 0,00 3.722,16 7.663,93 31/08/2023
130 408300 ALINE SILVA ARAUJO DE PAULA ANALISTA DO MP SÃO SEBASTIÃO DO PARAÍSO - COMARCA; SAO SEBASTIAO DO PARAISO-PJ-02PJ 18.130,77 3.626,15 0,00 0,00 0,00 0,00 0,00 2.105,00 23.861,92 982,16 4.326,91 0,00 0,00 5.309,07 18.552,85 31/08/2023
131 734300 ALINE TAVARES GURGEL ASSESSOR ADMINISTRATIVO III BELO HORIZONTE - COMARCA; SECRETARIA-GERAL 0,00 0,00 10.858,90 0,00 0,00 0,00 0,00 2.105,00 12.963,90 876,95 2.272,58 0,00 0,00 3.149,53 9.814,37 31/08/2023
132 425400 ALINE TRINDADE DE FREITAS CAMPOS OFICIAL DO MP BELO HORIZONTE - COMARCA; PROMOT ESTADUAL DE DEF PATRI CULT E TUR DE MG 11.212,54 2.242,51 0,00 0,00 0,00 0,00 655,01 2.105,00 16.215,06 2.865,30 3.761,74 0,00 0,00 6.627,04 9.588,02 31/08/2023
133 517200 ALISSOM PEREIRA DA SILVA ANALISTA DO MP BORDA DA MATA - COMARCA; BORDA DA MATA-PJ-UNPJ 12.343,61 3.703,08 0,00 0,00 0,00 0,00 917,17 3.055,00 20.018,86 3.373,94 4.509,54 0,00 0,00 7.883,48 12.135,38 31/08/2023
134 442400 ALISSON LABRE ANALISTA DO MP VARGINHA - COMARCA; VARGINHA-PJ-03PJ 13.160,57 2.632,11 0,00 0,00 0,00 0,00 62,64 2.105,00 17.960,32 982,16 4.470,19 0,00 0,00 5.452,35 12.507,97 31/08/2023
135 643800 ALLAN PAUL FONSECA DE CASTRO OFICIAL DO MP CONTAGEM - COMARCA; CONTAGEM-PJ-SECRETARIA 6.603,76 660,38 2.918,39 0,00 0,00 0,00 601,45 3.055,00 13.838,98 982,16 3.005,49 0,00 0,00 3.987,65 9.851,33 31/08/2023
136 612900 ALLAN VINICIUS VIEIRA ARAUJO COORDENADOR II BELO HORIZONTE - COMARCA; DIRETORIA DE GESTAO DOCUMENTAL 20.533,67 2.053,37 0,00 0,00 0,00 0,00 1.496,71 2.105,00 26.188,75 2.421,99 7.530,02 0,00 0,00 9.952,01 16.236,74 31/08/2023
137 349000 ALLEC RODRIGUES VIEIRA OFICIAL DO MP CAPINÓPOLIS - COMARCA; CAO-CIVEL 12.343,61 3.703,08 0,00 0,00 0,00 0,00 1.014,44 2.105,00 19.166,13 3.459,39 4.645,16 0,00 0,00 8.104,55 11.061,58 31/08/2023
138 297300 ALLYSON SALIBA MONTEIRO LAIZO ANALISTA DO MP CONSELHEIRO LAFAIETE - COMARCA; CONSELHEIRO LAFAIETE-PJ-03PJ 23.070,31 6.921,09 0,00 0,00 0,00 0,00 0,00 3.055,00 33.046,40 5.098,68 6.852,75 0,00 0,00 11.951,43 21.094,97 31/08/2023
139 303700 ALMIR LOPES LOURES ANALISTA DO MP BELO HORIZONTE - COMARCA; CENTRAL DE APOIO TECN-SETOR DE MEIO AMBIENTE 23.070,31 6.921,09 0,00 0,00 0,00 0,00 0,00 2.105,00 32.096,40 5.098,68 6.852,75 0,00 0,00 11.951,43 20.144,97 31/08/2023
140 743900 ALMIR MOREIRA DOS SANTOS ANALISTA DO MP BELO HORIZONTE - COMARCA; DIRETORIA DE ADMINISTRACAO FINANCEIRA 7.040,78 0,00 0,00 0,00 0,00 0,00 0,00 2.105,00 9.145,78 909,81 696,78 0,00 0,00 1.606,59 7.539,19 31/08/2023
141 696600 ALOIZIO MARTINS JALES JUNIOR ASSESSOR PROMOTOR JUSTICA CAMPESTRE - COMARCA; CAMPESTRE-PJ-SECRETARIA 0,00 0,00 8.810,89 0,00 0,00 0,00 456,31 2.105,00 11.372,20 876,95 2.845,21 0,00 0,00 3.722,16 7.650,04 31/08/2023
142 515900 ALTAIR NEVES JUNIOR OFICIAL DO MP BELO HORIZONTE - COMARCA; BH-01PJ FAZENDA PUBLICA-SECRETARIA 9.699,77 1.939,95 0,00 0,00 0,00 0,00 707,35 2.105,00 14.452,07 2.442,82 3.264,70 0,00 0,00 5.707,52 8.744,55 31/08/2023
143 233300 ALVARINDO BATISTA ANALISTA DO MP BELO HORIZONTE - COMARCA; NUCLEO APOIO TECNICO ESP COMUNICACAO 23.070,31 9.228,12 0,00 0,00 0,00 0,00 0,00 4.005,00 36.303,43 5.317,82 7.119,37 0,00 0,00 12.437,19 23.866,24 31/08/2023
144 274100 ALYSSON CARVALHO VIDAL DE LACERDA OFICIAL DO MP MANHUAÇU - COMARCA; MANHUACU-PJ-01PJ 12.343,61 3.703,08 0,00 0,00 0,00 0,00 772,64 2.105,00 18.924,33 3.459,39 4.645,16 0,00 0,00 8.104,55 10.819,78 31/08/2023
145 621000 AMANDA BASTOS ALVES ANALISTA DO MP BELO HORIZONTE - COMARCA; BH-07PJ 02 TRIBUNAL DO JURI-GAB 066PJ 11.577,56 1.157,76 0,00 0,00 0,00 0,00 619,88 2.105,00 15.460,20 982,16 3.358,55 0,00 0,00 4.340,71 11.119,49 31/08/2023
146 521700 AMANDA CRISTINA AGUIAR MACHADO OFICIAL DO MP CONGONHAS - COMARCA; CONGONHAS-PJ-01PJ 7.506,70 1.501,34 0,00 0,00 0,00 0,00 449,97 2.105,00 11.563,01 1.845,90 2.193,73 0,00 0,00 4.039,63 7.523,38 31/08/2023
147 733500 AMANDA CRISTINA GONCALVES ASSESSOR ADMINISTRATIVO I PARACATU - COMARCA; COORD REG AP COM INCL MOB SOCIAIS NOROESTE MG 0,00 0,00 4.872,71 0,00 0,00 0,00 14,90 2.105,00 6.992,61 777,65 798,64 0,00 0,00 1.576,29 5.416,32 31/08/2023
148 713900 AMANDA DE ARAUJO CARVALHO ASSESSOR PROMOTOR JUSTICA ARAÇUAÍ - COMARCA; ARACUAI-PJ-01PJ 0,00 0,00 8.810,89 0,00 0,00 0,00 448,91 2.105,00 11.364,80 876,95 2.932,58 0,00 0,00 3.809,53 7.555,27 31/08/2023
149 613400 AMANDA DE ASSIS IUNES SANTOS ANALISTA DO MP CONGONHAS - COMARCA; CONGONHAS-PJ-01PJ 11.577,56 1.157,76 0,00 0,00 473,71 0,00 757,52 2.105,00 16.071,55 2.783,71 3.636,80 0,00 0,00 6.420,51 9.651,04 31/08/2023
150 695900 AMANDA DE OLIVEIRA ASSESSOR PROCURADOR JUSTICA BELO HORIZONTE - COMARCA; PROC JUST ATUACAO TRIBUNAIS SUPERIORES-GAB004 0,00 0,00 8.810,89 0,00 0,00 0,00 470,39 2.105,00 11.386,28 876,95 2.845,21 0,00 0,00 3.722,16 7.664,12 31/08/2023
151 520800 AMANDA DE SOUZA MACHADO ANALISTA DO MP BAEPENDI - COMARCA; BAEPENDI-PJ-UNPJ 12.343,61 2.468,72 0,00 0,00 0,00 0,00 917,17 2.105,00 17.834,50 3.176,44 4.120,13 0,00 0,00 7.296,57 10.537,93 31/08/2023
152 663900 AMANDA DENISE GONCALVES DA SILVA ASSESSOR ADMINISTRATIVO I BELO HORIZONTE - COMARCA; SECRETARIA DO PROCON-MG 0,00 0,00 4.872,71 0,00 0,00 0,00 258,73 2.105,00 7.236,44 876,95 1.276,88 0,00 0,00 2.153,83 5.082,61 31/08/2023
153 543100 AMANDA VIEIRA FREITAS BRESSANE ANALISTA DO MP VARGINHA - COMARCA; COORD REG DEF ORDEM ECON TRIB VARGINHA 12.343,61 2.468,72 0,00 0,00 0,00 0,00 717,82 2.105,00 17.635,15 3.266,00 4.341,46 0,00 0,00 7.607,46 10.027,69 31/08/2023
154 434400 AMARILIS ASSIS SIMAO CURCIO ANALISTA DO MP BELO HORIZONTE - COMARCA; DIRETORIA GESTAO COMPRAS LICITACOES 12.343,61 2.468,72 0,00 0,00 0,00 0,00 713,23 2.105,00 17.630,56 3.176,44 4.224,40 0,00 0,00 7.400,84 10.229,72 31/08/2023
155 652000 AMAURI SILVA ALVES ASSESSOR ADMINISTRATIVO III BELO HORIZONTE - COMARCA; BH-23PJ INFRACIONAL-COORD ADM INFRACIONAL 10.858,90 1.085,89 0,00 0,00 0,00 0,00 2.102,77 2.105,00 16.152,56 1.408,30 4.104,12 0,00 0,00 5.512,42 10.640,14 31/08/2023
156 58000 AMELIA GUARIZE DE CASTRO OFICIAL DO MP JUIZ DE FORA - COMARCA; JUIZ DE FORA-PJ-SECRETARIA 8.264,07 9.090,49 0,00 132,22 0,00 6.618,66 95,86 2.105,00 26.306,30 3.690,57 6.098,28 0,00 0,00 9.788,85 16.517,45 31/08/2023
157 324301 AMERICA SUELI FERREIRA DA SILVA ANALISTA DO MP UBERLÂNDIA - COMARCA; UBERLANDIA-PJ-02PJ 12.343,61 3.703,08 0,00 0,00 0,00 0,00 943,62 2.105,00 19.095,31 3.373,94 4.457,40 0,00 0,00 7.831,34 11.263,97 31/08/2023
158 273300 AMUJACY DE BRITO ASSIZ OFICIAL DO MP BELO HORIZONTE - COMARCA; BH-12PJ JUIZO CRIMINAL-SECRETARIA 12.343,61 3.703,08 0,00 0,00 0,00 0,00 772,64 2.105,00 18.924,33 3.459,39 4.436,61 0,00 0,00 7.896,00 11.028,33 31/08/2023
159 482200 ANA ALICE LOPES ACHTSCHIN ANALISTA DO MP BELO HORIZONTE - COMARCA; PROC JUST ATUACAO TRIBUNAIS SUPERIORES-GAB005 14.960,00 2.992,00 0,00 0,00 0,00 0,00 0,00 2.105,00 20.057,00 2.653,27 3.322,19 0,00 0,00 5.975,46 14.081,54 31/08/2023
160 490400 ANA AMELIA PAULINO GARCIA OFICIAL DO MP CONTAGEM - COMARCA; CONTAGEM-PJ-SECRETARIA 10.516,49 2.103,30 0,00 0,00 0,00 0,00 0,00 3.055,00 15.674,79 2.083,76 2.922,61 0,00 0,00 5.006,37 10.668,42 31/08/2023
161 714900 ANA BEATRIZ LOBATO ALVES DE CARVALHO ASSESSOR PROCURADOR JUSTICA BELO HORIZONTE - COMARCA; GABINETE DE PROCURADOR DE JUSTIÇA - SALA 414 0,00 3.524,36 8.810,89 0,00 0,00 0,00 558,27 2.105,00 14.998,52 876,95 4.772,95 0,00 0,00 5.649,90 9.348,62 31/08/2023
162 715000 ANA CARLA RODRIGUES DE SOUZA ASSESSOR PROMOTOR JUSTICA TRÊS CORACOES - COMARCA; TRES CORACOES-PJ-01PJ 0,00 0,00 8.810,89 0,00 0,00 0,00 424,25 2.105,00 11.340,14 876,95 2.845,21 0,00 0,00 3.722,16 7.617,98 31/08/2023
163 279100 ANA CAROLINA ARAUJO PEREIRA ANALISTA DO MP BELO HORIZONTE - COMARCA; DIRETORIA DE PROJETOS DE EDIFICACOES 23.070,31 6.921,09 0,00 0,00 0,00 0,00 0,00 2.105,00 32.096,40 5.053,69 6.735,67 0,00 0,00 11.789,36 20.307,04 31/08/2023
164 653300 ANA CAROLINA CYRNE DINIZ ASSESSOR ADMINISTRATIVO III BELO HORIZONTE - COMARCA; CENTRAL DE APOIO TECNICO-SETOR CONTABIL 0,00 0,00 10.858,90 0,00 0,00 0,00 519,54 2.105,00 13.483,44 876,95 3.672,43 0,00 0,00 4.549,38 8.934,06 31/08/2023
165 359400 ANA CAROLINA DE ABREU FARIA ASSESSOR ADMINISTRATIVO IV BELO HORIZONTE - COMARCA; SUPERINTENDÊNCIA DE ENGENHARIA E ARQUITETURA 0,00 0,00 14.488,22 0,00 0,00 0,00 765,17 3.055,00 18.308,39 876,95 5.229,89 0,00 0,00 6.106,84 12.201,55 31/08/2023
166 408500 ANA CAROLINA DE CASTRO CARVALHO ANALISTA DO MP BARBACENA - COMARCA; BARBACENA - SECRETARIA DAS PJS CRIMINAIS 18.130,77 3.626,15 0,00 0,00 0,00 0,00 0,00 3.055,00 24.811,92 3.262,06 4.201,13 0,00 0,00 7.463,19 17.348,73 31/08/2023
167 688000 ANA CAROLINA DE OLIVEIRA PINTO ASSESSOR PROCURADOR JUSTICA BELO HORIZONTE - COMARCA; GABINETE DE PROCURADOR DE JUSTIÇA - SALA 1005 0,00 0,00 8.810,89 0,00 0,00 0,00 435,68 2.105,00 11.351,57 876,95 2.932,58 0,00 0,00 3.809,53 7.542,04 31/08/2023
168 420200 ANA CAROLINA FERNANDES SILVA ANALISTA DO MP BELO HORIZONTE - COMARCA; GABINETE DE PROCURADOR DE JUSTIÇA - SALA 704 17.559,01 3.511,80 0,00 0,00 7.023,60 0,00 0,00 2.105,00 30.199,41 3.152,28 5.974,13 0,00 0,00 9.126,41 21.073,00 31/08/2023
169 522100 ANA CAROLINA FERNANDINO VIDAL PEREIRA SANTOS OFICIAL DO MP BELO HORIZONTE - COMARCA; SECRETARIA DO PROCON-MG 9.699,77 1.939,95 0,00 0,00 0,00 0,00 564,69 2.105,00 14.309,41 982,16 3.092,00 0,00 0,00 4.074,16 10.235,25 31/08/2023
170 716001 ANA CAROLINA FIGUEIREDO SILVA ASSESSOR ADMINISTRATIVO II BELO HORIZONTE - COMARCA; PROC JUST ATUACAO TRIBUNAIS SUPERIORES-GAB004 0,00 0,00 7.506,70 0,00 0,00 0,00 0,00 2.105,00 9.611,70 876,95 1.350,72 0,00 0,00 2.227,67 7.384,03 31/08/2023
171 502400 ANA CAROLINA GONCALVES FERNANDES ANALISTA DO MP IPATINGA - COMARCA; IPATINGA-PJ-01PJ 12.343,61 2.468,72 0,00 0,00 0,00 0,00 917,17 4.005,00 19.734,50 982,16 4.313,62 0,00 0,00 5.295,78 14.438,72 31/08/2023
172 529900 ANA CAROLINA GONCALVES PECANHA CHEQUER ANALISTA DO MP MANHUAÇU - COMARCA; MANHUACU-PJ-04PJ 12.343,61 2.468,72 0,00 0,00 0,00 0,00 713,48 4.005,00 19.530,81 3.323,31 4.424,21 0,00 0,00 7.747,52 11.783,29 31/08/2023
173 431900 ANA CAROLINA MOTTA GUATIMOSIM ANALISTA DO MP BELO HORIZONTE - COMARCA; ASSESSORIA JURIDICO-ADMINISTRATIVA 17.559,01 3.511,80 0,00 0,00 0,00 0,00 0,00 3.055,00 24.125,81 3.152,28 4.042,64 0,00 0,00 7.194,92 16.930,89 31/08/2023
174 490600 ANA CAROLINA XAVIER GODOY ANALISTA DO MP BELO HORIZONTE - COMARCA; BH-18PJ VIOLENCIA DOMESTICA-GAB 007PJ 12.343,61 2.468,72 0,00 0,00 0,00 0,00 936,61 4.005,00 19.753,94 3.176,44 4.120,13 0,00 0,00 7.296,57 12.457,37 31/08/2023
175 600300 ANA CAROLINE PEREIRA DINIZ ANALISTA DO MP BELO HORIZONTE - COMARCA; PROC JUST ESP ACOES COMP ORIG CRIMINAL-SEC 12.343,61 2.468,72 0,00 0,00 0,00 0,00 1.234,36 3.055,00 19.101,69 2.583,43 3.333,63 0,00 0,00 5.917,06 13.184,63 31/08/2023
176 615800 ANA CAROLINE PEREIRA OLIVEIRA OFICIAL DO MP ALFENAS - COMARCA; ALFENAS-PJ-06PJ 7.506,70 750,67 0,00 0,00 0,00 0,00 505,26 2.105,00 10.867,63 1.673,82 1.990,00 0,00 0,00 3.663,82 7.203,81 31/08/2023
177 324800 ANA CECILIA MENDES DA SILVA OFICIAL DO MP OURO FINO - COMARCA; OURO FINO-PJ-01PJ 12.343,61 4.937,44 0,00 0,00 0,00 0,00 869,12 2.105,00 20.255,17 3.742,35 5.013,78 0,00 0,00 8.756,13 11.499,04 31/08/2023
178 736000 ANA CLARA FERREIRA AMARAL ASSESSOR ADMINISTRATIVO I BELO HORIZONTE - COMARCA; PROCURADOR-GERAL DE JUSTICA- GABINETE 0,00 0,00 4.872,71 0,00 0,00 0,00 0,00 2.105,00 6.977,71 718,08 670,06 0,00 0,00 1.388,14 5.589,57 31/08/2023
179 704100 ANA CLARA MARTINS ALBUQUERQUE ASSESSOR DE CAO BELO HORIZONTE - COMARCA; CAO-CRIANCAS E ADOLESCENTES-ASS TECNICA 0,00 0,00 6.979,90 0,00 0,00 0,00 236,68 2.105,00 9.321,58 876,95 1.834,00 0,00 0,00 2.710,95 6.610,63 31/08/2023
180 698700 ANA CLARA SANTOS ALMEIDA ASSESSOR PROMOTOR JUSTICA SABINÓPOLIS - COMARCA; SABINOPOLIS-PJ-UNPJ 0,00 0,00 8.810,89 0,00 0,00 0,00 424,25 2.105,00 11.340,14 876,95 2.845,21 0,00 0,00 3.722,16 7.617,98 31/08/2023
181 441300 ANA CLAUDIA ALKIMIM MIRANDA BOMTEMPO ANALISTA DO MP MONTES CLAROS - COMARCA; MONTES CLAROS-PJ-11PJ 17.559,01 3.511,80 0,00 0,00 0,00 0,00 0,00 2.105,00 23.175,81 3.152,28 3.938,36 0,00 0,00 7.090,64 16.085,17 31/08/2023
182 642500 ANA CLAUDIA DA COSTA NAVES OFICIAL DO MP MONTE CARMELO - COMARCA; MONTE CARMELO-PJ-02PJ 6.097,80 609,78 0,00 0,00 0,00 0,00 333,68 3.055,00 10.096,26 982,16 1.629,72 0,00 0,00 2.611,88 7.484,38 31/08/2023
183 716800 ANA CLAUDIA DOURADO MENDES ASSESSOR PROMOTOR JUSTICA ARAÇUAÍ - COMARCA; ARACUAI-PJ-02PJ 0,00 0,00 8.810,89 0,00 0,00 0,00 421,31 2.105,00 11.337,20 876,95 2.845,21 0,00 0,00 3.722,16 7.615,04 31/08/2023
184 604900 ANA CLAUDIA OLIVEIRA DE MIRANDA OFICIAL DO MP PONTE NOVA - COMARCA; PONTE NOVA-PJ-04PJ 7.506,70 750,67 0,00 0,00 0,00 0,00 623,74 2.105,00 10.986,11 1.660,72 2.188,89 0,00 0,00 3.849,61 7.136,50 31/08/2023
185 379300 ANA CRISTINA ALVES FLAVIO ANALISTA DO MP SÃO GOTARDO - COMARCA; SAO GOTARDO-PJ-01PJ 18.720,84 5.616,25 0,00 0,00 0,00 0,00 535,42 8.895,90 33.768,41 3.674,88 5.004,64 0,00 0,00 8.679,52 25.088,89 31/08/2023
186 461200 ANA CRISTINA ALVES PASCHOAL ANALISTA DO MP BELO HORIZONTE - COMARCA; BH-07PJ 03 TRIBUNAL DO JURI-GAB 064PJ 12.343,61 2.468,72 0,00 0,00 0,00 0,00 1.291,37 8.029,93 24.133,63 3.176,44 4.172,26 0,00 0,00 7.348,70 16.784,93 31/08/2023
187 514100 ANA CRISTINA ARAUJO ASSUNCAO ANALISTA DO MP BELO HORIZONTE - COMARCA; ASSESS JUR DO CONS SUPERIOR DO MINISTERIO PUB 12.343,61 3.184,65 0,00 0,00 0,00 0,00 732,62 3.055,00 19.315,88 3.290,99 4.337,64 0,00 0,00 7.628,63 11.687,25 31/08/2023
188 113401 ANA CRISTINA BRAGA ALBUQUERQUE ASSESSOR ADM. ESPECIAL BELO HORIZONTE - COMARCA; DIRETORIA-GERAL 0,00 0,00 28.013,39 0,00 0,00 0,00 0,00 1.500,00 29.513,39 876,95 8.771,45 0,00 0,00 9.648,40 19.864,99 31/08/2023
189 233800 ANA CRISTINA BRAGA SOARES OFICIAL DO MP BELO HORIZONTE - COMARCA; DIRETORIA DE CONTABILIDADE 14.960,00 5.984,00 0,00 0,00 0,00 0,00 0,00 2.105,00 23.049,00 3.610,71 4.600,22 0,00 0,00 8.210,93 14.838,07 31/08/2023
190 186400 ANA CRISTINA DE AZEVEDO LOPES OFICIAL DO MP UBÁ - COMARCA; UBA-PJ-01PJ 20.533,67 8.213,47 0,00 0,00 0,00 0,00 0,00 2.105,00 30.852,14 4.380,49 5.815,87 0,00 0,00 10.196,36 20.655,78 31/08/2023
191 693000 ANA CRISTINA DE MELO SILVEIRA ASSESSOR PROCURADOR JUSTICA BELO HORIZONTE - COMARCA; COORD DE CONTROLE CONSTITUCIONALIDADE 0,00 0,00 12.559,95 0,00 0,00 0,00 424,24 3.055,00 16.039,19 876,95 3.876,20 0,00 0,00 4.753,15 11.286,04 31/08/2023
192 465100 ANA CRISTINA DE OLIVEIRA GUIMARAES ANALISTA DO MP ITAJUBA - COMARCA; ITAJUBA-PJ-05PJ 12.343,61 2.468,72 0,00 0,00 0,00 0,00 917,17 3.055,00 18.784,50 3.176,44 4.120,13 0,00 0,00 7.296,57 11.487,93 31/08/2023
193 500600 ANA CRISTINA LATADO SUDARIO ANALISTA DO MP UBERLÂNDIA - COMARCA; UBERLANDIA-PJ-09PJ 12.343,61 2.468,72 0,00 0,00 0,00 0,00 732,56 2.105,00 17.649,89 3.176,44 4.224,40 0,00 0,00 7.400,84 10.249,05 31/08/2023
194 331400 ANA CRISTINA RIBEIRO ALVES OFICIAL DO MP BAMBUÍ - COMARCA; BAMBUI-PJ-UNPJ 12.343,61 3.703,08 0,00 0,00 0,00 0,00 993,57 2.105,00 19.145,26 3.459,39 4.593,02 0,00 0,00 8.052,41 11.092,85 31/08/2023
195 249300 ANA ELOINA MARTINS OFICIAL DO MP BETIM - COMARCA; BETIM-PJ-02PJ 17.559,01 8.779,51 0,00 0,00 0,00 0,00 0,00 2.105,00 28.443,52 3.995,11 5.259,48 0,00 0,00 9.254,59 19.188,93 31/08/2023
196 257400 ANA FLAVIA CAMBRAIA ANALISTA DO MP BELO HORIZONTE - COMARCA; BH-19PJ SAUDE-SECRETARIA 150PJ 23.070,31 9.228,12 0,00 0,00 0,00 0,00 473,71 7.272,75 40.044,89 5.686,95 7.861,40 0,00 0,00 13.548,35 26.496,54 31/08/2023
197 248201 ANA FLAVIA DE MORAIS SOUZA ANALISTA DO MP DIVINÓPOLIS - COMARCA; DIVINOPOLIS-PJ-01PJ 14.960,00 5.984,00 0,00 0,00 0,00 0,00 43,88 4.005,00 24.992,88 3.610,71 4.600,22 0,00 0,00 8.210,93 16.781,95 31/08/2023
198 621100 ANA FLAVIA DINIZ TEODORO OFICIAL DO MP SANTA LUZIA - COMARCA; SANTA LUZIA-PJ-06PJ 7.506,70 750,67 0,00 0,00 0,00 0,00 402,16 2.105,00 10.764,53 1.673,82 2.071,88 0,00 0,00 3.745,70 7.018,83 31/08/2023
199 238600 ANA FLAVIA FRANCO OFICIAL DO MP BELO HORIZONTE - COMARCA; DIRETORIA DE PESSOAL ADMINISTRATIVO - DPAD 18.130,77 7.252,31 0,00 0,00 0,00 0,00 0,00 2.105,00 27.488,08 3.842,24 5.332,27 0,00 0,00 9.174,51 18.313,57 31/08/2023
200 402900 ANA FLAVIA PORTES DE CARVALHO ANALISTA DO MP BELO HORIZONTE - COMARCA; DIRET DE PLANOS PROJETOS E PROGRAMAS INST 18.720,84 5.616,25 0,00 0,00 0,00 0,00 1.872,08 2.105,00 28.314,17 3.974,42 5.437,09 0,00 0,00 9.411,51 18.902,66 31/08/2023
201 382700 ANA KARENINA SALDANHA GONTIJO ANALISTA DO MP BELO HORIZONTE - COMARCA; ASSESS TECNICO-JUR JUNTO AS PROC. DE JUST 18.999,41 5.699,82 0,00 0,00 0,00 0,00 543,38 8.032,82 33.275,43 3.732,83 5.514,58 0,00 0,00 9.247,41 24.028,02 31/08/2023
202 620500 ANA KARINE DE ANDRADE OLIVEIRA ANALISTA DO MP RIBEIRÃO DAS NEVES - COMARCA; RIBEIRAO NEVES-SEC PJ EXECUCAO PENAL 10.516,49 1.051,65 0,00 0,00 0,00 0,00 552,47 2.105,00 14.225,61 2.432,77 3.118,55 0,00 0,00 5.551,32 8.674,29 31/08/2023
203 462200 ANA LUCIA ANDRADE TOMICH OTTONI ANALISTA DO MP TEÓFILO OTONI - COMARCA; TEOFILO OTONI-PJ-07PJ 12.343,61 2.468,72 0,00 0,00 0,00 0,00 855,34 3.055,00 18.722,67 3.176,44 4.120,13 0,00 0,00 7.296,57 11.426,10 31/08/2023
204 504100 ANA LUCIA CATAO DE CARVALHO OFICIAL DO MP BELO HORIZONTE - COMARCA; DIR RELACOES INSTITUCIONAIS 10.516,49 2.103,30 4.020,58 0,00 0,00 0,00 0,00 2.105,00 18.745,37 2.056,83 3.989,39 0,00 0,00 6.046,22 12.699,15 31/08/2023
205 274700 ANA LUCIA DE ALENCAR BRAGATO OFICIAL DO MP UBERABA - COMARCA; UBERABA-PJ-07PJ 12.343,61 3.703,08 0,00 0,00 0,00 0,00 993,57 2.105,00 19.145,26 3.459,39 4.645,16 0,00 0,00 8.104,55 11.040,71 31/08/2023
206 509400 ANA LUCIA DORNELAS MALLOSTO ANALISTA DO MP JUIZ DE FORA - COMARCA; JUIZ DE FORA-PJ-25PJ 12.343,61 2.468,72 0,00 0,00 0,00 0,00 877,96 2.105,00 17.795,29 3.176,44 4.319,15 0,00 0,00 7.495,59 10.299,70 31/08/2023
207 302600 ANA LUCIA LOPES SANTOS OFICIAL DO MP BELO HORIZONTE - COMARCA; DIVISÃO DE FISCALIZAÇÃO DAS RELAÇÕES DE CONSU 12.343,61 3.703,08 0,00 0,00 0,00 0,00 2.653,02 2.105,00 20.804,71 3.459,39 5.308,61 0,00 0,00 8.768,00 12.036,71 31/08/2023
208 716700 ANA LUISA DE LANA COELHO ASSESSOR PROCURADOR JUSTICA BELO HORIZONTE - COMARCA; PROC. JUSTICA CIVEL 0,00 0,00 8.810,89 0,00 0,00 0,00 421,34 2.105,00 11.337,23 876,95 2.845,21 0,00 0,00 3.722,16 7.615,07 31/08/2023
209 702000 ANA LUISA DE OLIVEIRA RIBEIRO ASSESSOR PROCURADOR JUSTICA BELO HORIZONTE - COMARCA; ASSESS TECNICO-JUR JUNTO AS PROC. DE JUST 0,00 0,00 8.810,89 0,00 0,00 0,00 435,69 2.105,00 11.351,58 876,95 2.845,21 0,00 0,00 3.722,16 7.629,42 31/08/2023
210 493400 ANA LUISA NOGUEIRA MOREIRA ANALISTA DO MP BELO HORIZONTE - COMARCA; BH-19PJ SAUDE-SECRETARIA 130PJ 12.343,61 2.468,72 0,00 0,00 0,00 0,00 713,23 2.105,00 17.630,56 3.176,44 4.224,40 0,00 0,00 7.400,84 10.229,72 31/08/2023
211 389300 ANA LUISA REUTER LIMA ANALISTA DO MP BELO HORIZONTE - COMARCA; DIRETORIA DE SISTEMAS DE INFORMACAO 18.720,84 5.616,25 5.538,92 0,00 0,00 0,00 0,00 2.105,00 31.981,01 3.674,88 6.579,98 0,00 0,00 10.254,86 21.726,15 31/08/2023
212 480600 ANA LUIZA FERNANDES FRAGA E GRECO COORDENADOR I BELO HORIZONTE - COMARCA; OUVIDORIA DO MPMG 16.469,17 3.293,83 0,00 0,00 0,00 0,00 1.182,19 2.105,00 23.050,19 3.011,58 6.027,16 0,00 880,80 9.919,54 13.130,65 31/08/2023
213 726800 ANA LUIZA GOMES PEREIRA ASSESSOR ADMINISTRATIVO I BELO HORIZONTE - COMARCA; OUVIDORIA DO MPMG 0,00 0,00 4.872,71 0,00 0,00 0,00 166,90 2.105,00 7.144,61 876,95 1.206,21 0,00 0,00 2.083,16 5.061,45 31/08/2023
214 733600 ANA LUIZA MACHADO RODRIGUES ASSESSOR PROMOTOR JUSTICA CARMO DA MATA - COMARCA; CARMO DA MATA-PJ-UNPJ 0,00 0,00 8.810,89 0,00 0,00 0,00 26,94 2.105,00 10.942,83 876,95 1.971,49 0,00 0,00 2.848,44 8.094,39 31/08/2023
215 517800 ANA LUIZA MAGALHAES CIRINO PIOTO DE MELO OFICIAL DO MP BELO HORIZONTE - COMARCA; DIVISAO DE MATERIAIS 6.818,83 681,88 0,00 0,00 0,00 0,00 352,51 4.005,00 11.858,22 1.496,27 1.810,55 0,00 0,00 3.306,82 8.551,40 31/08/2023
216 481400 ANA MARCIA CANDIDA FERREIRA OFICIAL DO MP BRUMADINHO - COMARCA; BRUMADINHO-PJ-02PJ 7.506,70 1.501,34 0,00 0,00 0,00 0,00 433,72 2.105,00 11.546,76 1.845,90 2.245,87 0,00 0,00 4.091,77 7.454,99 31/08/2023
217 643100 ANA MARIA LOPES MIRANDA ANALISTA DO MP BELO HORIZONTE - COMARCA; CAO-FUNDACOES 10.341,72 1.034,17 0,00 0,00 0,00 0,00 566,82 3.055,00 14.997,71 982,16 2.830,68 0,00 0,00 3.812,84 11.184,87 31/08/2023
218 556400 ANA MARIA OLIVEIRA SOUZA OFICIAL DO MP ITAPECERICA - COMARCA; ITAPECERICA-PJ-UNPJ 8.003,54 1.600,71 0,00 0,00 326,84 0,00 449,69 2.105,00 12.485,78 2.024,94 2.601,40 0,00 0,00 4.626,34 7.859,44 31/08/2023
219 409600 ANA OLIVIA FARIA ROSENBURG ANALISTA DO MP BELO HORIZONTE - COMARCA; DIRETORIA DO COLEGIO E DA CAMARA DE PJ 18.130,77 7.252,31 0,00 0,00 0,00 0,00 1.073,22 2.105,00 28.561,30 4.422,43 6.324,95 0,00 0,00 10.747,38 17.813,92 31/08/2023
220 461500 ANA PAULA ALVES CARVALHO ANALISTA DO MP UBERLÂNDIA - COMARCA; UBERLANDIA-PJ-25PJ 13.160,57 2.632,11 0,00 0,00 0,00 0,00 62,64 3.055,00 18.910,32 3.343,86 4.549,23 0,00 0,00 7.893,09 11.017,23 31/08/2023
221 523200 ANA PAULA ALVES DA SILVA OFICIAL DO MP GOVERNADOR VALADARES - COMARCA; GOVERNADOR VALADARES-PJ-10PJ 9.699,77 1.939,95 0,00 0,00 0,00 0,00 722,26 5.905,00 18.266,98 982,16 3.103,15 0,00 0,00 4.085,31 14.181,67 31/08/2023
222 381200 ANA PAULA BARROS PEREIRA RIGHI ANALISTA DO MP BELO HORIZONTE - COMARCA; PROC JUST ATUACAO TRIBUNAIS SUPERIORES-GAB003 18.720,84 5.616,25 0,00 0,00 0,00 0,00 0,00 3.055,00 27.392,09 982,16 4.839,26 0,00 0,00 5.821,42 21.570,67 31/08/2023
223 696400 ANA PAULA CARVALHO SILVA ASSESSOR PROMOTOR JUSTICA PERDÕES - COMARCA; PERDOES-PJ-UNPJ 0,00 0,00 8.810,89 0,00 0,00 0,00 481,97 3.055,00 12.347,86 876,95 2.793,07 0,00 0,00 3.670,02 8.677,84 31/08/2023
224 700900 ANA PAULA CRAVO SALOME ASSESSOR ADMINISTRATIVO I BELO HORIZONTE - COMARCA; PROCURADOR-GERAL DE JUSTIÇA 0,00 0,00 4.872,71 0,00 0,00 0,00 247,96 2.105,00 7.225,67 876,95 1.276,88 0,00 0,00 2.153,83 5.071,84 31/08/2023
225 227200 ANA PAULA DA SILVA CAMPOLINA ANALISTA DO MP BELO HORIZONTE - COMARCA; DIRETORIA DE ORCAMENTO-DIOR/SPC 23.070,31 11.535,16 0,00 0,00 0,00 0,00 0,00 2.105,00 36.710,47 5.685,46 7.699,92 0,00 0,00 13.385,38 23.325,09 31/08/2023
226 278500 ANA PAULA DIAS CAPANEMA OFICIAL DO MP BELO HORIZONTE - COMARCA; DIRETORIA DE SEGURANCA 13.160,57 3.948,17 0,00 0,00 0,00 0,00 0,00 2.105,00 19.213,74 2.977,42 3.959,84 0,00 0,00 6.937,26 12.276,48 31/08/2023
227 327300 ANA PAULA GARCIA MAXIMO OFICIAL DO MP UNAÍ - COMARCA; UNAI-PJ-01PJ 15.447,01 7.723,51 0,00 0,00 0,00 0,00 39,65 2.105,00 25.315,17 3.982,54 5.476,50 0,00 0,00 9.459,04 15.856,13 31/08/2023
228 738700 ANA PAULA GOMES ANTUNES ASSESSOR PROMOTOR JUSTICA CORAÇÃO DE JESUS - COMARCA; CORACAO DE JESUS-PJ-UNPJ 0,00 0,00 8.810,89 0,00 0,00 0,00 0,00 2.105,00 10.915,89 876,95 1.709,37 0,00 0,00 2.586,32 8.329,57 31/08/2023
229 270000 ANA PAULA GOULART CRUZ DE MAGALHAES ANALISTA DO MP BELO HORIZONTE - COMARCA; ASSESSORIA ESPECIAL DO PGJ 23.070,31 6.921,09 0,00 0,00 0,00 0,00 0,00 2.105,00 32.096,40 5.098,68 7.072,84 0,00 0,00 12.171,52 19.924,88 31/08/2023
230 262100 ANA PAULA KOMATSUZAKI ABIJAUDI ANALISTA DO MP BELO HORIZONTE - COMARCA; BH-17PJ PATRIMONIO PUBLICO-SECRETARIA 23.070,31 11.535,16 0,00 0,00 0,00 0,00 0,00 2.105,00 36.710,47 5.317,82 7.064,87 0,00 0,00 12.382,69 24.327,78 31/08/2023
231 278900 ANA PAULA MOREIRA GURGEL ANALISTA DO MP BELO HORIZONTE - COMARCA; ASSESSORIA JURIDICO-ADMINISTRATIVA 23.070,31 11.535,16 8.404,02 0,00 0,00 0,00 246,47 2.105,00 45.360,96 5.317,82 7.989,88 5.419,53 0,00 18.727,23 26.633,73 31/08/2023
232 745500 ANA PAULA OLIVEIRA MENDES OFICIAL DO MP TARUMIRIM - COMARCA; TARUMIRIM-PJ-UNPJ 4.570,25 0,00 0,00 0,00 0,00 0,00 0,00 2.105,00 6.675,25 526,88 257,78 0,00 0,00 784,66 5.890,59 31/08/2023
233 425701 ANA PAULA ROCHA ANALISTA DO MP BELO HORIZONTE - COMARCA; ASSESSORIA DE COMUNICACAO INTEGRADA 12.343,61 2.468,72 0,00 0,00 0,00 0,00 755,13 3.055,00 18.622,46 3.349,39 4.461,87 0,00 0,00 7.811,26 10.811,20 31/08/2023
234 395601 ANA PAULA SALGE OLIVEIRA ANALISTA DO MP UBERABA - COMARCA; UBERABA-PJ-15PJ 12.343,61 4.937,44 0,00 0,00 0,00 0,00 993,57 2.105,00 20.379,62 3.656,89 4.930,30 0,00 0,00 8.587,19 11.792,43 31/08/2023
235 473200 ANA PAULA SCOTTON BRASIL ANALISTA DO MP JUIZ DE FORA - COMARCA; JUIZ DE FORA-PJ-09PJ 12.343,61 2.468,72 0,00 0,00 0,00 0,00 892,41 2.105,00 17.809,74 3.176,44 4.224,40 0,00 0,00 7.400,84 10.408,90 31/08/2023
236 633600 ANA PAULA SILVA FERNANDES OFICIAL DO MP CATAGUASES - COMARCA; CATAGUASES-PJ-04PJ 7.270,07 727,01 0,00 0,00 314,80 0,00 439,30 2.134,82 10.886,00 1.791,76 2.157,69 0,00 0,00 3.949,45 6.936,55 31/08/2023
237 470900 ANA PAULA VALADARES ANALISTA DO MP PITANGUI - COMARCA; PITANGUI-PJ-01PJ 12.343,61 2.468,72 0,00 0,00 0,00 0,00 732,43 2.105,00 17.649,76 3.176,44 4.267,01 0,00 0,00 7.443,45 10.206,31 31/08/2023
238 447000 ANA PAULA VALENTIM DE ARAUJO ANALISTA DO MP BELO HORIZONTE - COMARCA; PROC JUST ESP ACOES COMP ORIG CRIMINAL-ASSESS 13.588,97 2.717,79 0,00 0,00 0,00 0,00 538,12 7.975,43 24.820,31 3.132,25 4.175,42 0,00 0,00 7.307,67 17.512,64 31/08/2023
239 604200 ANA PAULA VIANA E SILVA OFICIAL DO MP BELO HORIZONTE - COMARCA; BH-17PJ PATRIMONIO PUBLICO-SECRETARIA 7.506,70 750,67 0,00 0,00 0,00 0,00 397,60 2.105,00 10.759,97 1.673,82 1.990,00 0,00 0,00 3.663,82 7.096,15 31/08/2023
240 505400 ANA PAULA VIEIRA SOUTO OFICIAL DO MP ALMENARA - COMARCA; ALMENARA-PJ-01PJ 7.506,70 3.002,68 0,00 0,00 0,00 0,00 511,90 2.105,00 13.126,28 2.190,05 2.705,50 0,00 0,00 4.895,55 8.230,73 31/08/2023
241 280200 ANA RACHEL BRANDAO LADEIRA ROLAND ANALISTA DO MP BELO HORIZONTE - COMARCA; SUPERINTENDENCIA GESTÃO DE PESSOAS 23.070,31 6.921,09 8.404,02 0,00 0,00 0,00 0,00 2.105,00 40.500,42 4.579,57 8.192,90 805,46 0,00 13.577,93 26.922,49 31/08/2023
242 601200 ANA REGINA RIBEIRO ANALISTA DO MP BELO HORIZONTE - COMARCA; DIV FISCAL ADM CONT TERCEIRIZACAO 12.343,61 1.234,36 4.940,75 0,00 0,00 0,00 0,00 2.105,00 20.623,72 982,16 3.268,78 0,00 0,00 4.250,94 16.372,78 31/08/2023
243 384700 ANA RODRIGUES PEREIRA MARRA ANALISTA DO MP COROMANDEL - COMARCA; COROMANDEL-PJ-01PJ 12.343,61 3.703,08 0,00 0,00 0,00 0,00 943,55 4.005,00 20.995,24 3.416,67 4.466,95 0,00 0,00 7.883,62 13.111,62 31/08/2023
244 232700 ANA SILVIA SEMBLANO NAKAMURA OFICIAL DO MP BELO HORIZONTE - COMARCA; CENT DE APOIO TEC-SETOR DEF,IDOSO E INFANC 12.343,61 4.937,44 4.020,58 0,00 0,00 0,00 36,21 2.105,00 23.442,84 2.940,91 4.944,04 0,00 0,00 7.884,95 15.557,89 31/08/2023
245 602100 ANACLETO FRANCISCO MARCIER PIMENTA OFICIAL DO MP SÃO JOÃO DEL REI - COMARCA; SAO JOAO DEL REI-PJ-03PJ 7.506,70 750,67 0,00 0,00 0,00 0,00 376,80 4.955,00 13.589,17 1.673,82 1.729,31 0,00 0,00 3.403,13 10.186,04 31/08/2023
246 310400 ANADEJE DO CARMO DINIZ ARAUJO OFICIAL DO MP BELO HORIZONTE - COMARCA; DIRETORIA DE PESSOAL ADMINISTRATIVO - DPAD 12.343,61 3.703,08 0,00 0,00 0,00 0,00 993,57 2.105,00 19.145,26 3.459,39 4.645,16 0,00 0,00 8.104,55 11.040,71 31/08/2023
247 337000 ANAILDES MARIA MENDES OFICIAL DO MP JANAÚBA - COMARCA; JANAUBA-PJ-02PJ 12.343,61 3.703,08 0,00 0,00 0,00 0,00 861,15 3.055,00 19.962,84 3.459,39 4.645,16 0,00 0,00 8.104,55 11.858,29 31/08/2023
248 377400 ANDEIRSON DA MATTA BARBOSA ANALISTA DO MP POUSO ALEGRE - COMARCA; POUSO ALEGRE-PJ-01PJ 12.343,61 3.703,08 0,00 0,00 0,00 0,00 943,55 3.055,00 20.045,24 3.416,67 4.571,23 0,00 0,00 7.987,90 12.057,34 31/08/2023
249 317400 ANDERSON DA SILVA BICALHO OFICIAL DO MP CONTAGEM - COMARCA; CONTAGEM-PJ-SECRETARIA 11.954,43 3.586,33 0,00 0,00 0,00 0,00 0,00 2.105,00 17.645,76 3.282,88 4.228,90 0,00 0,00 7.511,78 10.133,98 31/08/2023
250 506900 ANDERSON DE SOUZA DAMIANI ANALISTA DO MP BELO HORIZONTE - COMARCA; DIRETORIA DE PAGAMENTO DE PESSOAL-DPAG 12.343,61 4.937,44 5.538,92 0,00 0,00 0,00 31,68 2.105,00 24.956,65 2.940,91 5.321,69 0,00 0,00 8.262,60 16.694,05 31/08/2023
251 410000 ANDERSON DE SOUZA NETO ASSESSOR ADMINISTRATIVO II BELO HORIZONTE - COMARCA; DIRETORIA DE ADMINISTRACAO FINANCEIRA 0,00 0,00 7.506,70 0,00 0,00 0,00 385,76 2.105,00 9.997,46 876,95 2.318,43 0,00 0,00 3.195,38 6.802,08 31/08/2023
252 181900 ANDERSON FLAVIO DE OLIVEIRA OFICIAL DO MP ITAGUARA - COMARCA; ITAGUARA-PJ-SECRETARIA 18.130,77 7.252,31 0,00 0,00 0,00 0,00 0,00 2.105,00 27.488,08 3.842,24 5.038,77 0,00 0,00 8.881,01 18.607,07 31/08/2023
253 333200 ANDERSON JOSE DE FREITAS OFICIAL DO MP IPATINGA - COMARCA; IPATINGA-PJ-04PJ 12.343,61 3.703,08 0,00 0,00 0,00 0,00 2.874,85 3.055,00 21.976,54 3.459,39 5.204,34 0,00 0,00 8.663,73 13.312,81 31/08/2023
254 699400 ANDERSON LUIZ CABRAL ASSESSOR PROMOTOR JUSTICA ALÉM PARAÍBA - COMARCA; ALEM PARAIBA-PJ-03PJ 0,00 0,00 8.810,89 0,00 0,00 0,00 456,00 2.105,00 11.371,89 876,95 2.845,21 0,00 0,00 3.722,16 7.649,73 31/08/2023
255 462100 ANDERSON LUIZ GUIMARAES CARDOSO ANALISTA DO MP BARBACENA - COMARCA; BARBACENA-PJ-02PJ 14.960,00 3.889,60 0,00 0,00 0,00 0,00 0,00 2.105,00 20.954,60 2.796,88 3.529,54 0,00 0,00 6.326,42 14.628,18 31/08/2023
256 429700 ANDERSON MELO DE SOUZA COORDENADOR II BELO HORIZONTE - COMARCA; DIRET DE ESTAGIOS E CONVENIOS ACADEMICOS 20.533,67 4.106,73 0,00 0,00 0,00 0,00 1.555,93 2.105,00 28.301,33 2.564,05 7.668,14 0,00 0,00 10.232,19 18.069,14 31/08/2023
257 545600 ANDERSON MENDES PROCOPIO FERREIRA ANALISTA DO MP BELO HORIZONTE - COMARCA; BH-12PJ JUIZO CRIMINAL-GAB 089PJ 12.343,61 2.468,72 0,00 0,00 0,00 0,00 892,51 2.105,00 17.809,84 3.266,00 4.341,46 0,00 0,00 7.607,46 10.202,38 31/08/2023
258 519900 ANDERSON MOREIRA DOEHLER ANALISTA DO MP TEÓFILO OTONI - COMARCA; COORD REG SAUDE MACRORREGIAO SANIT NORDESTE 12.343,61 4.937,44 0,00 0,00 0,00 0,00 0,00 2.105,00 19.386,05 3.218,66 4.358,18 0,00 0,00 7.576,84 11.809,21 31/08/2023
259 103000 ANDERSON TADEU DE DEUS ASSESSOR ADMINISTRATIVO II BELO HORIZONTE - COMARCA; BH-26 CRIME CONT CRIAN ADOL-SECRETARIA 0,00 6.005,36 7.506,70 0,00 0,00 0,00 725,80 6.609,02 20.846,88 876,95 5.101,20 0,00 0,00 5.978,15 14.868,73 31/08/2023
260 309200 ANDITYAS SOARES DE MOURA COSTA MATOS ANALISTA DO MP BELO HORIZONTE - COMARCA; GABINETE DE PROCURADOR DE JUSTIÇA - SALA 909 20.533,67 8.213,47 0,00 0,00 0,00 0,00 0,00 2.105,00 30.852,14 4.380,49 5.815,87 0,00 0,00 10.196,36 20.655,78 31/08/2023
261 519200 ANDRE BORJA LANA ANALISTA DO MP BELO HORIZONTE - COMARCA; DIR CONTEUDO JORNALISTICO 12.343,61 2.468,72 0,00 0,00 0,00 0,00 752,29 3.055,00 18.619,62 3.176,44 4.263,38 0,00 0,00 7.439,82 11.179,80 31/08/2023
262 637200 ANDRE FERNANDES DA CUNHA OFICIAL DO MP MORADA NOVA DE MINAS - COMARCA; MORADA NOVA DE MINAS-PJ-UNPJ 7.270,07 727,01 0,00 0,00 0,00 0,00 533,09 2.105,00 10.635,17 982,16 2.336,72 0,00 0,00 3.318,88 7.316,29 31/08/2023
263 651500 ANDRE GONCALVES MARANHAO OFICIAL DO MP ANDRADAS - COMARCA; ANDRADAS-PJ-02PJ 6.097,80 609,78 0,00 0,00 0,00 0,00 315,21 2.105,00 9.127,79 1.314,89 1.531,88 0,00 0,00 2.846,77 6.281,02 31/08/2023
264 521900 ANDRE LUIS GOMES SILVA ANALISTA DO MP FORMIGA - COMARCA; FORMIGA-PJ-02PJ 12.343,61 2.468,72 0,00 0,00 0,00 0,00 936,15 4.480,00 20.228,48 3.176,44 3.011,33 0,00 0,00 6.187,77 14.040,71 31/08/2023
265 304300 ANDRE LUIZ AVELAR ANALISTA DO MP BELO HORIZONTE - COMARCA; DIRETORIA DE REDES E BANCOS DE DADOS 10.341,72 3.102,52 0,00 0,00 0,00 0,00 664,92 2.105,00 16.214,16 2.862,82 3.705,92 0,00 0,00 6.568,74 9.645,42 31/08/2023
266 397400 ANDRE PATARO MYRRHA DE PAULA E SILVA ANALISTA DO MP BELO HORIZONTE - COMARCA; ASSESSORIA JURIDICO-ADMINISTRATIVA 18.720,84 5.616,25 0,00 0,00 0,00 0,00 0,00 3.055,00 27.392,09 3.674,88 5.056,78 0,00 0,00 8.731,66 18.660,43 31/08/2023
267 650100 ANDRE THOME VARGAS OFICIAL DO MP LEOPOLDINA - COMARCA; LEOPOLDINA-PJ-04PJ 6.603,76 660,38 0,00 0,00 0,00 0,00 441,56 2.105,00 9.810,70 982,16 1.853,91 0,00 0,00 2.836,07 6.974,63 31/08/2023
268 548500 ANDRE VINICIUS CARVALHO MEIRA ANALISTA DO MP JUIZ DE FORA - COMARCA; JUIZ DE FORA-PJ-24PJ 12.343,61 2.468,72 0,00 0,00 0,00 0,00 0,00 2.105,00 16.917,33 982,16 2.337,43 0,00 0,00 3.319,59 13.597,74 31/08/2023
269 297200 ANDRE WILLE ROSARIO ANALISTA DO MP BELO HORIZONTE - COMARCA; ASSESSORIA ESPECIAL DO PGJ 23.070,31 6.921,09 0,00 0,00 0,00 0,00 0,00 2.105,00 32.096,40 4.579,57 5.999,02 0,00 0,00 10.578,59 21.517,81 31/08/2023
270 423600 ANDREA COSTA GUALBERTO ALVES ANALISTA DO MP GOVERNADOR VALADARES - COMARCA; COORD REG PJ DEF EDU DIR CRIANCA ADOL RIODOCE 17.559,01 14.047,21 0,00 280,95 0,00 8.909,87 0,00 2.105,00 42.902,04 5.399,83 8.907,08 0,00 0,00 14.306,91 28.595,13 31/08/2023
271 467300 ANDREA DE CASSIA PENNA ALVERNAZ ANALISTA DO MP PONTE NOVA - COMARCA; PONTE NOVA-PJ-01PJ 12.343,61 2.468,72 0,00 0,00 0,00 0,00 835,69 2.105,00 17.753,02 3.176,44 4.172,26 0,00 0,00 7.348,70 10.404,32 31/08/2023
272 308000 ANDREA DE CASSIA SANTOS OLIVEIRA ANALISTA DO MP BELO HORIZONTE - COMARCA; COORD DE GABINETE DO PGJ 22.191,68 6.657,50 0,00 0,00 0,00 0,00 0,00 2.105,00 30.954,18 4.396,82 5.787,30 0,00 0,00 10.184,12 20.770,06 31/08/2023
273 349500 ANDREA DE OLIVEIRA LOIOLA REGIS OFICIAL DO MP IGUATAMA - COMARCA; IGUATAMA-PJ-UNPJ 12.343,61 3.703,08 0,00 0,00 0,00 0,00 772,64 2.105,00 18.924,33 3.459,39 4.540,89 0,00 0,00 8.000,28 10.924,05 31/08/2023
274 287900 ANDREA FERNANDES PENA MARTINS OFICIAL DO MP MONTES CLAROS - COMARCA; MONTES CLAROS-PJ-09PJ 12.343,61 3.703,08 0,00 0,00 0,00 0,00 993,57 2.105,00 19.145,26 3.459,39 4.540,89 0,00 0,00 8.000,28 11.144,98 31/08/2023
275 300800 ANDREA FERREIRA ANALISTA DO MP LAVRAS - COMARCA; LAVRAS-PJ-04PJ 21.346,53 6.403,96 0,00 0,00 0,00 0,00 0,00 2.105,00 29.855,49 4.221,03 5.585,64 0,00 0,00 9.806,67 20.048,82 31/08/2023
276 395100 ANDREA LANNA MENDES NOVAIS ANALISTA DO MP BELO HORIZONTE - COMARCA; PROMOT ESTADUAL DE DEF PATRI CULT E TUR DE MG 18.720,84 5.616,25 0,00 0,00 0,00 0,00 0,00 2.105,00 26.442,09 3.674,88 4.745,01 0,00 0,00 8.419,89 18.022,20 31/08/2023
277 67300 ANDREA LEAO MAGALHAES ROQUE ASSESSOR ADMINISTRATIVO IV BELO HORIZONTE - COMARCA; GRUPO ATUACAO ESP COMB CRIMES CIBER 0,00 11.590,57 14.488,22 0,00 0,00 0,00 0,00 2.105,00 28.183,79 876,95 7.335,57 0,00 0,00 8.212,52 19.971,27 31/08/2023
278 335700 ANDREA LOPES PEREIRA ANALISTA DO MP GOVERNADOR VALADARES - COMARCA; COORD REG DO MA DA BACIA DO RIO DOCE 22.191,68 6.657,50 0,00 0,00 0,00 0,00 0,00 2.105,00 30.954,18 4.396,82 6.242,29 0,00 0,00 10.639,11 20.315,07 31/08/2023
279 419000 ANDREIA BARBOSA DE ALMEIDA ANALISTA DO MP BELO HORIZONTE - COMARCA; CENT ESTAD COOPERACAO TECNICO-JURIDICA 17.559,01 3.511,80 0,00 0,00 0,00 0,00 0,00 2.105,00 23.175,81 3.152,28 4.042,64 0,00 0,00 7.194,92 15.980,89 31/08/2023
280 281501 ANDREIA CARLA COSTA ANALISTA DO MP UBÁ - COMARCA; UBA-PJ-02PJ 18.130,77 4.714,00 0,00 0,00 0,00 0,00 0,00 2.105,00 24.949,77 3.436,11 4.452,42 0,00 0,00 7.888,53 17.061,24 31/08/2023
281 477100 ANDREIA DE ALMEIDA RIBEIRO MELO OFICIAL DO MP CONTAGEM - COMARCA; CONTAGEM-PJ-SECRETARIA 10.516,49 3.154,95 0,00 0,00 0,00 0,00 0,00 2.105,00 15.776,44 2.159,94 3.065,71 0,00 0,00 5.225,65 10.550,79 31/08/2023
282 619000 ANDREIA FERREIRA NORONHA COORDENADOR II BELO HORIZONTE - COMARCA; DIRETORIA DE SERVICO CRIMINAL 20.533,67 2.053,37 0,00 0,00 0,00 0,00 125,43 2.105,00 24.817,47 2.502,69 7.074,71 0,00 708,05 10.285,45 14.532,02 31/08/2023
283 747000 ANDREIA FERREIRA TIAGO OFICIAL DO MP SÃO JOÃO DA PONTE - COMARCA; SAO JOAO DA PONTE-PJ-UNPJ 4.570,25 0,00 0,00 0,00 0,00 0,00 0,00 3.055,00 7.625,25 526,88 257,78 0,00 0,00 784,66 6.840,59 31/08/2023
284 424000 ANDREIA LUCIA COUTO ANALISTA DO MP BELO HORIZONTE - COMARCA; BH-18PJ DIREITOS HUMANOS-SECRETARIA 18.130,77 3.626,15 0,00 0,00 0,00 0,00 0,00 2.105,00 23.861,92 3.262,06 4.201,13 0,00 0,00 7.463,19 16.398,73 31/08/2023
285 370100 ANDREIA MARIA SILVA PINTO OFICIAL DO MP CORONEL FABRICIANO - COMARCA; CORONEL FABRICIANO-PJ-01PJ 12.343,61 3.703,08 0,00 0,00 0,00 0,00 777,48 3.055,00 19.879,17 982,16 4.753,70 0,00 0,00 5.735,86 14.143,31 31/08/2023
286 382100 ANDREIA NATALI PEREIRA DE OLIVEIRA OFICIAL DO MP PRADOS - COMARCA; PRADOS-PJ-UNPJ 12.343,61 3.703,08 0,00 0,00 0,00 0,00 0,00 2.105,00 18.151,69 2.348,42 2.882,06 0,00 0,00 5.230,48 12.921,21 31/08/2023
287 275200 ANDREIA RIBEIRO FREITAS OFICIAL DO MP VIÇOSA - COMARCA; VICOSA-PJ-04PJ 13.160,57 5.264,23 0,00 0,00 0,00 0,00 0,00 2.105,00 20.529,80 3.150,06 4.305,76 0,00 0,00 7.455,82 13.073,98 31/08/2023
288 352200 ANDREIA XAVIER PEREIRA OFICIAL DO MP DIVINÓPOLIS - COMARCA; DIVINOPOLIS-PJ-08PJ 12.343,61 3.703,08 0,00 0,00 0,00 0,00 905,30 3.530,00 20.481,99 3.459,39 4.645,16 0,00 0,00 8.104,55 12.377,44 31/08/2023
289 638500 ANDRESA ALVES FEITOSA CASAGRANDE ANALISTA DO MP LAVRAS - COMARCA; COORD REG DO MA DA BACIA DO RIO GRANDE 11.212,54 1.121,25 0,00 0,00 0,00 0,00 0,00 2.105,00 14.438,79 982,16 2.291,69 0,00 0,00 3.273,85 11.164,94 31/08/2023
290 383700 ANDRESSA EDUARDO SOUZA ANALISTA DO MP OURO BRANCO - COMARCA; OURO BRANCO-PJ-SECRETARIA 18.720,84 5.616,25 0,00 0,00 0,00 0,00 0,00 4.005,00 28.342,09 3.711,78 5.110,05 0,00 0,00 8.821,83 19.520,26 31/08/2023
291 678400 ANDRESSA LUIZA SILVA LOPES ASSESSOR PROMOTOR JUSTICA CARMO DO PARANAÍBA - COMARCA; CARMO DO PARANAIBA-PJ-02PJ 0,00 0,00 8.810,89 0,00 0,00 0,00 435,82 2.105,00 11.351,71 876,95 2.845,21 0,00 0,00 3.722,16 7.629,55 31/08/2023
292 426200 ANDRESSA MENDES CASAL OFICIAL DO MP BELO HORIZONTE - COMARCA; DIR ESTRUTURA E PROCESSOS ORGANIZACIONAIS 9.699,77 1.939,95 0,00 0,00 0,00 0,00 566,56 3.055,00 15.261,28 2.449,17 3.090,81 0,00 0,00 5.539,98 9.721,30 31/08/2023
293 390100 ANDRESSA RIBEIRO PUCCI OFICIAL DO MP UBERABA - COMARCA; UBERABA-PJ-14PJ 9.393,95 1.878,79 0,00 0,00 0,00 0,00 0,00 2.105,00 13.377,74 1.599,69 1.801,09 0,00 0,00 3.400,78 9.976,96 31/08/2023
294 462500 ANDREZA APARECIDA COSTA E SILVA ANALISTA DO MP CONSELHEIRO LAFAIETE - COMARCA; CONSELHEIRO LAFAIETE-PJ-02PJ 12.343,61 2.468,72 0,00 0,00 0,00 0,00 713,23 4.005,00 19.530,56 982,16 4.313,62 0,00 0,00 5.295,78 14.234,78 31/08/2023
295 677700 ANDREZA DE LOURDES FERREIRA DE PAIVA ASSESSOR PROMOTOR JUSTICA ABRE CAMPO - COMARCA; ABRE CAMPO-PJ-01PJ 0,00 0,00 8.810,89 0,00 0,00 0,00 469,85 2.105,00 11.385,74 876,95 2.932,58 0,00 0,00 3.809,53 7.576,21 31/08/2023
296 537800 ANDREZZA LUZIA DE OLIVEIRA ALVES ANALISTA DO MP PATOS DE MINAS - COMARCA; COORD REG PJ DEF EDU DIR CRI ADO AL PAR NOROE 12.343,61 2.468,72 0,00 0,00 0,00 0,00 920,72 2.105,00 17.838,05 3.323,31 4.372,08 0,00 0,00 7.695,39 10.142,66 31/08/2023
297 491600 ANE PATRICIA RIBEIRO DUARTE ANALISTA DO MP SETE LAGOAS - COMARCA; SETE LAGOAS-PJ-11PJ 12.343,61 2.468,72 0,00 0,00 0,00 0,00 732,70 2.105,00 17.650,03 3.176,44 4.172,26 0,00 0,00 7.348,70 10.301,33 31/08/2023
298 465800 ANELISE GAMA ASSESSOR ADMINISTRATIVO III BELO HORIZONTE - COMARCA; BH-18PJ VIOLENCIA DOMESTICA-SECRETARIA 0,00 0,00 10.858,90 0,00 0,00 0,00 569,82 3.113,19 14.541,91 876,95 3.672,43 0,00 0,00 4.549,38 9.992,53 31/08/2023
299 535200 ANELIZE FERNANDA ALVES VILARINHO OFICIAL DO MP CAPINÓPOLIS - COMARCA; CAPINOPOLIS-PJ-UNPJ 7.506,70 1.501,34 0,00 0,00 0,00 0,00 527,47 4.955,00 14.490,51 1.819,91 2.200,92 0,00 0,00 4.020,83 10.469,68 31/08/2023
300 197200 ANGELA COELHO SALDANHA OFICIAL DO MP PARÁ DE MINAS - COMARCA; PARA DE MINAS-PJ-03PJ 21.346,53 10.673,27 0,00 0,00 0,00 0,00 0,00 2.105,00 34.124,80 4.904,12 6.571,85 0,00 0,00 11.475,97 22.648,83 31/08/2023
301 307400 ANGELA CRISTINA GONCALVES MUNIZ ANALISTA DO MP UBERLÂNDIA - COMARCA; UBERLANDIA-PJ-SEC FAMILIA 23.070,31 9.228,12 0,00 0,00 0,00 0,00 0,00 2.105,00 34.403,43 4.948,70 6.531,94 0,00 0,00 11.480,64 22.922,79 31/08/2023
302 191800 ANGELA MARIA DE OLIVEIRA OFICIAL DO MP GUARANÉSIA - COMARCA; GUARANESIA-PJ-SECRETARIA 21.346,53 17.077,22 0,00 221,10 0,00 9.669,54 477,24 7.311,24 56.102,87 5.795,34 9.452,28 833,79 0,00 16.081,41 40.021,46 31/08/2023
303 497400 ANGELA MARIA HENRIQUES ANALISTA DO MP BELO HORIZONTE - COMARCA; COORD REG BACIAS RIO VELHAS E PARAOPEBA 12.343,61 2.468,72 0,00 0,00 0,00 0,00 938,50 2.105,00 17.855,83 3.176,44 4.371,28 0,00 0,00 7.547,72 10.308,11 31/08/2023
304 260700 ANGELICA CRISTINA AZEVEDO MOREIRA MOUCO OFICIAL DO MP UBÁ - COMARCA; UBA-PJ-05PJ 17.559,01 7.023,60 0,00 0,00 0,00 0,00 0,00 2.105,00 26.687,61 3.714,17 4.853,86 0,00 0,00 8.568,03 18.119,58 31/08/2023
305 708300 ANGELICA NUNES VIEIRA DA SILVA ASSESSOR PROMOTOR JUSTICA IBIRITÉ - COMARCA; IBIRITE-PJ-02PJ 0,00 0,00 8.810,89 0,00 0,00 0,00 424,25 2.105,00 11.340,14 876,95 2.845,21 0,00 0,00 3.722,16 7.617,98 31/08/2023
306 334600 ANGELICA PANISSA DE FREITAS GALLATI OFICIAL DO MP GUAXUPÉ - COMARCA; GUAXUPE-PJ-02PJ 12.343,61 4.937,44 0,00 0,00 0,00 0,00 45,26 3.055,00 20.381,31 3.154,56 4.106,94 0,00 0,00 7.261,50 13.119,81 31/08/2023
307 521100 ANGELICA SALES MOREIRA OFICIAL DO MP BELO HORIZONTE - COMARCA; BH-02PJ FAMILIA-SECRETARIA 9.699,77 1.939,95 0,00 0,00 0,00 0,00 657,95 2.105,00 14.402,67 2.442,82 3.264,70 0,00 0,00 5.707,52 8.695,15 31/08/2023
308 466500 ANGELLO MARQUES AGRELLI ANALISTA DO MP MAR DE ESPANHA - COMARCA; MAR DE ESPANHA-PJ-UNPJ 12.343,61 2.468,72 0,00 0,00 0,00 0,00 713,23 4.005,00 19.530,56 3.176,44 4.224,40 0,00 0,00 7.400,84 12.129,72 31/08/2023
309 363300 ANGELO VERDOLIN HENRIQUES ANALISTA DO MP SETE LAGOAS - COMARCA; SETE LAGOAS-PJ-04PJ 21.346,53 8.538,61 0,00 0,00 0,00 0,00 0,00 2.105,00 31.990,14 4.562,57 6.496,01 0,00 0,00 11.058,58 20.931,56 31/08/2023
310 250900 ANISIO APARECIDO SANTOS OFICIAL DO MP BETIM - COMARCA; BETIM - SECRETARIA DAS PJS CRIMINAIS 7.506,70 3.002,68 0,00 0,00 0,00 0,00 588,93 2.105,00 13.203,31 2.190,05 1.125,37 0,00 0,00 3.315,42 9.887,89 31/08/2023
311 698100 ANNA CAROLINA POLICARIO BERTOLIN ASSESSOR PROCURADOR JUSTICA BELO HORIZONTE - COMARCA; PROC. JUSTICA DIR. DIFUSOS E COLETIVOS-SEC 0,00 0,00 8.810,89 0,00 2.936,96 0,00 439,95 2.105,00 14.292,80 876,95 3.684,23 0,00 0,00 4.561,18 9.731,62 31/08/2023
312 253400 ANNA FLAVIA LEHMAN ANALISTA DO MP BELO HORIZONTE - COMARCA; SUPRIN DE PLANEJAMENTO E COORDENACAO 23.070,31 9.228,12 8.404,02 0,00 0,00 0,00 -4.720,62 8.119,39 44.101,22 5.795,34 10.098,46 3.112,49 0,00 19.006,29 25.094,93 31/08/2023
313 688800 ANNA LUIZA MATTOS DUARTE ASSESSOR PROCURADOR JUSTICA BELO HORIZONTE - COMARCA; GABINETE DE PROCURADOR DE JUSTICA - SALA 311 0,00 0,00 8.810,89 0,00 0,00 0,00 470,11 3.058,15 12.339,15 876,95 2.845,21 0,00 0,00 3.722,16 8.616,99 31/08/2023
314 447600 ANNGELUCE ALCANTARA DE CAMPOS OFICIAL DO MP DIVINÓPOLIS - COMARCA; DIVINOPOLIS-PJ-07PJ 10.341,72 3.102,52 0,00 0,00 0,00 0,00 63,99 2.105,00 15.613,23 2.544,07 3.449,11 0,00 0,00 5.993,18 9.620,05 31/08/2023
315 119600 ANSELMO BORGES PARREIRAS OFICIAL DO MP BONFIM - COMARCA; BONFIM-PJ-UNPJ 10.858,90 9.773,01 0,00 242,87 0,00 7.478,11 0,00 2.105,00 30.457,89 3.082,05 4.736,68 0,00 0,00 7.818,73 22.639,16 31/08/2023
316 630300 ANTONIA GOMES RAMALHO OFICIAL DO MP NOVO CRUZEIRO - COMARCA; NOVO CRUZEIRO-PJ-UNPJ 7.506,70 750,67 0,00 0,00 0,00 0,00 388,06 4.005,00 12.650,43 1.669,31 2.076,35 0,00 0,00 3.745,66 8.904,77 31/08/2023
317 401600 ANTONIO CARLOS GUEDES AROUCA ANALISTA DO MP BELO HORIZONTE - COMARCA; ASSESSORIA JURIDICO-ADMINISTRATIVA 16.469,17 3.293,83 0,00 0,00 0,00 0,00 0,00 2.105,00 21.868,00 3.285,10 4.234,39 0,00 0,00 7.519,49 14.348,51 31/08/2023
318 333900 ANTONIO GONCALVES DE SOUZA FILHO OFICIAL DO MP BELO HORIZONTE - COMARCA; DIRETORIA DE CONTABILIDADE 12.343,61 3.703,08 0,00 0,00 0,00 0,00 793,65 2.105,00 18.945,34 3.459,39 4.645,16 0,00 0,00 8.104,55 10.840,79 31/08/2023
319 176100 ANTONIO MARCELO CAMPOS CAMPANELLA OFICIAL DO MP BELO HORIZONTE - COMARCA; COORD DE GABINETE DO PGJ 21.346,53 10.673,27 0,00 0,00 0,00 0,00 0,00 2.105,00 34.124,80 4.904,12 6.571,85 0,00 0,00 11.475,97 22.648,83 31/08/2023
320 321001 ANTONIO OLINTO VIEIRA MACHADO ANALISTA DO MP BELO HORIZONTE - COMARCA; CENTRAL DE APOIO TECN-SETOR DE MEIO AMBIENTE 18.720,84 5.616,25 0,00 113,29 0,00 8.035,36 0,00 2.105,00 34.590,74 3.674,88 5.703,47 0,00 0,00 9.378,35 25.212,39 31/08/2023
321 356200 ANTONIO PAULA DA SILVA OFICIAL DO MP JUIZ DE FORA - COMARCA; JUIZ DE FORA-PJ-20PJ 11.954,43 4.781,77 0,00 0,00 0,00 0,00 0,00 2.105,00 18.841,20 2.458,74 3.041,34 0,00 0,00 5.500,08 13.341,12 31/08/2023
322 119900 ANTONIO RODRIGUES DE PINHO OFICIAL DO MP GUANHÃES - COMARCA; GUANHAES-PJ-01PJ 20.533,67 16.426,94 0,00 0,00 0,00 0,00 135,52 3.583,42 40.679,55 5.795,34 8.647,54 0,00 0,00 14.442,88 26.236,67 31/08/2023
323 373300 ANTONIO SERGIO ANANIAS OFICIAL DO MP SÃO JOÃO NEPOMUCENO - COMARCA; SAO JOAO NEPOMUCENO-PJ-01PJ 11.212,54 3.363,76 0,00 0,00 0,00 0,00 640,87 2.105,00 17.322,17 982,16 4.741,30 0,00 0,00 5.723,46 11.598,71 31/08/2023
324 608100 ANTONIO SIDINEY VIEIRA LEMOS ANALISTA DO MP PIRAPORA - COMARCA; PIRAPORA-PJ-01PJ 11.577,56 5.788,78 0,00 0,00 0,00 0,00 106,74 3.055,00 20.528,08 3.624,89 4.939,69 0,00 0,00 8.564,58 11.963,50 31/08/2023
325 374700 ANTONIO SILVA NETO OFICIAL DO MP BELO HORIZONTE - COMARCA; GAECO - SECRETARIA 12.343,61 3.703,08 0,00 0,00 0,00 0,00 0,00 3.055,00 19.101,69 2.348,42 3.379,73 0,00 0,00 5.728,15 13.373,54 31/08/2023
326 636700 ANTONIUS VITORIANO FERNANDES OFICIAL DO MP BELO HORIZONTE - COMARCA; ASSESSORIA JURIDICA DO PROCON-MG 6.603,76 660,38 0,00 0,00 282,01 0,00 390,32 2.105,00 10.041,47 982,16 1.994,27 0,00 0,00 2.976,43 7.065,04 31/08/2023
327 413200 ANY PEREIRA SILVA ANALISTA DO MP TRÊS PONTAS - COMARCA; TRES PONTAS-PJ-01PJ 17.559,01 3.511,80 0,00 0,00 0,00 0,00 0,00 2.105,00 23.175,81 3.152,28 4.042,64 0,00 0,00 7.194,92 15.980,89 31/08/2023
328 151401 APARECIDA DE FATIMA MENDES DE ALMEIDA ASSESSOR ADMINISTRATIVO II JUIZ DE FORA - COMARCA; JUIZ DE FORA-PJ-SECRETARIA 0,00 0,00 7.506,70 0,00 0,00 0,00 395,59 2.105,00 10.007,29 876,95 2.318,43 0,00 0,00 3.195,38 6.811,91 31/08/2023
329 329300 APARECIDA MARIA MELO DE ASSIS OFICIAL DO MP BELO HORIZONTE - COMARCA; BH-18PJ DIREITOS HUMANOS-SECRETARIA 12.343,61 3.703,08 0,00 0,00 0,00 0,00 793,44 2.105,00 18.945,13 3.459,39 4.804,28 0,00 0,00 8.263,67 10.681,46 31/08/2023
330 653000 APARECIDA ROSA DE LIMA ASSESSOR ADMINISTRATIVO III BELO HORIZONTE - COMARCA; SECRETARIA PROCESSOS DISCIPES ADMINISTRATIVOS 0,00 0,00 10.858,90 0,00 0,00 0,00 575,57 2.105,00 13.539,47 876,95 3.780,11 0,00 0,00 4.657,06 8.882,41 31/08/2023
331 354500 APARECIDA VIEIRA DE CARVALHO OFICIAL DO MP BELO HORIZONTE - COMARCA; DIVISÃO DE EDUCAÇÃO PARA O CONSUMO 10.516,49 3.154,95 0,00 0,00 0,00 0,00 0,00 2.105,00 15.776,44 1.968,38 2.333,38 0,00 0,00 4.301,76 11.474,68 31/08/2023
332 551000 ARACELES BICALHO FELIX ANALISTA DO MP MANHUAÇU - COMARCA; MANHUACU-PJ-SECRETARIA 12.343,61 2.468,72 0,00 0,00 0,00 0,00 0,00 4.005,00 18.817,33 2.385,94 3.066,63 0,00 0,00 5.452,57 13.364,76 31/08/2023
333 286200 ARACELI MEDRADO DOS SANTOS LIMA OFICIAL DO MP PARACATU - COMARCA; PARACATU-PJ-03PJ 7.506,70 2.252,01 0,00 0,00 0,00 0,00 496,67 3.055,00 13.310,38 2.017,98 2.501,76 0,00 0,00 4.519,74 8.790,64 31/08/2023
334 112200 ARAQUEM AUGUSTO DE MATOS AGENTE DO MP BELO HORIZONTE - COMARCA; BH-23PJ CIVEL-SEC EXP CIVEIS 13.160,57 11.844,52 0,00 245,69 0,00 7.859,92 0,00 2.105,00 35.215,70 3.781,76 6.187,86 0,00 0,00 9.969,62 25.246,08 31/08/2023
335 280600 ARDUINO FRATTEZI ANALISTA DO MP BELO HORIZONTE - COMARCA; CENTRAL DE APOIO TECNICO-SETOR CONTABIL 23.070,31 6.921,09 0,00 0,00 0,00 0,00 0,00 2.105,00 32.096,40 4.579,57 6.103,29 0,00 0,00 10.682,86 21.413,54 31/08/2023
336 520201 ARIANE DE FATIMA CARVALHO ALMEIDA RODRIGUES ANALISTA DO MP VESPASIANO - COMARCA; VESPASIANO-PJ-SECRETARIA 11.577,56 1.157,76 0,00 0,00 0,00 0,00 603,76 3.530,00 16.869,08 2.700,31 3.359,99 0,00 0,00 6.060,30 10.808,78 31/08/2023
337 537600 ARIELA FREIRE MONTIJO ANALISTA DO MP ARCOS - COMARCA; ARCOS-PJ-01PJ 12.343,61 2.468,72 0,00 0,00 0,00 0,00 714,55 2.105,00 17.631,88 3.323,31 4.319,94 0,00 0,00 7.643,25 9.988,63 31/08/2023
338 182000 ARILSON ALEXANDRE MARTINS MAGALHAES OFICIAL DO MP JOÃO MONLEVADE - COMARCA; JOAO MONLEVADE-PJ-01PJ 20.533,67 10.266,84 0,00 0,00 0,00 0,00 0,00 5.905,00 36.705,51 4.709,03 6.029,51 0,00 0,00 10.738,54 25.966,97 31/08/2023
339 511000 ARISLANE CAROLINA DA SILVA ANALISTA DO MP MONTE CARMELO - COMARCA; MONTE CARMELO-PJ-02PJ 12.343,61 2.468,72 0,00 0,00 0,00 0,00 713,23 4.955,00 20.480,56 3.176,44 4.224,40 0,00 0,00 7.400,84 13.079,72 31/08/2023
340 170000 ARLEY BRITES DA SILVA ASSESSOR ADMINISTRATIVO II BELO HORIZONTE - COMARCA; BH-14PJ DEFESA CONSUMIDOR-SECRETARIA 0,00 3.002,68 7.506,70 0,00 0,00 0,00 529,00 5.608,13 16.646,51 876,95 1.886,11 0,00 0,00 2.763,06 13.883,45 31/08/2023
341 120400 ARLINDO CASSIO DA CRUZ OFICIAL DO MP SÃO GONÇALO DO SAPUCAÍ - COMARCA; SAO GONCALO DO SAPUCAI-PJ-01PJ 23.070,31 20.763,28 0,00 0,00 0,00 5.795,34 0,00 2.105,00 51.733,93 5.795,34 9.348,00 6.243,63 0,00 21.386,97 30.346,96 31/08/2023
342 243700 ARLINDO MARCIO LACERDA OFICIAL DO MP CONTAGEM - COMARCA; CONTAGEM-PJ-SECRETARIA 17.559,01 8.779,51 0,00 0,00 0,00 0,00 1.771,66 2.105,00 30.215,18 4.557,00 6.718,88 0,00 0,00 11.275,88 18.939,30 31/08/2023
343 392100 ARNALDO DE ANDRADE OFICIAL DO MP DIVINÓPOLIS - COMARCA; DIVINOPOLIS-PJ-02PJ 12.343,61 4.443,70 0,00 0,00 0,00 0,00 1.771,66 4.005,00 22.563,97 2.466,92 3.488,22 0,00 0,00 5.955,14 16.608,83 31/08/2023
344 642400 ARTANE INARDE DE SIQUEIRA DAMASCENO ANALISTA DO MP BELO HORIZONTE - COMARCA; SECRETARIA DE ASSUNTOS INTERNACIONAIS 10.015,59 1.001,56 0,00 0,00 0,00 0,00 530,47 3.530,00 15.077,62 982,16 2.952,13 0,00 0,00 3.934,29 11.143,33 31/08/2023
345 733000 ARTHUR BRANDAO ALBUQUERQUE ASSESSOR ADMINISTRATIVO II BELO HORIZONTE - COMARCA; DIRETORIA DE PAGAMENTO DE PESSOAL-DPAG 0,00 0,00 7.506,70 0,00 0,00 0,00 20,49 2.105,00 9.632,19 876,95 1.510,17 0,00 0,00 2.387,12 7.245,07 31/08/2023
346 302100 AUGUSTO ROUSSEAU DE CASTRO ANALISTA DO MP CATAGUASES - COMARCA; CATAGUASES-PJ-02PJ 23.070,31 6.921,09 0,00 0,00 0,00 0,00 0,00 2.105,00 32.096,40 5.098,68 7.072,84 0,00 0,00 12.171,52 19.924,88 31/08/2023
347 540200 AUREA AVELAR BITTENCOURT OFICIAL DO MP BELO HORIZONTE - COMARCA; GRUPO ESP PROM JUST DEF PROB ADM PAT PUB 7.506,70 1.501,34 0,00 0,00 0,00 0,00 495,10 2.105,00 11.608,14 982,16 2.419,52 0,00 0,00 3.401,68 8.206,46 31/08/2023
348 633501 AUREA GONTIJO BIRCHAL ASSESSOR DE GABINETE I BELO HORIZONTE - COMARCA; PROCURADOR-GERAL DE JUSTIÇA 0,00 0,00 18.130,77 0,00 0,00 0,00 862,46 2.105,00 21.098,23 876,95 6.609,63 0,00 0,00 7.486,58 13.611,65 31/08/2023
349 183200 AURELIANO MAGELA DE REZENDE OFICIAL DO MP BELO HORIZONTE - COMARCA; COORD DE GABINETE DO PGJ 20.533,67 8.213,47 6.160,10 0,00 0,00 0,00 0,00 2.105,00 37.012,24 4.380,49 7.911,36 0,00 0,00 12.291,85 24.720,39 31/08/2023
350 629400 AYESKA DA COSTA VAL MOURA DABIEN OFICIAL DO MP BELO HORIZONTE - COMARCA; BH-09PJ AUDITORIA MILITAR-SECRETARIA 6.818,83 681,88 0,00 0,00 0,00 0,00 361,99 2.105,00 9.967,70 1.496,27 1.810,55 0,00 0,00 3.306,82 6.660,88 31/08/2023
351 707400 AYMEE JOHANSSENN TYNEE CORREIA ALVES ASSESSOR PROMOTOR JUSTICA NOVA LIMA - COMARCA; NOVA LIMA-PJ-01PJ 0,00 0,00 8.810,89 0,00 0,00 0,00 469,62 4.005,00 13.285,51 876,95 2.932,58 0,00 0,00 3.809,53 9.475,98 31/08/2023
352 701600 BARBARA CHAVES OLIVEIRA ASSESSOR PROCURADOR JUSTICA BELO HORIZONTE - COMARCA; PROC. JUSTICA DIR. DIFUSOS E COLETIVOS-SEC 0,00 0,00 8.810,89 0,00 0,00 0,00 439,89 2.105,00 11.355,78 876,95 2.876,57 0,00 0,00 3.753,52 7.602,26 31/08/2023
353 691900 BARBARA COUTINHO REIS ASSESSOR PROCURADOR JUSTICA BELO HORIZONTE - COMARCA; GABINETE DE PROCURADOR DE JUSTIÇA - SALA 910 0,00 0,00 8.810,89 0,00 0,00 0,00 435,82 2.105,00 11.351,71 876,95 2.845,21 0,00 0,00 3.722,16 7.629,55 31/08/2023
354 692200 BARBARA CRISTINA MENDES BANDEIRA DE MELO DUTRA ASSESSOR PROCURADOR JUSTICA BELO HORIZONTE - COMARCA; GABINETE DE PROCURADOR DE JUSTIÇA - SALA 1009 0,00 0,00 8.810,89 0,00 0,00 0,00 490,50 3.630,03 12.931,42 876,95 2.932,58 0,00 0,00 3.809,53 9.121,89 31/08/2023
355 743300 BARBARA CRISTINA SOUZA E SOUSA ASSESSOR PROCURADOR JUSTICA BELO HORIZONTE - COMARCA; GABINETE DE PROCURADOR DE JUSTIÇA - SALA 513 0,00 0,00 8.810,89 0,00 0,00 0,00 0,00 2.105,00 10.915,89 876,95 1.709,37 0,00 0,00 2.586,32 8.329,57 31/08/2023
356 723400 BARBARA CRISTINA TAVARES CARNEIRO ASSESSOR PROCURADOR JUSTICA BELO HORIZONTE - COMARCA; PROC JUST ATUACAO TRIBUNAIS SUPERIORES-GAB008 0,00 0,00 8.810,89 0,00 0,00 0,00 426,09 2.105,00 11.341,98 876,95 2.757,84 0,00 0,00 3.634,79 7.707,19 31/08/2023
357 652800 BARBARA JULIANNE MOREIRA CASTRO ASSESSOR PROCURADOR JUSTICA BELO HORIZONTE - COMARCA; ASSESS TECNICO-JUR JUNTO AS PROC. DE JUST 0,00 0,00 8.810,89 0,00 0,00 0,00 453,32 2.105,00 11.369,21 876,95 2.845,21 0,00 0,00 3.722,16 7.647,05 31/08/2023
358 707700 BARBARA LOUISE PUFF DE OLIVEIRA ASSESSOR PROMOTOR JUSTICA RIBEIRÃO DAS NEVES - COMARCA; RIBEIRAO DAS NEVES-PJ-02PJ 0,00 0,00 8.810,89 0,00 0,00 0,00 469,91 2.105,00 11.385,80 876,95 2.845,21 0,00 0,00 3.722,16 7.663,64 31/08/2023
359 663600 BARBARA REGINA PEREIRA DE PINHO MAGALHAES ASSESSOR PROMOTOR JUSTICA BELO HORIZONTE - COMARCA; CAO-DH CONT EXT ATIV POLIC E AP COMUNIT 0,00 0,00 8.810,89 0,00 0,00 0,00 435,80 2.105,00 11.351,69 876,95 2.845,21 0,00 0,00 3.722,16 7.629,53 31/08/2023
360 546500 BARBARA ZACARONI GOULART OFICIAL DO MP BETIM - COMARCA; BETIM-PJ-08PJ 7.506,70 1.501,34 0,00 0,00 0,00 0,00 522,00 2.105,00 11.635,04 1.793,93 2.245,29 0,00 0,00 4.039,22 7.595,82 31/08/2023
361 316500 BEATRIZ ABILVIA DA SILVA ANALISTA DO MP GOVERNADOR VALADARES - COMARCA; GOVERNADOR VALADARES-PJ-07PJ 22.191,68 6.657,50 0,00 175,79 0,00 8.375,55 0,00 2.105,00 39.505,52 4.396,82 7.048,56 0,00 0,00 11.445,38 28.060,14 31/08/2023
362 311800 BEATRIZ APARECIDA SOARES GANEM OFICIAL DO MP ITAMBACURI - COMARCA; ITAMBACURI-PJ-02PJ 13.588,97 5.435,59 0,00 0,00 0,00 0,00 0,00 2.105,00 21.129,56 3.003,65 3.671,64 0,00 0,00 6.675,29 14.454,27 31/08/2023
363 266800 BEATRIZ AUGUSTA VILACA GOMES DE HUBER OFICIAL DO MP BELO HORIZONTE - COMARCA; BH-05PJ-JUÍZO SUCESSÕES-SEC 12.343,61 4.937,44 0,00 0,00 0,00 0,00 1.378,31 8.326,18 26.985,54 3.656,89 4.930,30 0,00 0,00 8.587,19 18.398,35 31/08/2023
364 235200 BEATRIZ BOTELHO BATISTA OFICIAL DO MP MATEUS LEME - COMARCA; MATEUS LEME-PJ-02PJ 12.343,61 4.937,44 0,00 0,00 0,00 0,00 831,11 2.105,00 20.217,16 3.742,35 5.065,92 0,00 0,00 8.808,27 11.408,89 31/08/2023
365 182300 BEATRIZ PAULA SOUSA RAMOS OFICIAL DO MP MARIANA - COMARCA; MARIANA-PJ-01PJ 20.533,67 10.266,84 0,00 0,00 0,00 0,00 564,68 8.265,10 39.630,29 4.709,03 6.290,20 0,00 0,00 10.999,23 28.631,06 31/08/2023
366 507000 BELCHIOR FRANKLIN AMARAL LEITE ANALISTA DO MP BELO HORIZONTE - COMARCA; CAO ORGAOS MPMG DESIG FUNC ELEITORAIS-SEC 13.588,97 3.533,13 0,00 0,00 0,00 0,00 64,68 4.005,00 21.191,78 3.214,07 4.320,54 0,00 0,00 7.534,61 13.657,17 31/08/2023
367 345100 BENITO ELIAS RODRIGUES ANALISTA DO MP BARBACENA - COMARCA; BARBACENA - SECRETARIA DAS PJS CRIMINAIS 21.346,53 6.403,96 0,00 0,00 0,00 0,00 0,00 3.055,00 30.805,49 4.221,03 5.533,50 0,00 0,00 9.754,53 21.050,96 31/08/2023
368 207300 BENITO VIEIRA DOS SANTOS ANALISTA DO MP BELO HORIZONTE - COMARCA; PROC JUST ESP ACOES COMP ORIG CRIMINAL-ASSESS 23.070,31 11.535,16 0,00 369,13 0,00 9.379,61 0,00 2.105,00 46.459,21 5.319,21 6.970,12 0,00 0,00 12.289,33 34.169,88 31/08/2023
369 480200 BERNADETE NUNES DOS SANTOS ANALISTA DO MP GUANHÃES - COMARCA; GUANHAES-PJ-02PJ 12.343,61 4.937,44 0,00 0,00 0,00 0,00 108,91 2.105,00 19.494,96 3.671,52 5.064,56 0,00 0,00 8.736,08 10.758,88 31/08/2023
370 378400 BETANIA FARNESI DE SOUZA E SILVA OFICIAL DO MP CURVELO - COMARCA; CURVELO-PJ-01PJ 12.343,61 4.937,44 0,00 0,00 0,00 0,00 0,00 2.105,00 19.386,05 2.545,92 3.695,68 0,00 0,00 6.241,60 13.144,45 31/08/2023
371 387400 BETANIA MENDONCA DE ASSIS CARVALHO ANALISTA DO MP JUIZ DE FORA - COMARCA; JUIZ DE FORA-PJ-03PJ 18.720,84 5.616,25 0,00 0,00 0,00 0,00 0,00 3.055,00 27.392,09 3.837,31 5.239,14 0,00 0,00 9.076,45 18.315,64 31/08/2023
372 714400 BIANCA DE CASTRO RAMOS ASSESSOR PROMOTOR JUSTICA BETIM - COMARCA; BETIM-PJ-13PJ 0,00 0,00 8.810,89 0,00 2.936,96 0,00 973,46 8.096,41 20.817,72 876,95 3.652,88 0,00 0,00 4.529,83 16.287,89 31/08/2023
373 450300 BIANCA OLIVEIRA DE ALBUQUERQUE ANALISTA DO MP BELO HORIZONTE - COMARCA; BH-10PJ EXECUÇÃO PENAL-SECRETARIA 12.343,61 2.468,72 0,00 0,00 0,00 0,00 732,65 3.055,00 18.599,98 3.176,44 4.224,40 0,00 0,00 7.400,84 11.199,14 31/08/2023
374 535400 BIANCA SALOTO ROSSI ANALISTA DO MP SANTOS DUMONT - COMARCA; SANTOS DUMONT-PJ-01PJ 12.343,61 2.468,72 0,00 0,00 0,00 0,00 821,46 3.055,00 18.688,79 3.323,31 4.571,10 0,00 0,00 7.894,41 10.794,38 31/08/2023
375 120800 BRAS MARQUES DE SOUZA ANALISTA DO MP BELO HORIZONTE - COMARCA; SUPERINTENDENCIA DE GESTAO ADMINISTRATIVA 29.122,38 26.210,14 0,00 0,00 0,00 5.795,34 318,16 5.575,83 67.021,85 5.795,34 9.348,00 17.742,56 0,00 32.885,90 34.135,95 31/08/2023
376 724400 BRENDA PIMENTEL DE SOUZA VIANA ASSESSOR PROMOTOR JUSTICA MANHUMIRIM - COMARCA; MANHUMIRIM-PJ-01PJ 0,00 0,00 8.810,89 0,00 0,00 0,00 406,76 2.105,00 11.322,65 876,95 2.845,21 0,00 0,00 3.722,16 7.600,49 31/08/2023
377 710500 BRENNO VINICIUS MAGESTE ROSA ASSESSOR PROMOTOR JUSTICA MANHUAÇU - COMARCA; MANHUACU-PJ-02PJ 0,00 0,00 8.810,89 0,00 0,00 0,00 453,54 2.105,00 11.369,43 876,95 2.845,21 0,00 0,00 3.722,16 7.647,27 31/08/2023
378 460900 BRENO CRISTIANO DE SOUZA REZENDE ANALISTA DO MP ITAÚNA - COMARCA; ITAUNA-PJ-02PJ 12.343,61 2.468,72 0,00 0,00 0,00 0,00 830,43 2.105,00 17.747,76 3.176,44 4.224,40 0,00 0,00 7.400,84 10.346,92 31/08/2023
379 239000 BRENO VENANCIO ROMANINI OFICIAL DO MP BELO HORIZONTE - COMARCA; BH-20PJ ORD ECON TRIBUTARIA-SECRETARIA 12.343,61 4.937,44 0,00 0,00 0,00 0,00 0,00 2.105,00 19.386,05 2.940,91 3.850,63 0,00 0,00 6.791,54 12.594,51 31/08/2023
380 722100 BRUNA HENRIQUE DE SOUZA ASSESSOR PROMOTOR JUSTICA PIRAPETINGA - COMARCA; PIRAPETINGA-PJ-UNPJ 0,00 0,00 8.810,89 0,00 0,00 0,00 418,34 2.105,00 11.334,23 876,95 2.845,21 0,00 0,00 3.722,16 7.612,07 31/08/2023
381 642300 BRUNA IZABELITA DE FATIMA OLIVEIRA COSTA OFICIAL DO MP BELO HORIZONTE - COMARCA; BH-02PJ FAMILIA-SECRETARIA 7.270,07 727,01 0,00 0,00 0,00 0,00 444,19 2.105,00 10.546,27 1.614,15 1.980,57 0,00 0,00 3.594,72 6.951,55 31/08/2023
382 513600 BRUNA KARLA MARTINS CARVALHO ANALISTA DO MP GOVERNADOR VALADARES - COMARCA; GOVERNADOR VALADARES-PJ-14PJ 12.343,61 2.468,72 0,00 0,00 0,00 0,00 917,17 2.105,00 17.834,50 982,16 4.313,62 0,00 0,00 5.295,78 12.538,72 31/08/2023
383 415100 BRUNA MARIA SOARES OLIVEIRA COSTA RAMOS ANALISTA DO MP UBÁ - COMARCA; COORD REG BACIA DO RIO PARAIBA DO SUL 18.130,77 3.626,15 0,00 0,00 0,00 0,00 0,00 2.105,00 23.861,92 982,16 3.806,97 0,00 0,00 4.789,13 19.072,79 31/08/2023
384 692900 BRUNA MENDES COELHO ASSESSOR PROCURADOR JUSTICA BELO HORIZONTE - COMARCA; GABINETE DE PROCURADOR DE JUSTIÇA - SALA 801 0,00 0,00 8.810,89 0,00 0,00 0,00 729,07 4.924,48 14.464,44 876,95 2.845,21 0,00 0,00 3.722,16 10.742,28 31/08/2023
385 470000 BRUNA MORAES ANALISTA DO MP TOMBOS - COMARCA; TOMBOS-PJ-UNPJ 15.949,86 4.146,96 0,00 0,00 0,00 0,00 0,00 2.105,00 22.201,82 3.327,72 4.139,52 0,00 0,00 7.467,24 14.734,58 31/08/2023
386 614700 BRUNA NATTANY DE LIMA OFICIAL DO MP MANTENA - COMARCA; MANTENA-PJ-01PJ 7.506,70 750,67 0,00 0,00 0,00 0,00 505,26 3.055,00 11.817,63 1.673,82 1.990,00 0,00 0,00 3.663,82 8.153,81 31/08/2023
387 729800 BRUNA PAULA AMARAL CEOLIN ASSESSOR PROMOTOR JUSTICA COMARCA - JUATUBA; JUATUBA-PJ-UNPJ 0,00 0,00 8.810,89 0,00 2.936,96 0,00 224,17 2.105,00 14.077,02 876,95 3.565,50 0,00 0,00 4.442,45 9.634,57 31/08/2023
388 631800 BRUNA RAPOSO JORGE OFICIAL DO MP JUIZ DE FORA - COMARCA; JUIZ DE FORA-PJ-06PJ 7.506,70 750,67 0,00 0,00 0,00 0,00 388,06 3.055,00 11.700,43 1.669,31 2.076,35 0,00 0,00 3.745,66 7.954,77 31/08/2023
389 707800 BRUNA ROMIE WERDINE ASSESSOR PROMOTOR JUSTICA IBIRITÉ - COMARCA; IBIRITE-PJ-06PJ 0,00 0,00 8.810,89 0,00 0,00 0,00 469,62 2.105,00 11.385,51 876,95 2.932,58 0,00 0,00 3.809,53 7.575,98 31/08/2023
390 697400 BRUNA SILVA SANTOS ASSESSOR PROMOTOR JUSTICA TIMÓTEO - COMARCA; TIMOTEO-PJ-04PJ 0,00 0,00 8.810,89 0,00 0,00 0,00 463,60 2.105,00 11.379,49 876,95 2.845,21 0,00 0,00 3.722,16 7.657,33 31/08/2023
391 699300 BRUNA URSINE TIMO ASSESSOR PROCURADOR JUSTICA BELO HORIZONTE - COMARCA; PROC JUST ESP ACOES COMP ORIG CRIMINAL-ASSESS 0,00 0,00 8.810,89 0,00 0,00 0,00 469,98 2.105,00 11.385,87 876,95 2.845,21 0,00 0,00 3.722,16 7.663,71 31/08/2023
392 463800 BRUNO ALVES TEIXEIRA ANALISTA DO MP UBERLÂNDIA - COMARCA; UBERLANDIA-PJ-04PJ 12.343,61 2.468,72 0,00 0,00 0,00 0,00 917,17 2.105,00 17.834,50 3.176,44 4.224,40 0,00 0,00 7.400,84 10.433,66 31/08/2023
393 538500 BRUNO AUGUSTO DA SILVA OFICIAL DO MP SANTA LUZIA - COMARCA; SANTA LUZIA-PJ-03PJ 7.506,70 1.501,34 0,00 0,00 0,00 0,00 403,34 2.105,00 11.516,38 1.819,91 2.200,92 0,00 0,00 4.020,83 7.495,55 31/08/2023
394 318200 BRUNO BARROS DE SOUZA OFICIAL DO MP BELO HORIZONTE - COMARCA; DIRETORIA GESTAO CONTRATOS CONVENIOS 12.343,61 3.703,08 0,00 0,00 0,00 0,00 993,57 2.105,00 19.145,26 982,16 3.674,86 0,00 0,00 4.657,02 14.488,24 31/08/2023
395 427400 BRUNO CESAR RIBEIRO DE PAIVA ANALISTA DO MP BELO HORIZONTE - COMARCA; DIRETORIA DO COLEGIO E DA CAMARA DE PJ 18.130,77 3.626,15 0,00 0,00 0,00 0,00 0,00 2.105,00 23.861,92 3.262,06 4.201,13 0,00 0,00 7.463,19 16.398,73 31/08/2023
396 380900 BRUNO CIRILO ANTUNES OFICIAL DO MP VARGINHA - COMARCA; VARGINHA-PJ-05PJ 11.954,43 3.586,33 0,00 0,00 0,00 0,00 154,11 2.105,00 17.799,87 3.294,21 4.551,14 0,00 0,00 7.845,35 9.954,52 31/08/2023
397 329000 BRUNO DE MELO REIS ANALISTA DO MP PATROCÍNIO - COMARCA; PATROCINIO-PJ-02PJ 22.191,68 8.876,67 0,00 0,00 0,00 0,00 0,00 4.005,00 35.073,35 4.751,88 6.247,79 0,00 0,00 10.999,67 24.073,68 31/08/2023
398 697800 BRUNO GAZZOLA BEZERRA FALCAO ASSESSOR PROCURADOR JUSTICA BELO HORIZONTE - COMARCA; PROCURADOR-GERAL ADJUNTO JURIDICO- GABINETE 0,00 0,00 8.810,89 0,00 0,00 0,00 435,82 2.105,00 11.351,71 876,95 2.845,21 0,00 0,00 3.722,16 7.629,55 31/08/2023
399 378300 BRUNO HERDY LOPES DE OLIVEIRA ANALISTA DO MP GOVERNADOR VALADARES - COMARCA; GOVERNADOR VALADARES-PJ-03PJ 18.720,84 5.616,25 0,00 0,00 0,00 0,00 0,00 2.105,00 26.442,09 3.674,88 5.056,78 0,00 0,00 8.731,66 17.710,43 31/08/2023
400 529700 BRUNO JOSE BUENO DIAS OFICIAL DO MP SÃO SEBASTIÃO DO PARAÍSO - COMARCA; SAO SEBASTIAO DO PARAISO-PJ-02PJ 7.506,70 1.501,34 0,00 0,00 0,00 0,00 538,31 2.105,00 11.651,35 1.819,91 2.148,78 0,00 0,00 3.968,69 7.682,66 31/08/2023
401 691600 BRUNO JOSE RIBEIRO ASSESSOR PROMOTOR JUSTICA CLÁUDIO - COMARCA; CLAUDIO-PJ-UNPJ 0,00 0,00 8.810,89 0,00 0,00 0,00 469,84 2.105,00 11.385,73 876,95 2.845,21 0,00 0,00 3.722,16 7.663,57 31/08/2023
402 350100 BRUNO LAUD SERRANO DOS REIS OFICIAL DO MP UBÁ - COMARCA; UBA-PJ-02PJ 12.343,61 4.937,44 0,00 0,00 0,00 0,00 170,60 2.105,00 19.556,65 4.038,39 5.542,09 0,00 0,00 9.580,48 9.976,17 31/08/2023
403 728900 BRUNO LIMA PITANGA ASSESSOR PROMOTOR JUSTICA BELO HORIZONTE - COMARCA; NUCLEO DA EXECUCAO PENAL 0,00 0,00 8.810,89 0,00 2.936,96 0,00 238,63 4.005,00 15.991,48 876,95 3.565,50 0,00 0,00 4.442,45 11.549,03 31/08/2023
404 745900 BRUNO LUIZ MARQUES ROCHA OFICIAL DO MP RIBEIRÃO DAS NEVES - COMARCA; RIBEIRAO DAS NEVES-PJ-11PJ 4.570,25 0,00 0,00 0,00 0,00 0,00 0,00 2.105,00 6.675,25 526,88 257,78 0,00 0,00 784,66 5.890,59 31/08/2023
405 373800 BRUNO MARTINO DE ALBUQUERQUE ANALISTA DO MP PONTE NOVA - COMARCA; PONTE NOVA-PJ-03PJ 18.720,84 5.616,25 0,00 0,00 0,00 0,00 0,00 2.105,00 26.442,09 3.674,88 4.952,50 0,00 0,00 8.627,38 17.814,71 31/08/2023
406 732900 BRUNO NOGUEIRA GUIMARAES ASSESSOR ADMINISTRATIVO I BELO HORIZONTE - COMARCA; COORD DE INCLUSAO E MOBILIZACAO SOCIAIS 0,00 0,00 4.872,71 0,00 0,00 0,00 21,08 2.105,00 6.998,79 802,47 811,14 0,00 0,00 1.613,61 5.385,18 31/08/2023
407 470400 BRUNO NOVAIS CABRAL ANALISTA DO MP MUTUM - COMARCA; MUTUM-PJ-UNPJ 12.343,61 2.468,72 0,00 0,00 0,00 0,00 936,15 4.005,00 19.753,48 3.176,44 4.371,28 0,00 0,00 7.547,72 12.205,76 31/08/2023
408 648600 BRUNO RIBEIRO E MELO COORDENADOR I BELO HORIZONTE - COMARCA; DIR RELACOES INSTITUCIONAIS 0,00 0,00 16.469,17 0,00 0,00 0,00 2.109,28 2.105,00 20.683,45 876,95 6.199,36 0,00 0,00 7.076,31 13.607,14 31/08/2023
409 369200 BRUNO ROBERTO DIAS DE OLIVEIRA OFICIAL DO MP BELO HORIZONTE - COMARCA; BH-22PJ PES COM DEF E IDOSOS-SECRETARIA 12.343,61 3.703,08 0,00 0,00 0,00 0,00 993,57 2.105,00 19.145,26 982,16 4.756,45 0,00 0,00 5.738,61 13.406,65 31/08/2023
410 547700 BRUNO ROBERTO SOUZA GONCALVES ANALISTA DO MP PARACATU - COMARCA; PARACATU-PJ-03PJ 12.343,61 2.468,72 0,00 0,00 0,00 0,00 0,00 3.055,00 17.867,33 2.385,94 2.936,23 0,00 0,00 5.322,17 12.545,16 31/08/2023
411 546100 BRUNO SA VIEIRA ANALISTA DO MP BARBACENA - COMARCA; BARBACENA-PJ-SECRETARIA 12.343,61 2.468,72 0,00 0,00 0,00 0,00 818,52 3.055,00 18.685,85 3.266,00 4.237,19 0,00 0,00 7.503,19 11.182,66 31/08/2023
412 438200 BRUNO SALES PEREIRA ANALISTA DO MP BELO HORIZONTE - COMARCA; CENTRAL DE APOIO TECNICO-SETOR CONTABIL 15.949,86 3.189,97 0,00 0,00 0,00 0,00 0,00 3.720,00 22.859,83 3.199,64 4.463,94 0,00 0,00 7.663,58 15.196,25 31/08/2023
413 537400 BRUNO SANT'ANA CESAR ANALISTA DO MP BELO HORIZONTE - COMARCA; BH-12PJ JUIZO CRIMINAL-GAB 105PJ 12.343,61 2.468,72 0,00 0,00 0,00 0,00 925,12 2.105,00 17.842,45 3.323,31 4.424,21 0,00 0,00 7.747,52 10.094,93 31/08/2023
414 727700 BYANKA DA SILVA MORAIS ASSESSOR PROCURADOR JUSTICA BELO HORIZONTE - COMARCA; GABINETE DE PROCURADOR DE JUSTIÇA - SALA 805 0,00 0,00 8.810,89 0,00 0,00 0,00 270,61 2.105,00 11.186,50 876,95 2.757,84 0,00 0,00 3.634,79 7.551,71 31/08/2023
415 748100 CAETANO ALBERTO MARTINS BOTELHO ASSESSOR PROMOTOR JUSTICA COROMANDEL - COMARCA; COROMANDEL-PJ-02PJ 0,00 0,00 8.517,19 0,00 0,00 0,00 0,00 2.036,82 10.554,01 876,95 1.609,86 0,00 0,00 2.486,81 8.067,20 31/08/2023
416 405800 CAIO FERNANDO RODRIGUES DE OLIVEIRA ANALISTA DO MP BELO HORIZONTE - COMARCA; ASSESSORIA JURIDICO-ADMINISTRATIVA 18.130,77 3.626,15 0,00 0,00 0,00 0,00 0,00 2.105,00 23.861,92 982,16 4.446,49 0,00 0,00 5.428,65 18.433,27 31/08/2023
417 530000 CAIO GUEDES DE OLIVEIRA ANALISTA DO MP DIAMANTINA - COMARCA; DIAMANTINA-PJ-02PJ 12.343,61 2.468,72 0,00 0,00 0,00 0,00 860,60 2.105,00 17.777,93 3.133,71 4.098,33 0,00 0,00 7.232,04 10.545,89 31/08/2023
418 491400 CAIO MIRANDA JUNQUEIRA ANALISTA DO MP BUENO BRANDAO - COMARCA; BUENO BRANDAO-PJ-UNPJ 12.343,61 2.468,72 0,00 0,00 0,00 0,00 713,23 2.105,00 17.630,56 3.176,44 4.120,13 0,00 0,00 7.296,57 10.333,99 31/08/2023
419 415800 CAMILA ALVES DA SILVA ANALISTA DO MP CAETÉ - COMARCA; CAETE-PJ-01PJ 18.130,77 3.626,15 0,00 0,00 0,00 0,00 0,00 2.105,00 23.861,92 3.262,06 4.452,70 0,00 0,00 7.714,76 16.147,16 31/08/2023
420 555800 CAMILA CAROLINE ROCHA CHAVES OFICIAL DO MP SALINAS - COMARCA; SALINAS-PJ-01PJ 7.506,70 1.501,34 0,00 0,00 0,00 0,00 454,00 2.105,00 11.567,04 1.793,93 2.163,40 0,00 0,00 3.957,33 7.609,71 31/08/2023
421 747700 CAMILA CATIA VILELA VIANA ASSESSOR DE CAO BELO HORIZONTE - COMARCA; CAO-SAUDE-ASSESSORIA 0,00 0,00 7.506,70 0,00 0,00 0,00 3.002,68 3.391,82 13.901,20 876,95 2.363,96 0,00 0,00 3.240,91 10.660,29 31/08/2023
422 445200 CAMILA CONDE ROCHA ANALISTA DO MP CONTAGEM - COMARCA; CONTAGEM-PJ-21PJ 13.588,97 2.717,79 0,00 0,00 0,00 0,00 104,14 2.105,00 18.515,90 3.227,87 4.496,88 0,00 0,00 7.724,75 10.791,15 31/08/2023
423 419900 CAMILA CUNNINGHAM PIMENTA DE PADUA ANALISTA DO MP BELO HORIZONTE - COMARCA; ASSESSORIA PSICOSSOCIAL 18.130,77 3.626,15 0,00 0,00 0,00 0,00 0,00 2.105,00 23.861,92 3.301,67 4.258,32 0,00 0,00 7.559,99 16.301,93 31/08/2023
424 742700 CAMILA DA SILVA GONCALVES ANALISTA DO MP BELO HORIZONTE - COMARCA; DIV FISCAL ADM CONT TERCEIRIZACAO 7.040,78 0,00 0,00 0,00 0,00 0,00 0,00 2.105,00 9.145,78 909,81 801,06 0,00 0,00 1.710,87 7.434,91 31/08/2023
425 714200 CAMILA DE SOUSA CUNHA ASSESSOR PROMOTOR JUSTICA PRADOS - COMARCA; PRADOS-PJ-UNPJ 0,00 0,00 8.810,89 0,00 0,00 0,00 424,25 2.105,00 11.340,14 876,95 2.845,21 0,00 0,00 3.722,16 7.617,98 31/08/2023
426 507700 CAMILA ELIZABETH RODRIGUES ANALISTA DO MP BELO HORIZONTE - COMARCA; BH-02PJ FAMILIA-SECRETARIA 14.960,00 2.992,00 0,00 0,00 0,00 0,00 0,00 2.105,00 20.057,00 2.653,27 3.322,19 0,00 0,00 5.975,46 14.081,54 31/08/2023
427 372700 CAMILA FONSECA LIMONGE ANALISTA DO MP BETIM - COMARCA; BETIM-PJ-01PJ 18.720,84 5.616,25 0,00 0,00 0,00 0,00 0,00 2.105,00 26.442,09 3.708,95 5.105,97 0,00 0,00 8.814,92 17.627,17 31/08/2023
428 621300 CAMILA GOLFETO DE SOUSA VALENTE OFICIAL DO MP CARANGOLA - COMARCA; CARANGOLA-PJ-SECRETARIA 7.506,70 750,67 0,00 0,00 0,00 0,00 505,26 3.530,00 12.292,63 1.673,82 1.885,72 0,00 0,00 3.559,54 8.733,09 31/08/2023
429 409800 CAMILA GONCALVES COSTA RIBEIRO ANALISTA DO MP IPATINGA - COMARCA; GAECO REGIONAL DE IPATINGA 12.343,61 2.468,72 0,00 0,00 0,00 0,00 917,17 3.055,00 18.784,50 3.176,44 4.120,13 0,00 0,00 7.296,57 11.487,93 31/08/2023
430 335000 CAMILA GONTIJO DE PAIVA ANALISTA DO MP BELO HORIZONTE - COMARCA; COORD DE CONTROLE CONSTITUCIONALIDADE 23.070,31 6.921,09 0,00 0,00 0,00 0,00 0,00 2.105,00 32.096,40 4.579,57 6.051,16 0,00 0,00 10.630,73 21.465,67 31/08/2023
431 693400 CAMILA HECKSHER MONTEIRO ASSESSOR PROCURADOR JUSTICA BELO HORIZONTE - COMARCA; GABINETE DE PROCURADOR DE JUSTIÇA - SALA 613 0,00 0,00 8.810,89 0,00 0,00 0,00 435,75 2.105,00 11.351,64 876,95 2.845,21 0,00 0,00 3.722,16 7.629,48 31/08/2023
432 696000 CAMILA IMACULADA OLIVEIRA ASSESSOR PROCURADOR JUSTICA BELO HORIZONTE - COMARCA; GABINETE DE PROCURADOR DE JUSTICA - SALA 312 0,00 0,00 8.810,89 0,00 0,00 0,00 459,20 2.105,00 11.375,09 876,95 2.845,21 0,00 0,00 3.722,16 7.652,93 31/08/2023
433 547800 CAMILA MATTARELLI DE ABREU E SILVA ANALISTA DO MP BELO HORIZONTE - COMARCA; CAO-VIOLENCIA DOMESTICA E FAMILIAR 12.343,61 2.468,72 0,00 0,00 0,00 0,00 0,00 2.105,00 16.917,33 2.382,23 2.930,88 0,00 0,00 5.313,11 11.604,22 31/08/2023
434 735800 CAMILA REGINA DE OLIVEIRA ASSESSOR ADMINISTRATIVO II BELO HORIZONTE - COMARCA; CENTRO AUTOCOMPOSICAO DE CONFLITOS 0,00 0,00 7.506,70 0,00 0,00 0,00 0,00 2.105,00 9.611,70 876,95 1.350,72 0,00 0,00 2.227,67 7.384,03 31/08/2023
435 430000 CANDIDA MARINA COSTA ANALISTA DO MP BELO HORIZONTE - COMARCA; DIRET DE INFORMACAO E CONHECIMENTO-DINC/CEAF 18.130,77 3.626,15 0,00 0,00 0,00 0,00 0,00 2.105,00 23.861,92 3.448,16 4.721,38 0,00 0,00 8.169,54 15.692,38 31/08/2023
436 614300 CARINA CORTIELHA OFICIAL DO MP BELO HORIZONTE - COMARCA; BH-23PJ CIVEL-FISC AC POL PUB I 6.818,83 681,88 0,00 0,00 0,00 0,00 756,31 2.105,00 10.362,02 1.500,36 1.809,40 0,00 0,00 3.309,76 7.052,26 31/08/2023
437 380400 CARINA DIAS FACANHA DE SOUZA ANALISTA DO MP SANTA RITA DO SAPUCAÍ - COMARCA; SANTA RITA DO SAPUCAI-PJ-01PJ 18.720,84 5.616,25 0,00 0,00 0,00 0,00 0,00 3.055,00 27.392,09 3.674,88 5.056,78 0,00 0,00 8.731,66 18.660,43 31/08/2023
438 255000 CARLA ADRIANA DE MENEZES OFICIAL DO MP BELO HORIZONTE - COMARCA; CENT DE APOIO TEC-SETOR DEF,IDOSO E INFANC 12.343,61 4.937,44 0,00 0,00 0,00 0,00 170,60 2.105,00 19.556,65 3.877,79 5.362,36 0,00 0,00 9.240,15 10.316,50 31/08/2023
439 425100 CARLA ADRIANA DINIZ AMARAL OFICIAL DO MP CONTAGEM - COMARCA; CONTAGEM-PJ-SECRETARIA 11.212,54 2.242,51 2.918,39 0,00 0,00 0,00 97,42 2.105,00 18.575,86 2.841,29 4.819,02 0,00 0,00 7.660,31 10.915,55 31/08/2023
440 508100 CARLA ALESSANDRA FONSECA ANALISTA DO MP BELO HORIZONTE - COMARCA; CAO-ORDEM ECONOMICA E TRIBUTARIA-SECRETARIA 12.343,61 2.468,72 0,00 0,00 0,00 0,00 917,17 2.105,00 17.834,50 3.176,44 4.224,40 0,00 0,00 7.400,84 10.433,66 31/08/2023
441 607100 CARLA ANGELICA DIAS MIRANDA OFICIAL DO MP SANTA LUZIA - COMARCA; SANTA LUZIA-PJ-SECRETARIA 7.506,70 750,67 0,00 0,00 0,00 0,00 565,25 2.105,00 10.927,62 1.673,82 1.915,47 0,00 0,00 3.589,29 7.338,33 31/08/2023
442 351500 CARLA APARECIDA MENDES RAMIRIO OFICIAL DO MP PASSOS - COMARCA; PASSOS-PJ-01PJ 12.343,61 3.703,08 0,00 0,00 0,00 0,00 949,10 2.105,00 19.100,79 3.459,39 4.593,02 0,00 0,00 8.052,41 11.048,38 31/08/2023
443 713100 CARLA DOS SANTOS SOUZA ASSESSOR PROMOTOR JUSTICA ESPERA FELIZ - COMARCA; ESPERA FELIZ-PJ-UNPJ 0,00 0,00 8.810,89 0,00 0,00 0,00 435,68 2.105,00 11.351,57 876,95 2.932,58 0,00 0,00 3.809,53 7.542,04 31/08/2023
444 442800 CARLA GONCALVES COSTA SOALHEIRO ANALISTA DO MP GOVERNADOR VALADARES - COMARCA; GOVERNADOR VALADARES-PJ-11PJ 11.989,91 2.632,11 0,00 0,00 568,90 0,00 62,64 3.055,00 18.308,56 3.297,54 4.212,56 0,00 0,00 7.510,10 10.798,46 31/08/2023
445 321500 CARLA GONCALVES MASSOTE OFICIAL DO MP CAMPO BELO - COMARCA; CAMPO BELO-PJ-02PJ 12.343,61 3.703,08 0,00 0,00 0,00 0,00 1.077,17 2.105,00 19.228,86 3.459,39 4.804,28 0,00 0,00 8.263,67 10.965,19 31/08/2023
446 429200 CARLA HAUTEQUESTT BECHARA ANALISTA DO MP BELO HORIZONTE - COMARCA; DIRETORIA DE INTELIGENCIA 18.130,77 3.626,15 0,00 0,00 0,00 0,00 319,10 5.586,11 27.662,13 3.569,72 4.896,90 0,00 0,00 8.466,62 19.195,51 31/08/2023
447 247500 CARLA MATILDE GUIMARAES DE OLIVEIRA OFICIAL DO MP ITAJUBA - COMARCA; ITAJUBA-PJ-SECRETARIA 12.343,61 4.937,44 0,00 0,00 0,00 0,00 854,71 2.105,00 20.240,76 3.742,35 5.013,78 0,00 0,00 8.756,13 11.484,63 31/08/2023
448 226100 CARLA MERLI DA CONCEICAO ANALISTA DO MP BELO HORIZONTE - COMARCA; CENTRAL DE APOIO TECNICO-SETOR CONTABIL 23.070,31 9.228,12 0,00 0,00 0,00 0,00 0,00 2.105,00 34.403,43 4.948,70 6.584,08 0,00 0,00 11.532,78 22.870,65 31/08/2023
449 181401 CARLO MICHEL GAUDENSI COELHO ANALISTA DO MP BELO HORIZONTE - COMARCA; BH-08PJ JUIZADO ESPECIAL-SECRETARIA 17.559,01 7.023,60 0,00 0,00 0,00 0,00 0,00 2.105,00 26.687,61 3.714,17 4.853,86 0,00 0,00 8.568,03 18.119,58 31/08/2023
450 634000 CARLOS ALBERTO AMORMINO TRIGUEIRO ANALISTA DO MP BELO HORIZONTE - COMARCA; DIRET DE APOIO AS PROCURADORIAS DE JUSTICA 11.212,54 1.121,25 0,00 0,00 0,00 0,00 655,99 3.055,00 16.044,78 982,16 3.741,36 0,00 0,00 4.723,52 11.321,26 31/08/2023
451 637900 CARLOS ALBERTO DE MOURA OFICIAL DO MP SETE LAGOAS - COMARCA; SETE LAGOAS-PJ-07PJ 7.270,07 727,01 0,00 0,00 0,00 0,00 377,32 2.105,00 10.479,40 982,16 2.022,93 0,00 0,00 3.005,09 7.474,31 31/08/2023
452 638700 CARLOS ALBERTO FERREIRA BRAGA ANALISTA DO MP VESPASIANO - COMARCA; VESPASIANO-PJ-06PJ 11.212,54 1.121,25 0,00 0,00 0,00 0,00 0,00 2.105,00 14.438,79 982,16 2.365,34 0,00 0,00 3.347,50 11.091,29 31/08/2023
453 375801 CARLOS ALBERTO ROCHA ANALISTA DO MP VARGINHA - COMARCA; GAECO REGIONAL DE VARGINHA 12.343,61 3.209,34 0,00 0,00 0,00 0,00 681,00 4.005,00 20.238,95 3.252,21 4.217,28 0,00 0,00 7.469,49 12.769,46 31/08/2023
454 462800 CARLOS ANDREI SOARES FAGUNDES ANALISTA DO MP MONTES CLAROS - COMARCA; MONTES CLAROS-PJ-09PJ 12.343,61 2.468,72 0,00 0,00 0,00 0,00 917,17 2.105,00 17.834,50 3.176,44 4.172,26 0,00 0,00 7.348,70 10.485,80 31/08/2023
455 370300 CARLOS AUGUSTO BUENO DIAS ASSESSOR ADMINISTRATIVO IV BELO HORIZONTE - COMARCA; SUPERINTENDÊNCIA DE ENGENHARIA E ARQUITETURA 0,00 0,00 14.488,22 0,00 0,00 0,00 724,37 2.105,00 17.317,59 876,95 3.942,65 0,00 0,00 4.819,60 12.497,99 31/08/2023
456 505100 CARLOS CEZAR CARVALHO ANALISTA DO MP CONTAGEM - COMARCA; CONTAGEM-PJ-02PJ 12.343,61 6.171,81 0,00 0,00 0,00 0,00 168,52 2.105,00 20.788,94 4.313,90 5.899,96 0,00 0,00 10.213,86 10.575,08 31/08/2023
457 196800 CARLOS EDUARDO DE OLIVEIRA MARINHO OFICIAL DO MP ALPINÓPOLIS - COMARCA; ALPINOPOLIS-PJ-UNPJ 21.346,53 14.942,57 0,00 0,00 0,00 0,00 0,00 2.105,00 38.394,10 5.587,20 8.012,61 0,00 0,00 13.599,81 24.794,29 31/08/2023
458 650800 CARLOS EDUARDO NIZA DA SILVA OFICIAL DO MP IGARAPÉ - COMARCA; IGARAPE-PJ-01PJ 6.603,76 660,38 0,00 0,00 0,00 0,00 437,91 3.055,00 10.757,05 982,16 1.821,67 0,00 0,00 2.803,83 7.953,22 31/08/2023
459 491800 CARLOS EDUARDO ROMAN OFICIAL DO MP BARBACENA - COMARCA; BARBACENA-PJ-09PJ 10.516,49 3.154,95 0,00 0,00 0,00 0,00 0,00 2.105,00 15.776,44 2.304,91 2.915,65 0,00 0,00 5.220,56 10.555,88 31/08/2023
460 299300 CARLOS HENRIQUE BICALHO ANALISTA DO MP BELO HORIZONTE - COMARCA; BH-17PJ PATRIMONIO PUBLICO-SECRETARIA 23.070,31 11.535,16 0,00 0,00 0,00 0,00 42,30 3.055,00 37.702,77 5.686,95 7.913,54 0,00 0,00 13.600,49 24.102,28 31/08/2023
461 205100 CARLOS HENRIQUE ESTEVES OFICIAL DO MP ITAMBACURI - COMARCA; ITAMBACURI-PJ-01PJ 21.346,53 8.538,61 0,00 0,00 0,00 0,00 0,00 2.105,00 31.990,14 4.562,57 6.026,61 0,00 0,00 10.589,18 21.400,96 31/08/2023
462 351600 CARLOS HENRIQUE FELICIO DA FONSECA OFICIAL DO MP JUIZ DE FORA - COMARCA; JUIZ DE FORA-PJ-21PJ 12.343,61 4.937,44 0,00 0,00 0,00 0,00 45,26 2.105,00 19.431,31 3.105,47 3.922,92 0,00 0,00 7.028,39 12.402,92 31/08/2023
463 729100 CARLOS HENRIQUE TEIXEIRA BRAGA ASSESSOR ADMINISTRATIVO II BELO HORIZONTE - COMARCA; DIRETORIA DE SUPORTE E MANUTENCAO 0,00 0,00 7.506,70 0,00 2.502,23 0,00 201,33 2.105,00 12.315,26 876,95 2.932,10 0,00 0,00 3.809,05 8.506,21 31/08/2023
464 85400 CARLOS JOSE VIEIRA OFICIAL DO MP BELO HORIZONTE - COMARCA; DIRETORIA DO COLEGIO E DA CAMARA DE PJ 29.122,38 23.297,91 0,00 0,00 0,00 5.795,34 318,16 5.575,82 64.109,61 5.795,34 9.452,28 14.830,33 0,00 30.077,95 34.031,66 31/08/2023
465 229100 CARLOS MERCES DE OLIVEIRA ANALISTA DO MP BELO HORIZONTE - COMARCA; CENTRAL DE APOIO TECN-SETOR DE MEIO AMBIENTE 23.070,31 9.228,12 0,00 0,00 0,00 0,00 0,00 2.105,00 34.403,43 5.348,01 4.256,19 0,00 0,00 9.604,20 24.799,23 31/08/2023
466 538300 CARLOS RANGEL SILVA DE MELO ANALISTA DO MP BELO HORIZONTE - COMARCA; DIVISAO DE CONTROLE IMOBILIARIO 12.343,61 4.937,44 0,00 0,00 614,54 0,00 0,00 4.005,00 21.900,59 3.779,43 5.107,21 0,00 0,00 8.886,64 13.013,95 31/08/2023
467 265100 CARLOS REIFF MIRANDA ANALISTA DO MP BELO HORIZONTE - COMARCA; BH-19PJ SAUDE-SECRETARIA 150PJ 23.070,31 9.228,12 0,00 0,00 0,00 0,00 0,00 2.105,00 34.403,43 5.422,82 7.320,73 0,00 0,00 12.743,55 21.659,88 31/08/2023
468 305400 CARLOS ROCHA DE SOUZA OFICIAL DO MP MONTALVÂNIA - COMARCA; MONTALVANIA-PJ-SECRETARIA 7.506,70 2.252,01 0,00 0,00 0,00 0,00 604,34 3.275,22 13.638,27 2.017,98 2.293,21 0,00 0,00 4.311,19 9.327,08 31/08/2023
469 744500 CARLOS THIAGO COSTA FIGUEREDO OFICIAL DO MP PARAOPEBA - COMARCA; PARAOPEBA-PJ-UNPJ 4.570,25 0,00 0,00 0,00 0,00 0,00 0,00 2.105,00 6.675,25 526,88 257,78 0,00 0,00 784,66 5.890,59 31/08/2023
470 399900 CARMELITA EVANGELISTA DE SOUZA OFICIAL DO MP JOÃO PINHEIRO - COMARCA; JOAO PINHEIRO-PJ-01PJ 10.858,90 2.171,78 0,00 0,00 0,00 0,00 784,37 2.105,00 15.920,05 2.760,91 3.753,41 0,00 0,00 6.514,32 9.405,73 31/08/2023
471 202000 CARMEN LUCIA MARIZ DE MACEDO OFICIAL DO MP BELO HORIZONTE - COMARCA; DIRETORIA GESTAO COMPRAS LICITACOES 20.533,67 14.373,58 5.434,83 0,00 0,00 10.920,52 472,52 7.259,73 58.994,85 5.366,11 9.790,71 2.752,12 0,00 17.908,94 41.085,91 31/08/2023
472 701900 CAROLINA CARVALHO COSTA ASSESSOR PROCURADOR JUSTICA BELO HORIZONTE - COMARCA; GABINETE DE PROCURADOR DE JUSTIÇA - SALA 811 0,00 0,00 8.810,89 0,00 0,00 0,00 456,26 2.105,00 11.372,15 876,95 2.845,21 0,00 0,00 3.722,16 7.649,99 31/08/2023
473 228500 CAROLINA CHIARELLA DOS SANTOS RIBEIRO COORDENADOR I BELO HORIZONTE - COMARCA; DIVISAO TRANSPORTES 16.469,17 6.587,67 0,00 0,00 0,00 0,00 42,27 2.105,00 25.204,11 3.072,93 5.412,15 0,00 0,00 8.485,08 16.719,03 31/08/2023
474 446500 CAROLINA COSTA VAL RODRIGUES ANALISTA DO MP BELO HORIZONTE - COMARCA; DIVISAO DE MATERIAIS 17.559,01 5.267,70 4.940,75 0,00 0,00 0,00 38,63 2.105,00 29.911,09 3.995,11 6.779,15 0,00 0,00 10.774,26 19.136,83 31/08/2023
475 603501 CAROLINA DOMINGOS BRANDAO RABELLO ANALISTA DO MP BARROSO - COMARCA; BARROSO-PJ-01PJ 12.343,61 1.234,36 0,00 0,00 0,00 0,00 0,00 4.005,00 17.582,97 2.714,36 3.845,66 0,00 0,00 6.560,02 11.022,95 31/08/2023
476 404300 CAROLINA DOS SANTOS VIEIRA ANALISTA DO MP BELO HORIZONTE - COMARCA; BH-08PJ JUIZADO ESPECIAL-SECRETARIA 18.720,84 3.744,17 0,00 0,00 0,00 0,00 0,00 2.105,00 24.570,01 3.375,35 4.520,05 0,00 0,00 7.895,40 16.674,61 31/08/2023
477 551200 CAROLINA LOPES ARANTES MASCARENHAS ANALISTA DO MP BELO HORIZONTE - COMARCA; CAO-VIOLENCIA DOMESTICA E FAMILIAR 12.343,61 2.468,72 0,00 0,00 0,00 0,00 0,00 4.005,00 18.817,33 2.385,94 2.885,11 0,00 0,00 5.271,05 13.546,28 31/08/2023
478 622600 CAROLINA LOREDO LOPES CATIZANI OFICIAL DO MP RIBEIRÃO DAS NEVES - COMARCA; RIBEIRAO DAS NEVES-PJ-12PJ 6.818,83 681,88 0,00 0,00 0,00 0,00 458,99 2.105,00 10.064,70 1.500,36 1.732,07 0,00 0,00 3.232,43 6.832,27 31/08/2023
479 382200 CAROLINA MENDES CHAVES LIN ANALISTA DO MP BELO HORIZONTE - COMARCA; BH-12PJ JUIZO CRIMINAL-GAB 088PJ 12.263,38 3.703,08 0,00 0,00 0,00 0,00 722,63 3.055,00 19.744,09 3.416,67 4.497,03 0,00 0,00 7.913,70 11.830,39 31/08/2023
480 461900 CAROLINA MURTA TEIXEIRA DIAS ANALISTA DO MP BELO HORIZONTE - COMARCA; CENTRO AUTOCOMPOSICAO DE CONFLITOS 12.343,61 2.468,72 0,00 0,00 0,00 0,00 713,23 2.105,00 17.630,56 3.176,44 4.224,40 0,00 0,00 7.400,84 10.229,72 31/08/2023
481 509600 CAROLINA PINTO DE OLIVEIRA SOUZA ANALISTA DO MP MURIAÉ - COMARCA; MURIAE-PJ-01PJ 12.343,61 2.468,72 0,00 0,00 0,00 0,00 936,57 3.055,00 18.803,90 3.176,44 4.120,13 0,00 0,00 7.296,57 11.507,33 31/08/2023
482 629100 CAROLINA RODRIGUES AMARAL ANALISTA DO MP BELO HORIZONTE - COMARCA; PROC. JUSTICA DIR. DIFUSOS E COLETIVOS-SEC 11.577,56 1.157,76 0,00 0,00 0,00 0,00 738,35 2.105,00 15.578,67 2.700,31 3.516,40 0,00 0,00 6.216,71 9.361,96 31/08/2023
483 502600 CAROLINA RODRIGUES RUBEN ANALISTA DO MP BELO HORIZONTE - COMARCA; BH-18PJ VIOLENCIA DOMESTICA-GAB 007PJ 12.343,61 2.468,72 0,00 0,00 0,00 0,00 917,17 4.005,00 19.734,50 3.176,44 4.120,13 0,00 0,00 7.296,57 12.437,93 31/08/2023
484 529600 CAROLINA VAZ DE MELO MAMBRINI ANALISTA DO MP BELO HORIZONTE - COMARCA; BH-14PJ DEFESA CONSUMIDOR-GAB 005PJ 12.343,61 2.468,72 0,00 0,00 520,00 0,00 727,85 2.105,00 18.165,18 3.323,31 4.424,21 0,00 0,00 7.747,52 10.417,66 31/08/2023
485 619100 CAROLINA ZAKHIA NARDELLI RODRIGUES ANALISTA DO MP NEPOMUCENO - COMARCA; NEPOMUCENO-PJ-UNPJ 11.577,56 1.157,76 0,00 0,00 0,00 0,00 709,08 3.055,00 16.499,40 2.700,31 3.464,27 0,00 0,00 6.164,58 10.334,82 31/08/2023
486 517600 CAROLINE ALVES DE OLIVEIRA MULLER ANALISTA DO MP VISCONDE DO RIO BRANCO - COMARCA; VISCONDE DO RIO BRANCO-PJ-01PJ 12.343,61 3.703,08 0,00 0,00 0,00 0,00 713,23 2.105,00 18.864,92 3.373,94 4.457,40 0,00 0,00 7.831,34 11.033,58 31/08/2023
487 373200 CAROLINE ANTUNES RIBEIRO OFICIAL DO MP JACUI - COMARCA; JACUI-PJ-UNPJ 12.343,61 3.703,08 0,00 0,00 0,00 0,00 0,00 2.105,00 18.151,69 2.348,42 2.829,93 0,00 0,00 5.178,35 12.973,34 31/08/2023
488 723500 CAROLINE CORDEIRO FERNANDES MACHADO ASSESSOR PROMOTOR JUSTICA BELO HORIZONTE - COMARCA; COORD DE INCLUSAO E MOBILIZACAO SOCIAIS 0,00 0,00 8.810,89 0,00 0,00 0,00 416,30 2.105,00 11.332,19 876,95 2.757,84 0,00 0,00 3.634,79 7.697,40 31/08/2023
489 556800 CAROLINE DE SOUZA CARDOSO DOMINGUES OFICIAL DO MP BRASÍLIA DE MINAS - COMARCA; BRASILIA DE MINAS-PJ-02PJ 7.506,70 1.501,34 0,00 0,00 0,00 0,00 408,34 2.105,00 11.521,38 1.793,93 2.163,40 0,00 0,00 3.957,33 7.564,05 31/08/2023
490 499400 CAROLINE MARQUES DE LOURDES MARZULLO OFICIAL DO MP JUIZ DE FORA - COMARCA; JUIZ DE FORA-PJ-08PJ 10.516,49 2.103,30 0,00 0,00 0,00 0,00 0,00 3.530,00 16.149,79 982,16 2.813,28 0,00 0,00 3.795,44 12.354,35 31/08/2023
491 616800 CAROLINE MONTEIRO DE BARROS ANALISTA DO MP CONTAGEM - COMARCA; CONTAGEM-PJ-11PJ 11.577,56 1.157,76 0,00 0,00 0,00 0,00 709,08 3.055,00 16.499,40 982,16 3.341,99 0,00 0,00 4.324,15 12.175,25 31/08/2023
492 618100 CAROLINE VASCONCELOS COSTA LANZA ANALISTA DO MP PARAOPEBA - COMARCA; PARAOPEBA-PJ-UNPJ 11.577,56 1.157,76 0,00 0,00 0,00 0,00 844,08 5.905,00 19.484,40 2.700,31 3.642,69 0,00 0,00 6.343,00 13.141,40 31/08/2023
493 699000 CAROLLINA RODRIGUES SOUTO AMARAL ASSESSOR PROCURADOR JUSTICA BELO HORIZONTE - COMARCA; GABINETE DE PROCURADOR DE JUSTIÇA - SALA 405 0,00 0,00 8.810,89 0,00 0,00 0,00 435,61 2.105,00 11.351,50 876,95 2.932,58 0,00 0,00 3.809,53 7.541,97 31/08/2023
494 604000 CASSIA APARECIDA DA SILVA OFICIAL DO MP PARACATU - COMARCA; PARACATU-PJ-01PJ 7.506,70 750,67 0,00 0,00 0,00 0,00 408,46 2.105,00 10.770,83 1.673,82 1.990,00 0,00 0,00 3.663,82 7.107,01 31/08/2023
495 268800 CASSIA BEATRIZ TEIXEIRA OFICIAL DO MP BELO HORIZONTE - COMARCA; PROC. JUSTICA DE HABEAS CORPUS 17.559,01 7.023,60 4.346,47 0,00 0,00 0,00 1.755,90 2.105,00 32.789,98 3.995,11 6.454,75 0,00 0,00 10.449,86 22.340,12 31/08/2023
496 500000 CASSIA DE OLIVEIRA COSTA VIANA ANALISTA DO MP SETE LAGOAS - COMARCA; SETE LAGOAS-PJ-09PJ 12.343,61 8.640,53 0,00 0,00 0,00 7.806,78 0,00 2.105,00 30.895,92 3.138,41 4.885,68 0,00 0,00 8.024,09 22.871,83 31/08/2023
497 368800 CASSIA LUISA BATISTA MENDONCA WEBER COORDENADOR II BELO HORIZONTE - COMARCA; DIVISÃO DE EDUCAÇÃO PARA O CONSUMO 20.533,67 6.160,10 0,00 0,00 0,00 0,00 0,00 2.105,00 28.798,77 2.814,54 7.463,34 0,00 0,00 10.277,88 18.520,89 31/08/2023
498 622200 CASSIA VAZ DE AZEVEDO LISBOA MARZANO ASSESSOR ADMINISTRATIVO III BELO HORIZONTE - COMARCA; CGMP-DIR ESTAGIO PROBATORIO E ORIENT 0,00 0,00 10.858,90 0,00 0,00 0,00 523,19 2.105,00 13.487,09 876,95 3.538,37 0,00 0,00 4.415,32 9.071,77 31/08/2023
499 121000 CASSIO HENRIQUE AFONSO DA SILVA OFICIAL DO MP BELO HORIZONTE - COMARCA; CGMP-ASSESSORIA TECNICA 23.070,31 18.456,25 0,00 0,00 0,00 0,00 0,00 2.105,00 43.631,56 5.795,34 7.754,29 3.936,60 0,00 17.486,23 26.145,33 31/08/2023
500 512001 CATARINA NATALINO CALIXTO COORDENADOR II BELO HORIZONTE - COMARCA; DIRETORIA GESTAO TRANSPORTES 20.533,67 3.285,39 0,00 0,00 0,00 0,00 524,02 8.771,57 33.114,65 3.493,53 7.368,98 0,00 899,36 11.761,87 21.352,78 31/08/2023
501 606200 CATARINE DE SIQUEIRA DE QUADROS ANALISTA DO MP CONTAGEM - COMARCA; CONTAGEM-PJ-08PJ 12.343,61 1.234,36 0,00 0,00 0,00 0,00 0,00 3.055,00 16.632,97 2.399,77 3.287,19 0,00 0,00 5.686,96 10.946,01 31/08/2023
502 622300 CECILIA APARECIDA PEREIRA ASSUNCAO OFICIAL DO MP TRÊS PONTAS - COMARCA; TRES PONTAS-PJ-SECRETARIA 8.003,54 800,35 0,00 0,00 0,00 0,00 462,19 3.055,00 12.321,08 1.995,79 2.507,18 0,00 0,00 4.502,97 7.818,11 31/08/2023
503 538000 CECILIA FONTES DE MATOS PIMENTEL ANALISTA DO MP PALMA - COMARCA; PALMA-PJ-UNPJ 12.343,61 2.468,72 0,00 0,00 0,00 0,00 718,81 3.055,00 18.586,14 3.323,31 4.424,21 0,00 0,00 7.747,52 10.838,62 31/08/2023
504 261300 CECILIO ANTONIO CAMPOS DOS REIS ANALISTA DO MP BELO HORIZONTE - COMARCA; AUDITORIA INTERNA 23.070,31 9.228,12 0,00 0,00 0,00 0,00 2.116,61 2.105,00 36.520,04 4.948,70 7.218,28 0,00 0,00 12.166,98 24.353,06 31/08/2023
505 386400 CEFAS AMORELI DE FIGUEIREDO OFICIAL DO MP CABO VERDE - COMARCA; CABO VERDE-PJ-SECRETARIA 7.506,70 2.252,01 0,00 0,00 0,00 0,00 520,18 2.105,00 12.383,89 1.991,99 2.456,80 0,00 0,00 4.448,79 7.935,10 31/08/2023
506 421000 CELINA BENEDITA DE SOUZA ALMEIDA OFICIAL DO MP CAMBUÍ - COMARCA; CAMBUI-PJ-01PJ 11.212,54 7.848,77 0,00 0,00 0,00 0,00 0,00 2.105,00 21.166,31 3.044,24 3.834,52 0,00 0,00 6.878,76 14.287,55 31/08/2023
507 252900 CELIO DE MELO CASTOR ANALISTA DO MP BELO HORIZONTE - COMARCA; DIVISAO FROTA 23.070,31 9.228,12 0,00 0,00 0,00 0,00 0,00 2.105,00 34.403,43 5.686,95 7.913,54 0,00 0,00 13.600,49 20.802,94 31/08/2023
508 395700 CELIO FERREIRA LIMA OFICIAL DO MP CONTAGEM - COMARCA; CONTAGEM-PJ-SECRETARIA 11.954,43 3.586,33 0,00 0,00 0,00 0,00 692,25 2.105,00 18.338,01 3.252,83 4.439,26 0,00 0,00 7.692,09 10.645,92 31/08/2023
509 281300 CELMA REGINA PEREIRA SANTOS ANALISTA DO MP BELO HORIZONTE - COMARCA; PROMOT ESTADUAL DE DEF PATRI CULT E TUR DE MG 23.070,31 6.921,09 0,00 0,00 0,00 0,00 0,00 2.105,00 32.096,40 5.098,68 6.852,75 0,00 0,00 11.951,43 20.144,97 31/08/2023
510 535600 CELSO MEDEIROS DE PAIVA OFICIAL DO MP RIO PRETO - COMARCA; RIO PRETO-PJ-SECRETARIA 7.506,70 1.501,34 0,00 0,00 325,05 0,00 589,27 2.105,00 12.027,36 1.990,17 2.394,59 0,00 0,00 4.384,76 7.642,60 31/08/2023
511 367000 CESAR NARVAES DE AVELAR OFICIAL DO MP BELO HORIZONTE - COMARCA; DIRET DE INFORMACAO E CONHECIMENTO-DINC/CEAF 12.343,61 3.703,08 0,00 0,00 0,00 0,00 772,64 2.105,00 18.924,33 3.459,39 4.645,16 0,00 0,00 8.104,55 10.819,78 31/08/2023
512 226500 CESAR SILVEIRA BARROUIN OFICIAL DO MP BELO HORIZONTE - COMARCA; DIRETORIA DE ADMINISTRACAO FINANCEIRA 17.559,01 8.779,51 0,00 0,00 0,00 0,00 38,63 2.105,00 28.482,15 4.557,00 6.231,67 0,00 0,00 10.788,67 17.693,48 31/08/2023
513 121400 CEZAR MORENO CONCEICAO TAVARES OFICIAL DO MP BELO HORIZONTE - COMARCA; COORD DE INCLUSAO E MOBILIZACAO SOCIAIS 22.191,68 17.753,35 0,00 229,88 0,00 9.569,24 318,16 6.525,82 56.588,13 5.795,34 9.348,00 2.355,07 0,00 17.498,41 39.089,72 31/08/2023
514 243800 CHARLES MARTINS MUNIZ OFICIAL DO MP BELO HORIZONTE - COMARCA; LAB TECNOLOGIA CONTRA LAVAGEM DINHEIRO 17.559,01 7.023,60 0,00 0,00 0,00 0,00 0,00 1.500,00 26.082,61 3.674,87 4.853,86 0,00 357,31 8.886,04 17.196,57 31/08/2023
515 193500 CHARLIN CESAR KOURLY OFICIAL DO MP ARAGUARI - COMARCA; ARAGUARI-PJ-07PJ 21.346,53 8.538,61 0,00 0,00 0,00 0,00 0,00 2.105,00 31.990,14 4.562,57 6.496,01 0,00 0,00 11.058,58 20.931,56 31/08/2023
516 385500 CHILLEN PEIXOTO DE MOURA OFICIAL DO MP BELO HORIZONTE - COMARCA; DIVISAO DE MATERIAIS 11.954,43 3.586,33 0,00 0,00 0,00 0,00 683,29 4.005,00 20.229,05 3.294,21 4.551,14 0,00 0,00 7.845,35 12.383,70 31/08/2023
517 534500 CHRISTIAN DOUGLAS BRITO RUAS OFICIAL DO MP BOCAIÚVA - COMARCA; BOCAIUVA-PJ-03PJ 7.506,70 1.501,34 0,00 0,00 0,00 0,00 539,02 2.105,00 11.652,06 1.819,91 2.290,25 0,00 0,00 4.110,16 7.541,90 31/08/2023
518 370600 CHRISTIAN KARINE FELIX PRATES ASSESSOR ADMINISTRATIVO IV BELO HORIZONTE - COMARCA; SUPRIN DE PLANEJAMENTO E COORDENACAO 0,00 0,00 14.488,22 0,00 0,00 0,00 731,72 2.105,00 17.324,94 876,95 5.138,35 0,00 0,00 6.015,30 11.309,64 31/08/2023
519 435800 CHRISTIANA BAHIA ANDRADE PINA ANALISTA DO MP BELO HORIZONTE - COMARCA; LABORATORIO TECNOLOGIA INTELIGENCIA 18.130,77 3.626,15 0,00 0,00 0,00 0,00 0,00 2.105,00 23.861,92 3.414,62 4.672,96 0,00 0,00 8.087,58 15.774,34 31/08/2023
520 516800 CHRISTIANE FERREIRA DO NASCIMENTO ANALISTA DO MP POUSO ALEGRE - COMARCA; POUSO ALEGRE-PJ-04PJ 12.343,61 2.468,72 0,00 0,00 0,00 0,00 732,62 2.105,00 17.649,95 3.176,44 4.224,40 0,00 0,00 7.400,84 10.249,11 31/08/2023
521 176000 CHRISTIANE JUNQUEIRA PULITI ANDRADE DE BARROS ASSESSOR ADM. ESPECIAL BELO HORIZONTE - COMARCA; PROCURADORIA-GERAL ADJUNTA INSTITUCIONAL 0,00 22.410,72 28.013,39 0,00 0,00 5.993,71 361,56 5.575,83 62.355,21 5.795,34 9.452,28 12.834,15 0,00 28.081,77 34.273,44 31/08/2023
522 319200 CHRISTIANE MARIA DE ASSIS RUSSO OFICIAL DO MP BELO HORIZONTE - COMARCA; CAO-ORDEM ECONOMICA E TRIBUTARIA-SECRETARIA 15.447,01 4.634,10 0,00 0,00 0,00 0,00 0,00 3.055,00 23.136,11 3.330,54 4.505,16 0,00 0,00 7.835,70 15.300,41 31/08/2023
523 510300 CHRISTIANE MARY DE CARVALHO FERREIRA ANALISTA DO MP BELO HORIZONTE - COMARCA; DIRETORIA DE SISTEMAS DE INFORMACAO 12.343,61 2.468,72 0,00 0,00 0,00 0,00 732,72 2.105,00 17.650,05 3.176,44 4.172,26 0,00 0,00 7.348,70 10.301,35 31/08/2023
524 424900 CHRISTIANE PEREIRA TURNER DE ARAUJO OFICIAL DO MP BELO HORIZONTE - COMARCA; CAO-PATRIMONIO PUBLICO 11.212,54 2.242,51 0,00 0,00 0,00 0,00 817,66 3.055,00 17.327,71 2.857,96 3.798,26 0,00 0,00 6.656,22 10.671,49 31/08/2023
525 731000 CHRISTIANE TEIXEIRA ANTUNA ASSESSOR ADMINISTRATIVO III BELO HORIZONTE - COMARCA; DIR CONTEUDO JORNALISTICO 0,00 0,00 10.858,90 0,00 0,00 0,00 155,05 2.105,00 13.118,95 876,95 3.165,84 0,00 0,00 4.042,79 9.076,16 31/08/2023
526 513700 CHRISTIANE VIEIRA SOARES PEDERSOLI COORDENADOR II BELO HORIZONTE - COMARCA; ASSESSORIA JURIDICA DO PROCON-MG 20.533,67 4.106,73 0,00 0,00 0,00 0,00 58,64 3.055,00 27.754,04 3.414,45 7.368,21 0,00 0,00 10.782,66 16.971,38 31/08/2023
527 412300 CHRYSTIAN MACHADO RIBEIRO ANALISTA DO MP VARGINHA - COMARCA; VARGINHA-PJ-04PJ 18.130,77 3.626,15 0,00 0,00 0,00 0,00 0,00 2.105,00 23.861,92 3.262,06 4.201,13 0,00 0,00 7.463,19 16.398,73 31/08/2023
528 513800 CHRYSTIANE DO NASCIMENTO DE MAGALHAES OFICIAL DO MP UBERLÂNDIA - COMARCA; UBERLANDIA-PJ-10PJ 9.699,77 1.939,95 0,00 0,00 0,00 0,00 648,09 2.105,00 14.392,81 2.449,17 3.038,68 0,00 0,00 5.487,85 8.904,96 31/08/2023
529 497900 CIBELE DE FREITAS SANCHES DIAS ANALISTA DO MP SABARÁ - COMARCA; SABARA-PJ-03PJ 12.343,61 2.468,72 0,00 0,00 0,00 0,00 911,78 2.105,00 17.829,11 982,16 4.261,49 0,00 0,00 5.243,65 12.585,46 31/08/2023
530 500900 CIBELLE SILVA PRADO ALVARENGA ANALISTA DO MP ITANHANDU - COMARCA; ITANHANDU-PJ-UNPJ 12.343,61 2.468,72 0,00 0,00 0,00 0,00 919,52 3.055,00 18.786,85 3.176,44 4.224,40 0,00 0,00 7.400,84 11.386,01 31/08/2023
531 296400 CINTIA APARECIDA MOREIRA NAVES E RODRIGUES ANALISTA DO MP CAMPO BELO - COMARCA; CAMPO BELO-PJ-01PJ 23.070,31 6.921,09 0,00 0,00 0,00 0,00 0,00 2.105,00 32.096,40 4.579,57 6.103,29 0,00 0,00 10.682,86 21.413,54 31/08/2023
532 407900 CINTIA NETO COMELLI ANALISTA DO MP BELO HORIZONTE - COMARCA; CENTRAL DE APOIO TECNICO-SETOR CONTABIL 18.130,77 3.626,15 0,00 0,00 0,00 0,00 0,00 2.105,00 23.861,92 3.262,06 4.148,99 0,00 0,00 7.411,05 16.450,87 31/08/2023
533 304700 CINTIA QUEIROZ OFICIAL DO MP BELO HORIZONTE - COMARCA; OUVIDORIA DO MPMG 12.343,61 3.703,08 0,00 0,00 0,00 0,00 1.001,15 2.105,00 19.152,84 3.459,39 4.645,16 0,00 0,00 8.104,55 11.048,29 31/08/2023
534 286100 CIRO CANGUSSU CORDEIRO OFICIAL DO MP IPATINGA - COMARCA; IPATINGA-PJ-09PJ 10.516,49 3.154,95 0,00 0,00 0,00 0,00 0,00 3.055,00 16.726,44 1.968,38 2.618,41 0,00 0,00 4.586,79 12.139,65 31/08/2023
535 689900 CISSA NOGUEIRA COLEN ASSESSOR PROCURADOR JUSTICA BELO HORIZONTE - COMARCA; GABINETE DE PROCURADOR DE JUSTIÇA - SALA 608 0,00 0,00 8.810,89 0,00 0,00 0,00 469,62 2.105,00 11.385,51 876,95 2.932,58 0,00 0,00 3.809,53 7.575,98 31/08/2023
536 681700 CLARA FERREIRA ALKIMIM ASSESSOR PROMOTOR JUSTICA PEDRA AZUL - COMARCA; PEDRA AZUL-PJ-02PJ 0,00 0,00 8.810,89 0,00 0,00 0,00 469,62 2.105,00 11.385,51 876,95 2.932,58 0,00 0,00 3.809,53 7.575,98 31/08/2023
537 715500 CLARA ISABELLE SOUSA FARIA ASSESSOR PROCURADOR JUSTICA BELO HORIZONTE - COMARCA; GABINETE DE PROCURADOR DE JUSTIÇA - SALA 712 0,00 0,00 8.810,89 0,00 0,00 0,00 424,25 2.105,00 11.340,14 876,95 2.845,21 0,00 0,00 3.722,16 7.617,98 31/08/2023
538 723100 CLARA PRADO CAMPOS ASSESSOR PROCURADOR JUSTICA BELO HORIZONTE - COMARCA; GABINETE DE PROCURADOR DE JUSTIÇA - SALA 1006 0,00 0,00 8.810,89 0,00 0,00 0,00 404,18 2.105,00 11.320,07 876,95 2.757,84 0,00 0,00 3.634,79 7.685,28 31/08/2023
539 695500 CLARA RODRIGUES BLACH ASSESSOR PROCURADOR JUSTICA BELO HORIZONTE - COMARCA; GABINETE DE PROCURADOR DE JUSTIÇA - SALA 1003 0,00 0,00 8.810,89 0,00 0,00 0,00 435,76 2.105,00 11.351,65 876,95 2.845,21 0,00 0,00 3.722,16 7.629,49 31/08/2023
540 412500 CLARICE GOMES MAROTTA ANALISTA DO MP BELO HORIZONTE - COMARCA; COORD ESTADUAL DE DEFESA DOS ANIMAIS 18.130,77 7.252,31 0,00 0,00 0,00 0,00 0,00 2.105,00 27.488,08 4.422,43 6.042,62 0,00 0,00 10.465,05 17.023,03 31/08/2023
541 605300 CLARISSA AZEVEDO ROCHA OFICIAL DO MP BELO HORIZONTE - COMARCA; BH-16PJ HABITACAO URBANISMO-GAB 117PJ 7.506,70 750,67 0,00 0,00 0,00 0,00 408,47 2.105,00 10.770,84 1.673,82 1.990,00 0,00 0,00 3.663,82 7.107,02 31/08/2023
542 308100 CLARISSA DUARTE BELLONI DIRETOR-GERAL BELO HORIZONTE - COMARCA; DIRETORIA-GERAL 34.667,33 10.400,20 0,00 0,00 0,00 0,00 127,14 4.955,00 50.149,67 4.579,57 7.385,04 7.477,57 2.558,50 22.000,68 28.148,99 31/08/2023
543 730500 CLARISSA FERNANDES ABREU ASSESSOR PROMOTOR JUSTICA SANTOS DUMONT - COMARCA; SANTOS DUMONT-PJ-02PJ 0,00 0,00 8.810,89 0,00 0,00 0,00 199,86 2.105,00 11.115,75 876,95 2.757,84 0,00 0,00 3.634,79 7.480,96 31/08/2023
544 743200 CLARISSA GODINHO PRATES ASSESSOR ADMINISTRATIVO I GOVERNADOR VALADARES - COMARCA; COOR REG APOIO COM INC MOB VALE DO RIO DOCE 0,00 0,00 4.872,71 0,00 0,00 0,00 0,00 2.105,00 6.977,71 718,08 670,06 0,00 0,00 1.388,14 5.589,57 31/08/2023
545 497100 CLARISSA ROCHA GUIDI ANALISTA DO MP BELO HORIZONTE - COMARCA; BH-02PJ FAMILIA-SECRETARIA 14.960,00 2.992,00 0,00 0,00 0,00 0,00 0,00 4.005,00 21.957,00 2.653,27 3.270,05 0,00 0,00 5.923,32 16.033,68 31/08/2023
546 641800 CLARISSE TAVARES GONCALVES OFICIAL DO MP BELO HORIZONTE - COMARCA; BH-07PJ 01 TRIBUNAL JURI-SECRETARIA 7.270,07 727,01 0,00 0,00 0,00 0,00 425,78 2.105,00 10.527,86 982,16 2.075,07 0,00 0,00 3.057,23 7.470,63 31/08/2023
547 463700 CLAUDIA ADRIANA FERRAO DIAS ANALISTA DO MP SETE LAGOAS - COMARCA; SETE LAGOAS-PJ-06PJ 12.343,61 2.468,72 0,00 0,00 0,00 0,00 771,48 2.105,00 17.688,81 3.176,44 4.224,40 0,00 0,00 7.400,84 10.287,97 31/08/2023
548 415400 CLAUDIA ALMEIDA DE VASCONCELLOS BARROS OFICIAL DO MP BELO HORIZONTE - COMARCA; DIVISAO DE SERVICOS 10.858,90 2.171,78 4.020,58 0,00 0,00 0,00 982,96 2.105,00 20.139,22 2.768,03 5.241,05 0,00 0,00 8.009,08 12.130,14 31/08/2023
549 207000 CLAUDIA APARECIDA VILELA MACHADO ANALISTA DO MP BELO HORIZONTE - COMARCA; CENTRAL DE APOIO TECNICO-SETOR CONTABIL 23.070,31 11.535,16 0,00 0,00 0,00 0,00 126,89 3.489,22 38.221,58 5.317,82 7.012,73 0,00 0,00 12.330,55 25.891,03 31/08/2023
550 365700 CLAUDIA BREGUEZ CUNHA ANALISTA DO MP VARGINHA - COMARCA; VARGINHA-PJ-07PJ 20.533,67 6.160,10 0,00 0,00 0,00 0,00 0,00 3.055,00 29.748,77 4.051,95 5.341,54 0,00 0,00 9.393,49 20.355,28 31/08/2023
551 430500 CLAUDIA CECILIA SANTANA VENCESLAU OFICIAL DO MP BELO HORIZONTE - COMARCA; LAB TECNOLOGIA CONTRA LAVAGEM DINHEIRO 11.212,54 2.242,51 0,00 0,00 0,00 0,00 817,66 2.105,00 16.377,71 2.857,96 3.850,39 0,00 0,00 6.708,35 9.669,36 31/08/2023
552 213601 CLAUDIA GONCALVES CALIXTO ASSESSOR PROCURADOR JUSTICA BELO HORIZONTE - COMARCA; PROC. JUSTICA DIR. DIFUSOS E COLETIVOS-SEC 0,00 0,00 8.810,89 0,00 0,00 0,00 422,47 2.105,00 11.338,36 876,95 2.876,57 0,00 0,00 3.753,52 7.584,84 31/08/2023
553 480400 CLAUDIA GOULART DE SOUZA OFICIAL DO MP PASSOS - COMARCA; PASSOS-PJ-06PJ 10.516,49 3.154,95 0,00 0,00 0,00 0,00 0,00 2.105,00 15.776,44 1.968,38 2.333,38 0,00 0,00 4.301,76 11.474,68 31/08/2023
554 519800 CLAUDIA HELENA CORREA DE ALMEIDA ANALISTA DO MP BELO HORIZONTE - COMARCA; BH-12PJ JUIZO CRIMINAL-GAB 096PJ 12.343,61 2.468,72 0,00 0,00 0,00 0,00 936,15 2.105,00 17.853,48 3.176,44 4.371,28 0,00 0,00 7.547,72 10.305,76 31/08/2023
555 422100 CLAUDIA IACOMINI CABRAL ANALISTA DO MP BELO HORIZONTE - COMARCA; CENT DE APOIO TEC-SETOR DEF,IDOSO E INFANC 18.130,77 12.691,55 0,00 0,00 0,00 0,00 17,82 2.105,00 32.945,14 4.712,52 6.651,64 0,00 0,00 11.364,16 21.580,98 31/08/2023
556 258200 CLAUDIA LAGE MICHALAROS ANALISTA DO MP BELO HORIZONTE - COMARCA; CENTRAL DE APOIO TECN-SETOR DE MEIO AMBIENTE 23.070,31 18.456,25 0,00 77,67 0,00 6.416,66 0,00 2.105,00 50.125,89 5.795,34 9.763,75 3.936,60 0,00 19.495,69 30.630,20 31/08/2023
557 284600 CLAUDIA LENI DE FREITAS OFICIAL DO MP CONTAGEM - COMARCA; CONTAGEM-PJ-SECRETARIA 7.506,70 3.753,35 0,00 120,11 4.612,14 4.280,31 1.078,71 8.269,45 29.620,77 2.576,36 5.386,41 0,00 0,00 7.962,77 21.658,00 31/08/2023
558 433600 CLAUDIA LUIZA SANTIAGO FELICIO ANALISTA DO MP BELO HORIZONTE - COMARCA; CENT DE APOIO TEC-SETOR DEF,IDOSO E INFANC 18.130,77 3.626,15 0,00 0,00 0,00 0,00 576,04 8.196,94 30.529,90 3.575,58 4.801,07 0,00 0,00 8.376,65 22.153,25 31/08/2023
559 317000 CLAUDIA MACHADO ALVES OFICIAL DO MP BELO HORIZONTE - COMARCA; DIR GOVERNANCA TECNOLOGIA INFORMACAO 12.343,61 3.703,08 4.020,58 0,00 0,00 0,00 0,00 2.105,00 22.172,27 2.650,37 3.867,37 0,00 3.837,78 10.355,52 11.816,75 31/08/2023
560 155300 CLAUDIA MACIEL MIRANDA OFICIAL DO MP CONGONHAS - COMARCA; CONGONHAS-PJ-02PJ 22.191,68 15.534,18 0,00 0,00 0,00 0,00 551,32 8.119,40 46.396,58 5.795,34 7.754,29 135,90 0,00 13.685,53 32.711,05 31/08/2023
561 746300 CLAUDIA MAGDA SANTANA ANALISTA DO MP BELO HORIZONTE - COMARCA; DIRETORIA DE ADMINISTRACAO FINANCEIRA 7.040,78 0,00 0,00 0,00 0,00 0,00 0,00 2.105,00 9.145,78 909,81 801,06 0,00 0,00 1.710,87 7.434,91 31/08/2023
562 242200 CLAUDIA MICHELLE DIAS MUNIZ BALEEIRO OFICIAL DO MP MONTE AZUL - COMARCA; MONTE AZUL-PJ-SECRETARIA 17.559,01 8.779,51 0,00 0,00 0,00 0,00 38,63 2.105,00 28.482,15 4.557,00 6.179,53 0,00 0,00 10.736,53 17.745,62 31/08/2023
563 623000 CLAUDIA PATRICIA SILVA RODRIGUES RAPOSEIRAS OFICIAL DO MP BELO HORIZONTE - COMARCA; DIVISÃO DE EDUCAÇÃO PARA O CONSUMO 7.506,70 750,67 0,00 0,00 0,00 0,00 2.789,30 4.005,00 15.051,67 1.673,82 2.594,64 0,00 0,00 4.268,46 10.783,21 31/08/2023
564 418400 CLAUDIA REGINA MARTINS BONIFACIO OFICIAL DO MP ITUIUTABA - COMARCA; ITUIUTABA-PJ-06PJ 11.212,54 2.242,51 0,00 0,00 0,00 0,00 597,37 2.105,00 16.157,42 2.865,30 3.790,89 0,00 0,00 6.656,19 9.501,23 31/08/2023
565 498300 CLAUDIA SOUTO FARIAS BRAUN OFICIAL DO MP TEÓFILO OTONI - COMARCA; TEOFILO OTONI-PJ-SECRETARIA 7.506,70 1.501,34 0,00 0,00 0,00 0,00 557,85 2.105,00 11.670,89 1.845,90 2.141,60 0,00 0,00 3.987,50 7.683,39 31/08/2023
566 206500 CLAUDIA VALERIA FONSECA ANDRADE ANALISTA DO MP BELO HORIZONTE - COMARCA; BH-23PJ INF-FISC MED SOC FEC 23.070,31 16.149,22 0,00 137,08 0,00 9.637,25 330,72 5.575,82 54.900,40 5.795,34 10.002,03 1.629,57 0,00 17.426,94 37.473,46 31/08/2023
567 277500 CLAUDIO ANTONIO BORGES BRUNSWICK ALVARES OFICIAL DO MP BELO HORIZONTE - COMARCA; BH-15PJ M AMB PAT HIST CULT-GAB 116PJ 12.343,61 3.703,08 0,00 0,00 0,00 0,00 814,37 2.105,00 18.966,06 3.459,39 4.804,28 0,00 0,00 8.263,67 10.702,39 31/08/2023
568 444800 CLAUDIO ARESIO DO CARMO ANALISTA DO MP SETE LAGOAS - COMARCA; SETE LAGOAS-PJ-01PJ 14.960,00 5.984,00 0,00 0,00 0,00 0,00 0,00 2.105,00 23.049,00 3.131,99 3.961,21 0,00 0,00 7.093,20 15.955,80 31/08/2023
569 545100 CLAUDIO HENRIQUE MACEDO DE SOUZA FRANSOZO ANALISTA DO MP OURO PRETO - COMARCA; OURO PRETO-PJ-03PJ 12.343,61 2.468,72 0,00 0,00 520,00 0,00 718,55 3.055,00 19.105,88 982,16 4.463,06 0,00 0,00 5.445,22 13.660,66 31/08/2023
570 353500 CLAUDIO HENRIQUE PEDRO DA ROCHA OFICIAL DO MP BELO HORIZONTE - COMARCA; DIVISAO TRANSPORTES 12.343,61 3.703,08 0,00 0,00 0,00 0,00 1.005,10 2.105,00 19.156,79 3.459,39 4.700,01 0,00 0,00 8.159,40 10.997,39 31/08/2023
571 265800 CLAUDIO KUPIDLOWSKY FERNANDES OFICIAL DO MP BELO HORIZONTE - COMARCA; SECRETARIA DO PROCON-MG 12.343,61 4.937,44 0,00 0,00 0,00 0,00 0,00 2.105,00 19.386,05 2.940,91 1.972,11 0,00 0,00 4.913,02 14.473,03 31/08/2023
572 193600 CLAUDIO LEITE FONTES OFICIAL DO MP ITUIUTABA - COMARCA; ITUIUTABA-PJ-02PJ 12.343,61 6.171,81 0,00 0,00 0,00 0,00 40,73 4.005,00 22.561,15 3.138,41 3.772,76 0,00 0,00 6.911,17 15.649,98 31/08/2023
573 329400 CLAUDIO MARCIO BERNARDES OFICIAL DO MP ITAÚNA - COMARCA; ITAUNA-PJ-03PJ 12.343,61 9.874,89 0,00 0,00 0,00 0,00 0,00 3.055,00 25.273,50 3.570,92 4.594,92 0,00 0,00 8.165,84 17.107,66 31/08/2023
574 270200 CLAUDIO RABELO ALVES OFICIAL DO MP FORMIGA - COMARCA; FORMIGA-PJ-03PJ 14.960,00 5.984,00 0,00 0,00 0,00 0,00 43,88 2.105,00 23.092,88 3.610,71 4.685,21 0,00 0,00 8.295,92 14.796,96 31/08/2023
575 264700 CLAUDIO ROBERTO KFURI DE ARAUJO ANALISTA DO MP BELO HORIZONTE - COMARCA; CENTRAL DE APOIO TECNICO-SETOR DE INFORMATICA 23.070,31 9.228,12 0,00 0,00 0,00 0,00 2.307,03 2.105,00 36.710,46 5.791,94 7.749,38 0,00 0,00 13.541,32 23.169,14 31/08/2023
576 543300 CLAUDIO SILVA DE CARVALHO ANALISTA DO MP CAMPO BELO - COMARCA; CAMPO BELO-PJ-03PJ 11.577,56 1.157,76 0,00 0,00 0,00 0,00 681,47 2.105,00 15.521,79 2.942,74 3.814,27 0,00 0,00 6.757,01 8.764,78 31/08/2023
577 160700 CLAUDIO VICENTE HESS ASSESSOR DE GABINETE I BELO HORIZONTE - COMARCA; CENTRAL DE APOIO TECNICO-SETOR DE INFORMATICA 0,00 9.065,39 18.130,77 0,00 0,00 0,00 0,00 2.105,00 29.301,16 876,95 8.174,52 0,00 0,00 9.051,47 20.249,69 31/08/2023
578 312900 CLAUDIO VIEIRA FIRPE OFICIAL DO MP BELO HORIZONTE - COMARCA; DIR RELACOES INSTITUCIONAIS 12.343,61 3.703,08 0,00 0,00 0,00 0,00 1.007,18 2.105,00 19.158,87 3.459,39 4.750,74 0,00 0,00 8.210,13 10.948,74 31/08/2023
579 634100 CLEA CRISTINA GUERRA DE FREITAS COSTA OFICIAL DO MP BELO HORIZONTE - COMARCA; BH-18PJ VIOLENCIA DOMESTICA-SECRETARIA 7.270,07 727,01 0,00 0,00 0,00 0,00 610,43 4.024,30 12.631,81 1.779,07 2.087,24 0,00 0,00 3.866,31 8.765,50 31/08/2023
580 459200 CLEIA ZILLE PEREIRA ANALISTA DO MP BELO HORIZONTE - COMARCA; BH-07PJ 01 TRIBUNAL DO JURI-GAB 059PJ 12.343,61 2.468,72 0,00 0,00 0,00 0,00 866,06 3.530,00 19.208,39 3.176,44 4.224,40 0,00 0,00 7.400,84 11.807,55 31/08/2023
581 481800 CLEIDE CARDOSO DA SILVA ANALISTA DO MP MANHUAÇU - COMARCA; MANHUACU-PJ-04PJ 12.343,61 2.468,72 0,00 0,00 0,00 0,00 713,23 2.105,00 17.630,56 3.176,44 4.120,13 0,00 0,00 7.296,57 10.333,99 31/08/2023
582 347600 CLEIDIMAR DE OLIVEIRA SILVA OFICIAL DO MP PATOS DE MINAS - COMARCA; PATOS DE MINAS-PJ-03PJ 12.343,61 4.937,44 0,00 0,00 0,00 0,00 45,26 2.105,00 19.431,31 2.940,91 3.827,58 0,00 0,00 6.768,49 12.662,82 31/08/2023
583 396500 CLEIDISON BATISTA DE ANDRADE OFICIAL DO MP RESPLENDOR - COMARCA; RESPLENDOR-PJ-UNPJ 11.212,54 3.363,76 0,00 0,00 0,00 0,00 834,69 2.105,00 17.515,99 3.037,36 4.057,27 0,00 0,00 7.094,63 10.421,36 31/08/2023
584 535100 CLEISON ALVES DA SILVA ANALISTA DO MP BOA ESPERANÇA - COMARCA; BOA ESPERANCA-PJ-01PJ 12.343,61 3.703,08 0,00 0,00 0,00 0,00 809,55 2.105,00 18.961,24 3.520,81 4.605,08 0,00 0,00 8.125,89 10.835,35 31/08/2023
585 298100 CLEONICE AUGUSTA BARROS DE OLIVEIRA ANALISTA DO MP JUIZ DE FORA - COMARCA; JUIZ DE FORA-PJ-08PJ 23.070,31 6.921,09 0,00 0,00 0,00 0,00 0,00 2.105,00 32.096,40 5.098,68 6.852,75 0,00 0,00 11.951,43 20.144,97 31/08/2023
586 114301 CLERES PEREIRA DA SILVA JUNIOR ASSESSOR ADMINISTRATIVO I BELO HORIZONTE - COMARCA; GAECO - SECRETARIA 0,00 2.436,35 4.872,71 0,00 0,00 0,00 14,27 2.105,00 9.428,33 876,95 960,74 0,00 0,00 1.837,69 7.590,64 31/08/2023
587 264100 CLETO HENRIQUE ANDRADE SILVA ANALISTA DO MP BELO HORIZONTE - COMARCA; DIRETORIA DE SISTEMAS DE INFORMACAO 23.070,31 9.228,12 0,00 0,00 0,00 0,00 473,71 7.272,75 40.044,89 5.348,01 7.108,45 0,00 0,00 12.456,46 27.588,43 31/08/2023
588 334400 CLEUBA DE OLIVEIRA BARCELOS GONCALVES OFICIAL DO MP DIVINÓPOLIS - COMARCA; COORD REG SAUDE MACRORREGIAO SANITARIA OESTE 12.343,61 3.703,08 0,00 0,00 0,00 0,00 4.682,77 2.105,00 22.834,46 3.459,39 5.607,55 0,00 0,00 9.066,94 13.767,52 31/08/2023
589 347500 CLEUSA CORDEIRO DA MATA PIMENTA OFICIAL DO MP CAMPO BELO - COMARCA; CAMPO BELO-PJ-01PJ 12.343,61 11.109,25 0,00 0,00 0,00 7.570,73 123,38 2.105,00 33.251,97 4.878,74 8.078,02 0,00 0,00 12.956,76 20.295,21 31/08/2023
590 510200 CLEZIO SALES SILVA OFICIAL DO MP BRASÓPOLIS - COMARCA; BRASOPOLIS-PJ-UNPJ 7.506,70 1.501,34 0,00 0,00 0,00 0,00 557,85 3.055,00 12.620,89 1.845,90 2.245,87 0,00 0,00 4.091,77 8.529,12 31/08/2023
591 323000 CLOTILDE DE PADUA VIEIRA OFICIAL DO MP BELO HORIZONTE - COMARCA; BH-19PJ SAUDE-SECRETARIA 129PJ 12.343,61 3.703,08 0,00 0,00 0,00 0,00 0,00 2.105,00 18.151,69 2.348,42 3.421,21 0,00 0,00 5.769,63 12.382,06 31/08/2023
592 285200 CLOVIS ANDRE LUDTKE OFICIAL DO MP BELO HORIZONTE - COMARCA; DIVISAO DE MANUTENCAO PREDIAL 13.160,57 3.948,17 0,00 0,00 0,00 0,00 61,08 2.105,00 19.274,82 3.237,57 4.527,92 0,00 0,00 7.765,49 11.509,33 31/08/2023
593 381100 CONCEICAO APARECIDA TEIXEIRA ARANTES ANALISTA DO MP BELO HORIZONTE - COMARCA; BH-23PJ INFRACIONAL-ASS JURIDICA 18.999,41 5.699,82 0,00 0,00 0,00 0,00 2.540,49 3.055,00 30.294,72 4.139,30 5.415,52 0,00 0,00 9.554,82 20.739,90 31/08/2023
594 249900 CONSTANTINO CEZAR GOMES MOTA OFICIAL DO MP MONTES CLAROS - COMARCA; COORD REG BACIA RIOS VERDE GRANDE E PARDO 12.343,61 4.937,44 0,00 0,00 0,00 0,00 0,00 4.005,00 21.286,05 3.660,82 4.944,84 0,00 0,00 8.605,66 12.680,39 31/08/2023
595 481000 CRISHMA ANALIA LOMBELLO ANALISTA DO MP JUIZ DE FORA - COMARCA; JUIZ DE FORA-PJ-13PJ 12.343,61 2.468,72 0,00 0,00 0,00 0,00 732,49 2.105,00 17.649,82 3.176,44 4.172,26 0,00 0,00 7.348,70 10.301,12 31/08/2023
596 523900 CRISTHYANE BAZOLI COSTA GUEDES COUTO OFICIAL DO MP BELO HORIZONTE - COMARCA; BH-04PJ JUIZO REG PÚBLICOS-SECRETARIA 9.699,77 1.939,95 0,00 0,00 0,00 0,00 707,35 2.105,00 14.452,07 2.442,82 3.264,70 0,00 0,00 5.707,52 8.744,55 31/08/2023
597 187000 CRISTIAN DAYVSON EVANGELISTA OFICIAL DO MP JUIZ DE FORA - COMARCA; JUIZ DE FORA-PJ-13PJ 20.533,67 8.213,47 0,00 0,00 0,00 0,00 1.771,66 2.105,00 32.623,80 4.380,49 6.250,94 0,00 0,00 10.631,43 21.992,37 31/08/2023
598 682100 CRISTIAN TRISTAO DE ANDRADE ASSESSOR PROMOTOR JUSTICA TRÊS CORACOES - COMARCA; TRES CORACOES-PJ-04PJ 0,00 0,00 8.810,89 0,00 0,00 0,00 472,63 2.105,00 11.388,52 876,95 2.932,58 0,00 0,00 3.809,53 7.578,99 31/08/2023
599 319800 CRISTIANA GONCALVES DOS SANTOS GUSMAO OFICIAL DO MP SETE LAGOAS - COMARCA; SETE LAGOAS-PJ-04PJ 12.343,61 3.703,08 0,00 0,00 0,00 0,00 1.146,47 5.956,21 23.149,37 3.459,39 4.804,28 0,00 0,00 8.263,67 14.885,70 31/08/2023
600 520600 CRISTIANA JANAINA BARBOZA JUVENCIO DOS SANTOS ANALISTA DO MP BELO HORIZONTE - COMARCA; BH-02PJ FAMILIA-SECRETARIA 12.343,61 2.468,72 0,00 0,00 0,00 0,00 917,17 2.105,00 17.834,50 3.176,44 4.224,40 0,00 0,00 7.400,84 10.433,66 31/08/2023
601 195600 CRISTIANA SOARES HALABI OFICIAL DO MP UBERABA - COMARCA; UBERABA-PJ-01PJ 20.533,67 8.213,47 0,00 0,00 0,00 0,00 0,00 2.105,00 30.852,14 4.380,49 6.217,33 0,00 0,00 10.597,82 20.254,32 31/08/2023
602 218900 CRISTIANE ALVES BELLES OFICIAL DO MP JUIZ DE FORA - COMARCA; JUIZ DE FORA-PJ-10PJ 7.506,70 3.002,68 0,00 0,00 0,00 0,00 666,53 3.530,00 14.705,91 2.190,05 2.653,36 0,00 0,00 4.843,41 9.862,50 31/08/2023
603 263600 CRISTIANE CARVALHO COUTINHO OFICIAL DO MP BELO HORIZONTE - COMARCA; BH-23PJ INFRACIONAL-SEC EXP 13.588,97 5.435,59 0,00 0,00 0,00 0,00 0,00 2.105,00 21.129,56 3.259,73 4.474,40 0,00 0,00 7.734,13 13.395,43 31/08/2023
604 541000 CRISTIANE COELHO ALVES OFICIAL DO MP ITABIRA - COMARCA; ITABIRA-PJ-03PJ 7.506,70 1.501,34 0,00 0,00 0,00 0,00 567,14 2.105,00 11.680,18 1.951,09 2.420,05 0,00 0,00 4.371,14 7.309,04 31/08/2023
605 441700 CRISTIANE CORRADO DE ANDRADE ANALISTA DO MP BELO HORIZONTE - COMARCA; DIRETORIA DE SISTEMAS DE INFORMACAO 18.130,77 3.626,15 4.020,58 0,00 0,00 0,00 15,09 2.105,00 27.897,59 3.262,06 5.558,36 0,00 0,00 8.820,42 19.077,17 31/08/2023
606 375100 CRISTIANE DAS DORES ERCIO DE LIMA OFICIAL DO MP GOVERNADOR VALADARES - COMARCA; GOVERNADOR VALADARES-PJ-12PJ 11.577,56 3.473,27 0,00 0,00 0,00 0,00 0,00 2.105,00 17.155,83 2.189,08 2.652,02 0,00 0,00 4.841,10 12.314,73 31/08/2023
607 178800 CRISTIANE DE LIMA HOSKEN OFICIAL DO MP BELO HORIZONTE - COMARCA; BH-14PJ DEFESA CONSUMIDOR-GAB 110PJ 21.346,53 8.538,61 0,00 0,00 0,00 0,00 0,00 2.105,00 31.990,14 4.562,57 6.443,88 0,00 0,00 11.006,45 20.983,69 31/08/2023
608 494000 CRISTIANE DE MELO MARQUEZ OLIVEIRA ANALISTA DO MP UBERLÂNDIA - COMARCA; UBERLANDIA-PJ-06PJ 15.447,01 4.016,22 0,00 0,00 0,00 0,00 0,00 3.055,00 22.518,23 3.360,27 4.735,23 0,00 0,00 8.095,50 14.422,73 31/08/2023
609 266100 CRISTIANE DE OLIVEIRA CASTRO OFICIAL DO MP BELO HORIZONTE - COMARCA; BH-14PJ DEFESA CONSUMIDOR-SECRETARIA 17.559,01 7.023,60 0,00 0,00 0,00 0,00 1.771,66 2.105,00 28.459,27 3.714,17 5.236,79 0,00 0,00 8.950,96 19.508,31 31/08/2023
610 329500 CRISTIANE DOS REIS SILVA OFICIAL DO MP ARAXÁ - COMARCA; ARAXA-PJ-04PJ 12.343,61 3.703,08 0,00 0,00 0,00 0,00 905,30 2.105,00 19.056,99 3.459,39 4.540,89 0,00 0,00 8.000,28 11.056,71 31/08/2023
611 301600 CRISTIANE GODINHO PIRES ANALISTA DO MP BETIM - COMARCA; BETIM-PJ-06PJ 23.070,31 6.921,09 0,00 0,00 0,00 0,00 0,00 2.105,00 32.096,40 5.098,68 6.852,75 0,00 0,00 11.951,43 20.144,97 31/08/2023
612 406100 CRISTIANE GONCALVES CHAVES ANALISTA DO MP BELO HORIZONTE - COMARCA; BH-06PJ JUIZO CIVEL-SECRETARIA 18.720,84 7.488,34 0,00 0,00 0,00 0,00 0,00 2.105,00 28.314,18 4.573,49 6.547,38 0,00 0,00 11.120,87 17.193,31 31/08/2023
613 487600 CRISTIANE LOPES DE OLIVEIRA OFICIAL DO MP DIVINÓPOLIS - COMARCA; DIVINOPOLIS-PJ-03PJ 8.810,89 1.762,18 0,00 0,00 0,00 0,00 786,79 2.105,00 13.464,86 2.735,81 3.546,20 0,00 0,00 6.282,01 7.182,85 31/08/2023
614 502500 CRISTIANE MACIEL DE OLIVEIRA GOMES ANALISTA DO MP JUIZ DE FORA - COMARCA; JUIZ DE FORA-PJ-02PJ 12.343,61 2.468,72 0,00 0,00 0,00 0,00 917,17 3.055,00 18.784,50 3.176,44 4.224,40 0,00 0,00 7.400,84 11.383,66 31/08/2023
615 285500 CRISTIANE MAGALHAES LOURENCO ANALISTA DO MP BELO HORIZONTE - COMARCA; CENTRAL DE APOIO TECNICO-SETOR CONTABIL 23.070,31 6.921,09 0,00 0,00 0,00 0,00 0,00 2.105,00 32.096,40 4.579,57 6.051,16 0,00 0,00 10.630,73 21.465,67 31/08/2023
616 536500 CRISTIANE MICHELE DE SOUZA ANALISTA DO MP BARÃO DE COCAIS - COMARCA; BARAO DE COCAIS-PJ-UNPJ 12.343,61 2.468,72 0,00 0,00 520,00 0,00 727,85 2.105,00 18.165,18 3.323,31 4.319,94 0,00 0,00 7.643,25 10.521,93 31/08/2023
617 346600 CRISTIANE NOGUEIRA ANDRADE ANALISTA DO MP BELO HORIZONTE - COMARCA; CENTRAL DE APOIO TECNICO-SETOR CONTABIL 21.346,53 6.403,96 0,00 0,00 0,00 0,00 0,00 2.105,00 29.855,49 4.221,03 5.585,64 0,00 0,00 9.806,67 20.048,82 31/08/2023
618 234000 CRISTIANE OLIVEIRA TOSTES OFICIAL DO MP JUIZ DE FORA - COMARCA; JUIZ DE FORA-PJ-08PJ 18.720,84 7.488,34 0,00 0,00 0,00 0,00 0,00 4.005,00 30.214,18 4.573,49 6.266,11 0,00 0,00 10.839,60 19.374,58 31/08/2023
619 445800 CRISTIANE ORZIL COSTA OFICIAL DO MP SANTA LUZIA - COMARCA; SANTA LUZIA-PJ-05PJ 9.097,81 1.819,56 0,00 0,00 0,00 0,00 677,49 4.005,00 15.599,86 2.277,63 3.119,21 0,00 0,00 5.396,84 10.203,02 31/08/2023
620 616100 CRISTIANE PAES RODRIGUES MARCICANO ANALISTA DO MP CATAGUASES - COMARCA; CATAGUASES-PJ-05PJ 10.516,49 1.051,65 0,00 0,00 0,00 0,00 711,84 3.055,00 15.334,98 2.432,77 3.118,55 0,00 0,00 5.551,32 9.783,66 31/08/2023
621 612300 CRISTIANE RIBEIRO DOS REIS ARCANJO OFICIAL DO MP BELO HORIZONTE - COMARCA; DIRETORIA DE PAGAMENTO DE PESSOAL-DPAG 7.506,70 750,67 0,00 0,00 307,15 0,00 422,90 0,00 8.987,42 2.347,32 1.801,17 0,00 0,00 4.148,49 4.838,93 31/08/2023
622 257700 CRISTIANE RODRIGUES PAES NUNES ANALISTA DO MP BELO HORIZONTE - COMARCA; BH-22PJ PES COM DEF E IDOSOS-ORIENTACAO PSIC 23.070,31 9.228,12 0,00 0,00 0,00 0,00 42,30 3.055,00 35.395,73 5.686,95 7.649,93 0,00 0,00 13.336,88 22.058,85 31/08/2023
623 510800 CRISTIANE SANTOS FERNANDES ORNELES ANALISTA DO MP BELO HORIZONTE - COMARCA; BH-03PJ EMPRESARIAL-SECRETARIA 12.343,61 2.468,72 0,00 0,00 0,00 0,00 936,68 2.105,00 17.854,01 3.176,44 4.224,40 0,00 0,00 7.400,84 10.453,17 31/08/2023
624 535701 CRISTIANE SANTOS MIRANDA ANALISTA DO MP CONTAGEM - COMARCA; CONTAGEM-PJ-03PJ 10.341,72 1.654,67 0,00 0,00 0,00 0,00 549,09 2.105,00 14.650,48 2.481,76 3.315,36 0,00 0,00 5.797,12 8.853,36 31/08/2023
625 536200 CRISTIANO DE OLIVEIRA ANALISTA DO MP CONCEIÇÃO DO MATO DENTRO - COMARCA; CONCEICAO DO MATO DENTRO-PJ-UNPJ 12.343,61 2.468,72 0,00 0,00 0,00 0,00 785,66 4.005,00 19.602,99 3.133,71 4.046,19 0,00 0,00 7.179,90 12.423,09 31/08/2023
626 477400 CRISTIANO SOARES ELEUTERIO ANALISTA DO MP BELO HORIZONTE - COMARCA; GABINETE DE PROCURADOR DE JUSTIÇA - SALA 812 15.447,01 3.089,40 0,00 0,00 0,00 0,00 0,00 2.105,00 20.641,41 3.067,61 3.920,40 0,00 0,00 6.988,01 13.653,40 31/08/2023
627 449400 CRISTIANO TEIXEIRA RODRIGUES LANA ANALISTA DO MP BELO HORIZONTE - COMARCA; BH-18PJ VIOLENCIA DOMESTICA-SECRETARIA 13.588,97 3.533,13 0,00 0,00 0,00 0,00 55,33 2.105,00 19.282,43 3.084,98 4.107,17 0,00 0,00 7.192,15 12.090,28 31/08/2023
628 239400 CRISTINA DE FATIMA CRUZ E SILVA OFICIAL DO MP MONTE SANTO DE MINAS - COMARCA; MONTE SANTO DE MINAS-PJ-SECRETARIA 17.559,01 7.023,60 0,00 0,00 0,00 0,00 0,00 2.105,00 26.687,61 4.276,06 5.826,05 0,00 0,00 10.102,11 16.585,50 31/08/2023
629 544000 CRISTINA DE OLIVEIRA TERRA ANALISTA DO MP BELO HORIZONTE - COMARCA; BH-18PJ VIOLENCIA DOMESTICA-SECRETARIA 12.343,61 2.468,72 0,00 0,00 0,00 0,00 977,04 5.067,47 20.856,84 3.266,00 4.341,46 0,00 0,00 7.607,46 13.249,38 31/08/2023
630 356800 CRISTINA DE PINHO BARROSO OFICIAL DO MP SABINÓPOLIS - COMARCA; SABINOPOLIS-PJ-UNPJ 10.516,49 4.206,60 0,00 0,00 0,00 0,00 0,00 3.055,00 17.778,09 2.652,17 3.396,04 0,00 0,00 6.048,21 11.729,88 31/08/2023
631 649500 CRISTINA DO DIVINO ESPIRITO SANTOS OFICIAL DO MP DIVINÓPOLIS - COMARCA; DIVINOPOLIS-PJ-12PJ 6.603,76 660,38 0,00 0,00 0,00 0,00 444,51 2.105,00 9.813,65 1.446,14 1.651,43 0,00 0,00 3.097,57 6.716,08 31/08/2023
632 727100 CRISTINA DORNELLES CLARET ASSESSOR ADMINISTRATIVO III BELO HORIZONTE - COMARCA; CAO-MEIO AMBIENTE 0,00 0,00 10.858,90 0,00 0,00 0,00 356,23 2.105,00 13.320,13 876,95 3.564,75 0,00 0,00 4.441,70 8.878,43 31/08/2023
633 348201 CRISTINA MARIA DA SILVA ANALISTA DO MP BELO HORIZONTE - COMARCA; CENT ESTAD COOPERACAO TECNICO-JURIDICA 12.343,61 2.468,72 0,00 0,00 0,00 0,00 794,91 3.530,00 19.137,24 3.176,44 4.224,40 0,00 0,00 7.400,84 11.736,40 31/08/2023
634 434900 CRISTINA MELO DE MADUREIRA ANALISTA DO MP BELO HORIZONTE - COMARCA; BH-07PJ 01 TRIBUNAL JURI-SECRETARIA 18.130,77 3.626,15 0,00 0,00 0,00 0,00 0,00 2.105,00 23.861,92 3.569,72 4.896,90 0,00 0,00 8.466,62 15.395,30 31/08/2023
635 307700 CRISTINA TEIXEIRA MARQUES OFICIAL DO MP BELO HORIZONTE - COMARCA; CENTRAL DE APOIO TECNICO-SETOR CONTABIL 12.343,61 3.703,08 0,00 0,00 0,00 0,00 294,19 5.314,34 21.655,22 2.348,42 2.882,06 0,00 0,00 5.230,48 16.424,74 31/08/2023
636 743100 CRISTOVAO JOSE DOS SANTOS JUNIOR ANALISTA DO MP BELO HORIZONTE - COMARCA; CGMP-DIR ESTAGIO PROBATORIO E ORIENT 7.040,78 0,00 0,00 0,00 0,00 0,00 0,00 2.105,00 9.145,78 909,81 801,06 0,00 0,00 1.710,87 7.434,91 31/08/2023
637 265300 CRISTOVAO SANCHES DE MEDEIROS ANALISTA DO MP BELO HORIZONTE - COMARCA; DIRETORIA DE CONTABILIDADE 22.191,68 8.876,67 0,00 0,00 0,00 0,00 0,00 2.105,00 33.173,35 4.751,88 6.352,07 0,00 0,00 11.103,95 22.069,40 31/08/2023
638 349800 CROZEIR LUIZ DA SILVA OFICIAL DO MP UNAÍ - COMARCA; UNAI-PJ-SECRETARIA 12.343,61 3.703,08 0,00 0,00 0,00 0,00 102,30 2.105,00 18.253,99 3.172,89 4.359,88 0,00 0,00 7.532,77 10.721,22 31/08/2023
639 490500 CYNTHIA CRISTINA DE SOUZA OLIVEIRA VALENTE ANALISTA DO MP BELO HORIZONTE - COMARCA; BH-09PJ AUDITORIA MILITAR-SECRETARIA 12.343,61 2.468,72 0,00 0,00 0,00 0,00 854,72 2.105,00 17.772,05 3.176,44 4.224,40 0,00 0,00 7.400,84 10.371,21 31/08/2023
640 389800 CYNTHIA GARIGLIO DOS SANTOS OFICIAL DO MP PERDIZES - COMARCA; PERDIZES-PJ-SECRETARIA 10.858,90 3.257,67 0,00 0,00 0,00 0,00 0,00 2.105,00 16.221,57 2.039,60 2.279,80 0,00 0,00 4.319,40 11.902,17 31/08/2023
641 335101 CYNTHIA GONTIJO D ASSUNCAO ANALISTA DO MP BELO HORIZONTE - COMARCA; FEPDC-SECRETARIA EXECUTIVA 12.343,61 3.703,08 4.020,58 0,00 0,00 0,00 875,29 3.276,67 24.219,23 3.373,94 6.133,50 0,00 0,00 9.507,44 14.711,79 31/08/2023
642 269700 CYNTIA ROCHA CAVALCANTI OFICIAL DO MP UBERLÂNDIA - COMARCA; UBERLANDIA-PJ-06PJ 17.559,01 5.267,70 0,00 0,00 0,00 0,00 0,00 3.055,00 25.881,71 3.433,22 4.448,25 0,00 0,00 7.881,47 18.000,24 31/08/2023
643 278000 DAIRTON LOPES MARTINS FILHO COORDENADOR II BELO HORIZONTE - COMARCA; DIRETORIA DE SISTEMAS DE INFORMACAO 20.533,67 6.160,10 0,00 0,00 0,00 0,00 58,63 2.105,00 28.857,40 3.272,48 7.408,82 0,00 0,00 10.681,30 18.176,10 31/08/2023
644 392700 DALIANA CHAVES IBRAIM MARINHO OFICIAL DO MP ITAÚNA - COMARCA; ITAUNA-PJ-04PJ 9.393,95 1.878,79 0,00 0,00 0,00 0,00 678,57 2.105,00 14.056,31 2.358,89 3.135,75 0,00 0,00 5.494,64 8.561,67 31/08/2023
645 558101 DALLEY TASSIA SILVA ANALISTA DO MP MORADA NOVA DE MINAS - COMARCA; MORADA NOVA DE MINAS-PJ-UNPJ 11.577,56 1.157,76 0,00 0,00 0,00 0,00 651,87 3.055,00 16.442,19 2.790,66 3.542,56 0,00 0,00 6.333,22 10.108,97 31/08/2023
646 476700 DALTON DAUD ANALISTA DO MP ARAGUARI - COMARCA; ARAGUARI-PJ-05PJ 12.343,61 2.468,72 0,00 0,00 0,00 0,00 917,17 2.105,00 17.834,50 3.176,44 4.120,13 0,00 0,00 7.296,57 10.537,93 31/08/2023
647 426900 DANIEL ALVES DA SILVA OFICIAL DO MP BELO HORIZONTE - COMARCA; DIVISÃO DE FISCALIZAÇÃO DAS RELAÇÕES DE CONSU 7.506,70 1.501,34 0,00 0,00 0,00 0,00 5.454,24 2.105,00 16.567,28 1.845,90 3.489,53 0,00 0,00 5.335,43 11.231,85 31/08/2023
648 536302 DANIEL BATISTA MARIANO OFICIAL DO MP LAGOA SANTA - COMARCA; LAGOA SANTA-PJ-SECRETARIA 4.570,25 0,00 0,00 0,00 0,00 0,00 0,00 2.105,00 6.675,25 526,88 257,78 0,00 0,00 784,66 5.890,59 31/08/2023
649 714000 DANIEL FERREIRA CAMARA ASSESSOR PROMOTOR JUSTICA RIBEIRÃO DAS NEVES - COMARCA; RIBEIRAO DAS NEVES-PJ-12PJ 0,00 0,00 8.810,89 0,00 0,00 0,00 424,25 2.105,00 11.340,14 876,95 2.845,21 0,00 0,00 3.722,16 7.617,98 31/08/2023
650 411000 DANIEL FERREIRA DA SILVA ANALISTA DO MP GOVERNADOR VALADARES - COMARCA; GOVERNADOR VALADARES-PJ-15PJ 17.559,01 7.023,60 0,00 0,00 0,00 0,00 553,70 10.379,83 35.516,14 4.276,06 5.617,50 0,00 0,00 9.893,56 25.622,58 31/08/2023
651 703500 DANIEL FILIPE DE DEUS SOARES ASSESSOR PROMOTOR JUSTICA ITABIRITO - COMARCA; ITABIRITO-PJ-02PJ 0,00 0,00 8.810,89 0,00 0,00 0,00 469,35 2.105,00 11.385,24 876,95 2.932,58 0,00 0,00 3.809,53 7.575,71 31/08/2023
652 309000 DANIEL GOMES DOS SANTOS ANALISTA DO MP POÇOS DE CALDAS - COMARCA; POCOS DE CALDAS-PJ-05PJ 23.070,31 6.921,09 0,00 0,00 0,00 0,00 0,00 2.105,00 32.096,40 4.579,57 6.522,11 0,00 0,00 11.101,68 20.994,72 31/08/2023
653 554500 DANIEL GOMES PEREIRA OFICIAL DO MP NANUQUE - COMARCA; NANUQUE-PJ-02PJ 7.506,70 1.501,34 0,00 0,00 0,00 0,00 511,20 2.105,00 11.624,24 1.793,93 2.163,40 0,00 0,00 3.957,33 7.666,91 31/08/2023
654 453000 DANIEL GONCALVES PEREIRA ANALISTA DO MP UNAÍ - COMARCA; UNAI-PJ-02PJ 12.343,61 3.209,34 0,00 0,00 0,00 0,00 917,17 4.480,00 20.950,12 3.294,94 4.395,48 0,00 0,00 7.690,42 13.259,70 31/08/2023
655 495500 DANIEL GUIMARAES CABRAL OFICIAL DO MP BELO HORIZONTE - COMARCA; BH-17PJ PATRIMONIO PUBLICO-SECRETARIA 10.015,59 2.003,12 0,00 0,00 0,00 0,00 0,00 3.055,00 15.073,71 1.703,94 2.355,43 0,00 0,00 4.059,37 11.014,34 31/08/2023
656 442900 DANIEL GUIMARAES GONCALVES ANALISTA DO MP UBERLÂNDIA - COMARCA; UBERLANDIA-PJ-03PJ 17.559,01 3.511,80 0,00 0,00 0,00 0,00 0,00 2.105,00 23.175,81 982,16 3.841,91 0,00 0,00 4.824,07 18.351,74 31/08/2023
657 655900 DANIEL LUIZ DA SILVA ASSESSOR ADMINISTRATIVO II BELO HORIZONTE - COMARCA; DIV FISCAL ADM CONT TERCEIRIZACAO 0,00 0,00 7.506,70 0,00 0,00 0,00 395,37 2.105,00 10.007,07 876,95 2.392,87 0,00 0,00 3.269,82 6.737,25 31/08/2023
658 464600 DANIEL PIACENTINI STIVANIN ANALISTA DO MP ANDRADAS - COMARCA; ANDRADAS-PJ-02PJ 12.343,61 2.468,72 0,00 0,00 0,00 0,00 955,94 2.105,00 17.873,27 3.176,44 4.371,28 0,00 0,00 7.547,72 10.325,55 31/08/2023
659 417000 DANIEL QUEIROZ FERREIRA ANALISTA DO MP PASSOS - COMARCA; PASSOS-PJ-06PJ 17.559,01 3.511,80 0,00 0,00 0,00 0,00 0,00 3.055,00 24.125,81 982,16 3.302,85 0,00 0,00 4.285,01 19.840,80 31/08/2023
660 396700 DANIEL SILVA CARNEVALLI SUPERINTENDENTE BELO HORIZONTE - COMARCA; SUPERINTENDENCIA DE TECNOLOGIA DA INFORMACAO 28.013,39 8.404,02 0,00 0,00 0,00 0,00 0,00 3.055,00 39.472,41 3.674,88 7.838,84 0,00 1.019,61 12.533,33 26.939,08 31/08/2023
661 489300 DANIEL TABOZA ROCHA ANALISTA DO MP IPATINGA - COMARCA; IPATINGA-PJ-08PJ 12.343,61 2.468,72 0,00 0,00 0,00 0,00 732,70 3.055,00 18.600,03 982,16 4.313,62 0,00 0,00 5.295,78 13.304,25 31/08/2023
662 414100 DANIEL TARDELI VALADAO ANALISTA DO MP TRÊS CORACOES - COMARCA; TRES CORACOES-PJ-02PJ 17.559,01 3.511,80 0,00 0,00 0,00 0,00 0,00 5.905,00 26.975,81 982,16 3.752,84 0,00 0,00 4.735,00 22.240,81 31/08/2023
663 731800 DANIEL VASCONCELOS ARAUJO SILVA ASSESSOR ADMINISTRATIVO IV BELO HORIZONTE - COMARCA; DIRETORIA DE REDES E BANCOS DE DADOS 0,00 0,00 14.488,22 0,00 0,00 0,00 228,26 2.105,00 16.821,48 876,95 4.994,68 0,00 0,00 5.871,63 10.949,85 31/08/2023
664 446601 DANIEL VIEIRA BUENO ANALISTA DO MP SÃO DOMINGOS DO PRATA - COMARCA; SAO DOMINGOS DO PRATA-PJ-UNPJ 12.343,61 2.468,72 0,00 0,00 0,00 0,00 0,00 3.055,00 17.867,33 2.150,92 2.544,79 0,00 0,00 4.695,71 13.171,62 31/08/2023
665 253200 DANIELA BATISTA LIMA BARBOSA ASSESSOR ADMINISTRATIVO II BELO HORIZONTE - COMARCA; CENTRAL DE APOIO TECN-SETOR DE MEIO AMBIENTE 0,00 3.002,68 7.506,70 0,00 0,00 0,00 469,42 2.105,00 13.083,80 876,95 3.960,82 0,00 0,00 4.837,77 8.246,03 31/08/2023
666 505800 DANIELA BORGES DE MATTOS RESENDE ANALISTA DO MP JUIZ DE FORA - COMARCA; JUIZ DE FORA-PJ-20PJ 12.343,61 2.468,72 0,00 0,00 0,00 0,00 917,17 2.105,00 17.834,50 3.176,44 4.224,40 0,00 0,00 7.400,84 10.433,66 31/08/2023
667 478000 DANIELA CARVALHO SOARES ANALISTA DO MP SÃO JOÃO DEL REI - COMARCA; SAO JOAO DEL REI-PJ-01PJ 12.343,61 2.468,72 0,00 0,00 0,00 0,00 732,70 2.105,00 17.650,03 3.176,44 4.224,40 0,00 0,00 7.400,84 10.249,19 31/08/2023
668 275900 DANIELA CHAGAS SODRE ANALISTA DO MP BELO HORIZONTE - COMARCA; CENTRAL DE APOIO TECNICO-SETOR CONTABIL 23.070,31 6.921,09 0,00 0,00 0,00 0,00 0,00 2.105,00 32.096,40 4.579,57 6.051,16 0,00 0,00 10.630,73 21.465,67 31/08/2023
669 234301 DANIELA CRUZ SOARES ANALISTA DO MP BELO HORIZONTE - COMARCA; LABORATORIO TECNOLOGIA INTELIGENCIA 23.070,31 9.228,12 0,00 0,00 0,00 0,00 42,30 2.105,00 34.445,73 5.686,95 7.913,54 0,00 0,00 13.600,49 20.845,24 31/08/2023
670 638000 DANIELA DE ALMEIDA BATISTA ANALISTA DO MP ANDRELÂNDIA - COMARCA; ANDRELANDIA-PJ-UNPJ 11.212,54 1.121,25 0,00 0,00 0,00 0,00 0,00 3.055,00 15.388,79 982,16 2.374,37 0,00 0,00 3.356,53 12.032,26 31/08/2023
671 301000 DANIELA DE ALMEIDA E OLIVEIRA ANALISTA DO MP BELO HORIZONTE - COMARCA; DIRETORIA DE SISTEMAS DE INFORMACAO 23.070,31 6.921,09 0,00 182,75 0,00 9.397,34 0,00 2.105,00 41.676,49 4.579,57 7.530,59 0,00 0,00 12.110,16 29.566,33 31/08/2023
672 296000 DANIELA DE AZEVEDO SILVA ANALISTA DO MP BRASÓPOLIS - COMARCA; BRASOPOLIS-PJ-UNPJ 23.070,31 9.228,12 0,00 0,00 0,00 0,00 0,00 2.105,00 34.403,43 4.948,70 6.636,22 0,00 0,00 11.584,92 22.818,51 31/08/2023
673 453500 DANIELA DE CASTRO SOUSA BARBOSA ANALISTA DO MP BELO HORIZONTE - COMARCA; BH-08PJ JUIZADO ESPECIAL-SECRETARIA 13.588,97 3.533,13 0,00 0,00 0,00 0,00 64,68 2.105,00 19.291,78 3.312,04 4.618,40 0,00 0,00 7.930,44 11.361,34 31/08/2023
674 506000 DANIELA DE OLIVEIRA CAVALIERI ANALISTA DO MP BELO HORIZONTE - COMARCA; BH-14PJ DEFESA CONSUMIDOR-GAB 005PJ 12.343,61 2.468,72 0,00 0,00 0,00 0,00 713,23 2.105,00 17.630,56 3.176,44 4.224,40 0,00 0,00 7.400,84 10.229,72 31/08/2023
675 546200 DANIELA DE VILHENA LEMES GONCALVES OFICIAL DO MP TRÊS CORACOES - COMARCA; TRES CORACOES-PJ-05PJ 7.506,70 750,67 0,00 0,00 0,00 0,00 598,83 3.080,11 11.936,31 1.830,98 2.194,51 0,00 0,00 4.025,49 7.910,82 31/08/2023
676 356400 DANIELA LEAL FERRAZ ANALISTA DO MP MONTES CLAROS - COMARCA; COORD REG PJ DEF EDUC DIR CRIANCA ADOL NORTE 20.533,67 6.160,10 0,00 0,00 0,00 0,00 0,00 3.055,00 29.748,77 4.051,95 5.341,54 0,00 0,00 9.393,49 20.355,28 31/08/2023
677 501000 DANIELA LOURENCO SANTOS DA SILVA GUIMARAES ANALISTA DO MP BELO HORIZONTE - COMARCA; BH-12PJ JUIZO CRIMINAL-GAB 095PJ 12.343,61 2.468,72 0,00 0,00 0,00 0,00 917,17 2.105,00 17.834,50 3.176,44 4.172,26 0,00 0,00 7.348,70 10.485,80 31/08/2023
678 195801 DANIELA MARIA DE OLIVEIRA QUEIROZ ANALISTA DO MP ARAGUARI - COMARCA; ARAGUARI-PJ-06PJ 18.130,77 7.252,31 0,00 0,00 0,00 0,00 0,00 2.105,00 27.488,08 3.842,24 5.332,27 0,00 0,00 9.174,51 18.313,57 31/08/2023
679 511400 DANIELA MARIA LARA DE OLIVEIRA ANALISTA DO MP BOA ESPERANÇA - COMARCA; BOA ESPERANCA-PJ-02PJ 12.343,61 3.703,08 0,00 0,00 0,00 0,00 917,17 3.055,00 20.018,86 3.373,94 4.457,40 0,00 0,00 7.831,34 12.187,52 31/08/2023
680 252101 DANIELA PAULA ALVES PENA ANALISTA DO MP CONTAGEM - COMARCA; CONTAGEM-PJ-APO TECNICO 18.720,84 7.488,34 0,00 0,00 0,00 0,00 0,00 2.105,00 28.314,18 3.974,42 5.229,60 0,00 0,00 9.204,02 19.110,16 31/08/2023
681 604700 DANIELA PEIXOTO NOGUEIRA COORDENADOR II BELO HORIZONTE - COMARCA; DIRET DE FORMACAO, APERFEIC. E POS-GRADUACAO 20.533,67 2.053,37 0,00 0,00 0,00 0,00 0,00 3.055,00 25.642,04 2.591,30 7.397,37 0,00 0,00 9.988,67 15.653,37 31/08/2023
682 662000 DANIELA RIBAS DE AVILA ASSESSOR ADMINISTRATIVO III BELO HORIZONTE - COMARCA; JUNTA RECURSAL DO PROCON ESTADUAL 0,00 0,00 10.858,90 0,00 0,00 0,00 540,82 2.105,00 13.504,72 876,95 3.672,43 0,00 0,00 4.549,38 8.955,34 31/08/2023
683 462000 DANIELA SOUSA GOMES DO AMARAL ANALISTA DO MP BETIM - COMARCA; BETIM-PJ-04PJ 14.960,00 2.992,00 0,00 0,00 0,00 0,00 0,00 2.105,00 20.057,00 2.653,27 3.729,88 0,00 0,00 6.383,15 13.673,85 31/08/2023
684 427000 DANIELA TEIXEIRA DINIZ ANDRADE ANALISTA DO MP BELO HORIZONTE - COMARCA; DIRETORIA DE PROJETOS DE EDIFICACOES 13.160,57 2.632,11 4.020,58 0,00 0,00 0,00 1.313,06 7.652,71 28.779,03 2.845,85 5.451,94 0,00 0,00 8.297,79 20.481,24 31/08/2023
685 337200 DANIELA TOLEDO SENIUK ANALISTA DO MP BELO HORIZONTE - COMARCA; GABINETE DE PROCURADOR DE JUSTIÇA - SALA 412 23.070,31 6.921,09 0,00 0,00 0,00 0,00 0,00 2.105,00 32.096,40 4.579,57 6.103,29 0,00 0,00 10.682,86 21.413,54 31/08/2023
686 605600 DANIELE ALZIRA SILVA CABRAL MOREIRA OFICIAL DO MP BELO HORIZONTE - COMARCA; BH-10PJ EXECUÇÃO PENAL-SECRETARIA 7.506,70 750,67 0,00 0,00 0,00 0,00 408,32 2.105,00 10.770,69 1.673,82 2.071,88 0,00 0,00 3.745,70 7.024,99 31/08/2023
687 195500 DANIELE CHAVES FONSECA OFICIAL DO MP BELO HORIZONTE - COMARCA; CGMP-DIR INSP CORR PROCED PROC DISC 20.533,67 8.213,47 0,00 0,00 0,00 0,00 0,00 2.105,00 30.852,14 4.380,49 5.815,87 0,00 0,00 10.196,36 20.655,78 31/08/2023
688 323400 DANIELE MEGALE SANTINI OFICIAL DO MP BELO HORIZONTE - COMARCA; CGMP-DIR INSP CORR PROCED PROC DISC 13.588,97 4.076,69 0,00 0,00 0,00 0,00 0,00 2.105,00 19.770,66 2.916,47 3.825,23 0,00 0,00 6.741,70 13.028,96 31/08/2023
689 357900 DANIELE REJANE PINTO VERSIEUX OFICIAL DO MP BELO HORIZONTE - COMARCA; BH-12PJ JUIZO CRIMINAL-SECRETARIA 12.343,61 3.703,08 0,00 0,00 0,00 0,00 1.014,10 2.105,00 19.165,79 3.459,39 4.804,28 0,00 0,00 8.263,67 10.902,12 31/08/2023
690 389500 DANIELE VASCONCELOS AMORIM OFICIAL DO MP SÃO SEBASTIÃO DO PARAÍSO - COMARCA; SAO SEBASTIAO DO PARAISO-PJ-04PJ 12.343,61 3.703,08 0,00 0,00 0,00 0,00 0,00 2.105,00 18.151,69 2.348,42 3.379,73 0,00 0,00 5.728,15 12.423,54 31/08/2023
691 629700 DANIELLA BASTOS MARTINS BICALHO OFICIAL DO MP GOVERNADOR VALADARES - COMARCA; GOVERNADOR VALADARES-PJ-16PJ 7.506,70 750,67 0,00 0,00 0,00 0,00 501,87 2.105,00 10.864,24 1.669,31 2.076,35 0,00 0,00 3.745,66 7.118,58 31/08/2023
692 725500 DANIELLE CAMILE OLIVEIRA FONSECA ASSESSOR PROCURADOR JUSTICA BELO HORIZONTE - COMARCA; GABINETE DE PROCURADOR DE JUSTIÇA - SALA 501 0,00 0,00 8.810,89 0,00 0,00 0,00 339,23 2.105,00 11.255,12 876,95 2.757,84 0,00 0,00 3.634,79 7.620,33 31/08/2023
693 265000 DANIELLE CASTANHEIRA SCALABRINI OFICIAL DO MP BELO HORIZONTE - COMARCA; JUNTA RECURSAL DO PROCON ESTADUAL 12.343,61 4.937,44 0,00 0,00 0,00 0,00 772,64 2.105,00 20.158,69 3.656,89 4.878,16 0,00 0,00 8.535,05 11.623,64 31/08/2023
694 490100 DANIELLE DE AVILA SILVA LOPES ANALISTA DO MP BELO HORIZONTE - COMARCA; PROC. JUSTICA DIR. DIFUSOS E COLETIVOS-SEC 12.343,61 3.703,08 0,00 0,00 0,00 0,00 793,59 4.005,00 20.845,28 3.459,39 4.645,16 0,00 0,00 8.104,55 12.740,73 31/08/2023
695 549600 DANIELLE GOMES LOPES RODRIGUES OFICIAL DO MP BELO HORIZONTE - COMARCA; COORD DE GABINETE DO PGJ 7.506,70 1.501,34 0,00 0,00 0,00 0,00 408,40 2.105,00 11.521,44 1.793,93 2.163,40 0,00 0,00 3.957,33 7.564,11 31/08/2023
696 613000 DANIELLE SILVA OLIVEIRA FRANKLIN COORDENADOR II BELO HORIZONTE - COMARCA; DIRETORIA DE ADMINISTRACAO FINANCEIRA 20.533,67 2.053,37 0,00 0,00 0,00 0,00 919,56 3.055,00 26.561,60 2.292,96 6.567,16 0,00 666,30 9.526,42 17.035,18 31/08/2023
697 722800 DANIELLE VALENTIM SOUZA ASSESSOR PROCURADOR JUSTICA BELO HORIZONTE - COMARCA; GABINETE DE PROCURADOR DE JUSTIÇA - SALA 606 0,00 0,00 8.810,89 0,00 0,00 0,00 415,47 2.105,00 11.331,36 876,95 2.845,21 0,00 0,00 3.722,16 7.609,20 31/08/2023
698 736400 DANIELLY VITORIA MARIA RUELA ASSESSOR PROMOTOR JUSTICA PARACATU - COMARCA; COORD REG PP NOROESTE MINAS GERAIS PARACATU 0,00 0,00 8.810,89 0,00 0,00 0,00 0,00 2.105,00 10.915,89 876,95 1.709,37 0,00 0,00 2.586,32 8.329,57 31/08/2023
699 380800 DANILLO RIBEIRO ANTUNES ANALISTA DO MP MONTES CLAROS - COMARCA; MONTES CLAROS-PJ-SECRETARIA 18.720,84 5.616,25 0,00 0,00 0,00 0,00 1.771,66 2.105,00 28.213,75 3.674,88 5.491,85 0,00 0,00 9.166,73 19.047,02 31/08/2023
700 453700 DANILO BOTELHO DE CARVALHO SUPERINTENDENTE BELO HORIZONTE - COMARCA; SUPERINTENDENCIA DE FINANCAS 28.013,39 5.602,68 0,00 0,00 0,00 0,00 0,00 4.005,00 37.621,07 3.734,12 7.058,16 0,00 4.634,40 15.426,68 22.194,39 31/08/2023
701 391200 DANILO D'AVILA MENDES ANALISTA DO MP MONTES CLAROS - COMARCA; GAECO REGIONAL DE MONTES CLAROS 18.720,84 5.616,25 0,00 0,00 0,00 0,00 0,00 3.055,00 27.392,09 3.674,88 5.056,78 0,00 0,00 8.731,66 18.660,43 31/08/2023
702 710900 DANILO DE SOUZA RODRIGUES ASSESSOR PROMOTOR JUSTICA IPANEMA - COMARCA; IPANEMA-PJ-01PJ 0,00 0,00 8.810,89 0,00 0,00 0,00 469,62 2.105,00 11.385,51 876,95 2.932,58 0,00 0,00 3.809,53 7.575,98 31/08/2023
703 494900 DANILO GAVIAO AVELINO DE MELLO ANALISTA DO MP POUSO ALEGRE - COMARCA; GAECO REGIONAL DE POUSO ALEGRE 12.343,61 2.468,72 0,00 0,00 0,00 0,00 835,45 2.105,00 17.752,78 3.176,44 4.224,40 0,00 0,00 7.400,84 10.351,94 31/08/2023
704 604300 DANILO NASCIMENTO SALGADO ANALISTA DO MP JANAÚBA - COMARCA; JANAUBA-PJ-01PJ 12.343,61 1.234,36 0,00 0,00 0,00 0,00 0,00 2.105,00 15.682,97 2.327,86 3.287,65 0,00 0,00 5.615,51 10.067,46 31/08/2023
705 298300 DANUZA MONICA DE SOUZA DINIZ ANALISTA DO MP BELO HORIZONTE - COMARCA; CAO-FUNDACOES-ASSESSORIA JURIDICA 22.191,68 6.657,50 0,00 0,00 0,00 0,00 0,00 2.105,00 30.954,18 4.396,82 5.787,30 0,00 0,00 10.184,12 20.770,06 31/08/2023
706 398700 DARCY LUIZ MILEO GREGATTI OFICIAL DO MP LAMBARI - COMARCA; LAMBARI-PJ-SECRETARIA 11.954,43 3.586,33 0,00 0,00 0,00 0,00 62,59 2.105,00 17.708,35 3.252,83 4.491,39 0,00 0,00 7.744,22 9.964,13 31/08/2023
707 406200 DARIANA AUGUSTA DE TOLEDO PATROCINIO RUIZ COORDENADOR II BELO HORIZONTE - COMARCA; DIRETORIA GESTAO COMPRAS LICITACOES 20.533,67 4.106,73 0,00 0,00 0,00 0,00 58,64 3.055,00 27.754,04 3.378,92 6.421,08 0,00 3.257,55 13.057,55 14.696,49 31/08/2023
708 586901 DARIO VITORINO DE CARVALHO SILVA ASSESSOR ADM. ESPECIAL BELO HORIZONTE - COMARCA; DIRETORIA DE SEGURANCA 0,00 0,00 28.013,39 0,00 0,00 0,00 0,00 2.105,00 30.118,39 876,95 8.693,91 0,00 0,00 9.570,86 20.547,53 31/08/2023
709 305000 DARLI LEITE DE OLIVEIRA OFICIAL DO MP ARAÇUAÍ - COMARCA; ARACUAI-PJ-01PJ 7.506,70 2.252,01 0,00 0,00 0,00 0,00 616,58 2.105,00 12.480,29 2.017,98 2.442,12 0,00 0,00 4.460,10 8.020,19 31/08/2023
710 729400 DAVI PIMENTA ASSESSOR PROMOTOR JUSTICA CANDEIAS - COMARCA; CANDEIAS-PJ-UNPJ 0,00 0,00 8.810,89 0,00 2.936,96 0,00 227,65 2.105,00 14.080,50 876,95 3.565,50 0,00 0,00 4.442,45 9.638,05 31/08/2023
711 122200 DAVID RIBEIRO DOS SANTOS ANALISTA DO MP BORDA DA MATA - COMARCA; BORDA DA MATA-PJ-UNPJ 23.070,31 23.070,31 0,00 0,00 0,00 5.795,34 318,46 5.575,83 57.830,25 5.795,34 9.452,28 8.550,66 0,00 23.798,28 34.031,97 31/08/2023
712 389400 DAWSON CANEDO MARQUES OFICIAL DO MP POUSO ALEGRE - COMARCA; POUSO ALEGRE-PJ-08PJ 12.343,61 3.703,08 0,00 0,00 0,00 0,00 0,00 3.055,00 19.101,69 2.348,42 2.010,86 0,00 0,00 4.359,28 14.742,41 31/08/2023
713 537200 DAYANE TEIXEIRA DE OLIVEIRA CASELLI ANALISTA DO MP BELO HORIZONTE - COMARCA; ASSESS TECNICO-JUR JUNTO AS PROC. DE JUST 10.341,72 1.034,17 0,00 0,00 0,00 0,00 553,79 2.105,00 14.034,68 2.388,69 3.053,01 0,00 0,00 5.441,70 8.592,98 31/08/2023
714 256100 DAYSE ROSALY PEREIRA BATISTA OFICIAL DO MP BELO HORIZONTE - COMARCA; BH-08PJ JUIZADO ESPECIAL-SECRETARIA 12.343,61 4.937,44 0,00 0,00 0,00 0,00 45,26 2.105,00 19.431,31 2.940,91 3.850,63 0,00 0,00 6.791,54 12.639,77 31/08/2023
715 311901 DEBORA APARECIDA DA SILVA ASSESSOR ADMINISTRATIVO I BELO HORIZONTE - COMARCA; BH-23PJ CIVEL-SETOR JURIDICO 0,00 0,00 4.872,71 0,00 0,00 0,00 244,24 2.105,00 7.221,95 876,95 1.254,53 0,00 0,00 2.131,48 5.090,47 31/08/2023
716 194301 DEBORA APARECIDA DOS SANTOS ANALISTA DO MP UBERLÂNDIA - COMARCA; UBERLANDIA-PJ-SEC FAMILIA 23.070,31 9.228,12 0,00 0,00 0,00 0,00 0,00 2.105,00 34.403,43 5.348,01 7.212,72 0,00 0,00 12.560,73 21.842,70 31/08/2023
717 518800 DEBORA CARVALHO FIORATTO COORDENADOR II BELO HORIZONTE - COMARCA; DIRETORIA MATERIAIS E SERVICOS 20.533,67 4.106,73 0,00 0,00 0,00 0,00 900,15 2.105,00 27.645,55 2.697,82 6.954,51 0,00 1.076,48 10.728,81 16.916,74 31/08/2023
718 444900 DEBORA CLAUDIA PEREIRA ALVES ANALISTA DO MP BELO HORIZONTE - COMARCA; BH-08PJ JUIZADO ESPECIAL-SECRETARIA 13.588,97 2.717,79 0,00 0,00 0,00 0,00 85,29 2.105,00 18.497,05 3.227,87 4.496,88 0,00 0,00 7.724,75 10.772,30 31/08/2023
719 617700 DEBORA COMANDUCI SCHREIDER ANALISTA DO MP BICAS - COMARCA; BICAS-PJ-UNPJ 11.577,56 1.157,76 0,00 0,00 0,00 0,00 619,94 2.105,00 15.460,26 2.700,31 3.464,27 0,00 0,00 6.164,58 9.295,68 31/08/2023
720 555700 DEBORA CRISTINA BUITRAGO PEREIRA ANALISTA DO MP BELO HORIZONTE - COMARCA; DIRETORIA GESTAO CONTRATOS CONVENIOS 12.343,61 2.468,72 4.020,58 0,00 0,00 0,00 0,00 4.606,67 23.439,58 2.385,94 4.041,89 0,00 0,00 6.427,83 17.011,75 31/08/2023
721 513100 DEBORA CRISTINA PEREIRA DE OLIVEIRA ANALISTA DO MP BELO HORIZONTE - COMARCA; BH-23PJ CIVEL-SETOR JURIDICO 13.588,97 2.717,79 0,00 0,00 0,00 0,00 0,00 3.530,00 19.836,76 2.904,41 3.846,48 0,00 0,00 6.750,89 13.085,87 31/08/2023
722 612100 DEBORA DUARTE SILVA DE SOUZA OFICIAL DO MP BELO HORIZONTE - COMARCA; BH-12PJ JUIZO CRIMINAL-SECRETARIA 7.506,70 3.002,68 0,00 0,00 0,00 0,00 618,79 2.105,00 13.233,17 2.473,50 3.123,97 0,00 0,00 5.597,47 7.635,70 31/08/2023
723 717500 DEBORA ENDREFFY ORSI PARENZI ASSESSOR PROMOTOR JUSTICA MATEUS LEME - COMARCA; MATEUS LEME-PJ-01PJ 0,00 0,00 8.810,89 0,00 0,00 0,00 418,44 2.105,00 11.334,33 876,95 2.845,21 0,00 0,00 3.722,16 7.612,17 31/08/2023
724 539700 DEBORA SALES CARVALHO ANALISTA DO MP PATOS DE MINAS - COMARCA; COORD REG PJ DEF EDU DIR CRI ADO AL PAR NOROE 12.343,61 2.468,72 0,00 0,00 520,00 0,00 715,26 2.105,00 18.152,59 982,16 4.463,06 0,00 0,00 5.445,22 12.707,37 31/08/2023
725 424100 DEBORA SANTOS E ALVES ANALISTA DO MP JANUÁRIA - COMARCA; JANUARIA-PJ-01PJ 18.130,77 3.626,15 0,00 0,00 0,00 0,00 0,00 4.955,00 26.711,92 3.262,06 4.201,13 0,00 0,00 7.463,19 19.248,73 31/08/2023
726 426301 DEBORA SCUCATO MACHADO SOARES OFICIAL DO MP ITABIRA - COMARCA; ITABIRA-PJ-SECRETARIA 7.506,70 1.501,34 0,00 0,00 0,00 0,00 569,39 3.055,00 12.632,43 1.845,90 2.335,20 0,00 0,00 4.181,10 8.451,33 31/08/2023
727 678100 DEBORA SOUZA COSTA ASSESSOR PROMOTOR JUSTICA BOTELHOS - COMARCA; BOTELHOS-PJ-UNPJ 0,00 0,00 8.810,89 0,00 0,00 0,00 424,25 4.005,00 13.240,14 876,95 2.793,07 0,00 0,00 3.670,02 9.570,12 31/08/2023
728 550200 DEBORA TRINDADE LEITE ANALISTA DO MP MANHUAÇU - COMARCA; MANHUACU-PJ-05PJ 12.343,61 2.468,72 0,00 0,00 0,00 0,00 0,00 2.105,00 16.917,33 2.385,94 2.831,95 0,00 0,00 5.217,89 11.699,44 31/08/2023
729 438000 DEBORAH COSTA LAGE ANALISTA DO MP BELO HORIZONTE - COMARCA; PROC JUST ATUACAO TRIBUNAIS SUPERIORES-GAB006 18.130,77 3.626,15 0,00 0,00 0,00 0,00 0,00 2.105,00 23.861,92 3.262,06 4.452,70 0,00 0,00 7.714,76 16.147,16 31/08/2023
730 613700 DEISER MARIA FERREIRA ROSCOE OFICIAL DO MP BELO HORIZONTE - COMARCA; DIVISÃO DE EDUCAÇÃO PARA O CONSUMO 7.506,70 750,67 0,00 0,00 0,00 0,00 526,61 2.105,00 10.888,98 1.727,88 2.068,05 0,00 0,00 3.795,93 7.093,05 31/08/2023
731 551900 DEISY ROCHA DA SILVA ANALISTA DO MP CARMO DO PARANAÍBA - COMARCA; CARMO DO PARANAIBA-PJ-01PJ 12.343,61 2.468,72 0,00 0,00 0,00 0,00 0,00 2.105,00 16.917,33 2.385,94 2.952,70 0,00 0,00 5.338,64 11.578,69 31/08/2023
732 736800 DELANZIA APARECIDA JUNHO ASSESSOR DE CAO BELO HORIZONTE - COMARCA; CAO-FUNDACOES 0,00 0,00 7.506,70 0,00 0,00 0,00 0,00 2.105,00 9.611,70 876,95 1.350,72 0,00 0,00 2.227,67 7.384,03 31/08/2023
733 501900 DELI RAQUEL RODRIGUES ANALISTA DO MP ITUIUTABA - COMARCA; ITUIUTABA-PJ-04PJ 12.343,61 2.468,72 0,00 0,00 0,00 0,00 713,23 2.105,00 17.630,56 3.176,44 4.224,40 0,00 0,00 7.400,84 10.229,72 31/08/2023
734 378600 DELIANE LOPES VIEIRA BREIJAO ANALISTA DO MP JUIZ DE FORA - COMARCA; JUIZ DE FORA-PJ-14PJ 18.720,84 5.616,25 0,00 0,00 0,00 0,00 0,00 2.105,00 26.442,09 3.674,88 5.004,64 0,00 0,00 8.679,52 17.762,57 31/08/2023
735 730100 DELIENE FRACETE GUTIERREZ ASSESSOR ADMINISTRATIVO I TEÓFILO OTONI - COMARCA; COORD REG APOIO COM INC MOB SOC VALE MUCURI 0,00 0,00 4.872,71 0,00 0,00 0,00 116,97 2.105,00 7.094,68 876,95 1.206,21 0,00 0,00 2.083,16 5.011,52 31/08/2023
736 487700 DENIA FERREIRA MAIA SILVA OFICIAL DO MP TRÊS CORACOES - COMARCA; TRES CORACOES-PJ-04PJ 8.003,54 1.600,71 0,00 0,00 0,00 0,00 566,35 2.105,00 12.275,60 2.109,07 2.527,47 0,00 0,00 4.636,54 7.639,06 31/08/2023
737 726300 DENILZA RODRIGUES MORAES ASSESSOR ADMINISTRATIVO I BELO HORIZONTE - COMARCA; CENT DE ATENDIMENTO AS PROMOTORIAS DE JUSTICA 0,00 0,00 4.872,71 0,00 0,00 0,00 183,54 2.105,00 7.161,25 876,95 1.228,56 0,00 0,00 2.105,51 5.055,74 31/08/2023
738 424800 DENIS APARECIDO CAMPOS DELFINO ANALISTA DO MP LUZ - COMARCA; LUZ-PJ-UNPJ 17.559,01 3.511,80 0,00 0,00 0,00 0,00 0,00 2.105,00 23.175,81 3.152,28 3.834,09 0,00 0,00 6.986,37 16.189,44 31/08/2023
739 381400 DENISE ANGELICA MELLO DE PAULA OFICIAL DO MP BELO HORIZONTE - COMARCA; BH-18PJ DIREITOS HUMANOS-SECRETARIA 12.343,61 3.703,08 4.346,47 0,00 0,00 0,00 523,42 8.765,08 29.681,66 2.348,42 4.077,34 0,00 0,00 6.425,76 23.255,90 31/08/2023
740 702100 DENISE CANDIDO LIMA MACEDO KATOPODIS ASSESSOR PROCURADOR JUSTICA BELO HORIZONTE - COMARCA; GABINETE DE PROCURADOR DE JUSTIÇA - SALA 306 0,00 0,00 8.810,89 0,00 0,00 0,00 424,25 2.105,00 11.340,14 876,95 2.845,21 0,00 0,00 3.722,16 7.617,98 31/08/2023
741 196300 DENISE DE ALMEIDA VILELA FURTADO OFICIAL DO MP BELO HORIZONTE - COMARCA; CENTRAL DE APOIO TECNICO-SECRETARIA 20.533,67 8.213,47 0,00 0,00 0,00 0,00 527,03 9.279,43 38.553,60 4.380,49 5.815,87 0,00 0,00 10.196,36 28.357,24 31/08/2023
742 271100 DENISE ELOY PEIXOTO OFICIAL DO MP BELO HORIZONTE - COMARCA; DIRETORIA DE INTELIGENCIA 17.559,01 5.267,70 0,00 0,00 0,00 0,00 0,00 2.105,00 24.931,71 3.433,22 4.448,25 0,00 0,00 7.881,47 17.050,24 31/08/2023
743 385400 DENISE FREITAS DE ASSIS OFICIAL DO MP CARATINGA - COMARCA; CARATINGA-PJ-SECRETARIA 11.212,54 3.363,76 3.004,68 0,00 0,00 0,00 518,64 2.105,00 20.204,62 3.037,36 5.225,79 0,00 543,20 8.806,35 11.398,27 31/08/2023
744 437100 DENISE NOGUEIRA MAGRI MENDES ANALISTA DO MP BELO HORIZONTE - COMARCA; LAB TECNOLOGIA CONTRA LAVAGEM DINHEIRO 18.130,77 7.252,31 0,00 0,00 0,00 0,00 0,00 2.105,00 27.488,08 3.842,24 5.228,00 0,00 0,00 9.070,24 18.417,84 31/08/2023
745 524700 DENISE RAMOS GUIMARAES OFICIAL DO MP BELO HORIZONTE - COMARCA; BH-07PJ 01 TRIBUNAL JURI-SECRETARIA 7.506,70 1.501,34 0,00 0,00 0,00 0,00 445,53 2.105,00 11.558,57 1.845,90 2.245,87 0,00 0,00 4.091,77 7.466,80 31/08/2023
746 239100 DENISE RIBEIRO DOS SANTOS CAETANO OFICIAL DO MP ITANHANDU - COMARCA; ITANHANDU-PJ-SECRETARIA 17.559,01 7.023,60 0,00 0,00 0,00 0,00 45,07 2.105,00 26.732,68 4.276,06 5.756,50 0,00 0,00 10.032,56 16.700,12 31/08/2023
747 325500 DENISE ROSA TORRES OFICIAL DO MP BELO HORIZONTE - COMARCA; DIRETORIA DE PESSOAL ADMINISTRATIVO - DPAD 13.588,97 4.076,69 0,00 0,00 0,00 0,00 0,00 2.105,00 19.770,66 2.916,47 3.877,37 0,00 0,00 6.793,84 12.976,82 31/08/2023
748 437200 DENISE VIVIANE DOS SANTOS ANALISTA DO MP BELO HORIZONTE - COMARCA; CGMP-DIR ESTAGIO PROBATORIO E ORIENT 15.447,01 3.089,40 0,00 0,00 0,00 0,00 0,00 3.530,00 22.066,41 3.108,40 4.319,46 0,00 0,00 7.427,86 14.638,55 31/08/2023
749 267900 DENISIA ALMEIDA SALES OFICIAL DO MP BELO HORIZONTE - COMARCA; BH-18PJ DIREITOS HUMANOS-SECRETARIA 12.343,61 4.937,44 0,00 0,00 0,00 0,00 1.012,39 2.105,00 20.398,44 3.656,89 4.878,16 0,00 0,00 8.535,05 11.863,39 31/08/2023
750 355300 DEYSE CRISTINA MORAIS OFICIAL DO MP PASSOS - COMARCA; PASSOS-PJ-02PJ 12.343,61 3.703,08 0,00 0,00 0,00 0,00 63,65 2.105,00 18.215,34 2.984,49 3.959,51 0,00 0,00 6.944,00 11.271,34 31/08/2023
751 523700 DIANA CAMPOS RESENDE OFICIAL DO MP SÃO JOÃO DEL REI - COMARCA; SAO JOAO DEL REI-PJ-04PJ 9.699,77 6.789,84 0,00 0,00 0,00 0,00 39,12 2.105,00 18.633,73 3.040,07 4.006,34 0,00 0,00 7.046,41 11.587,32 31/08/2023
752 241900 DIANA CARDOSO MARTINS OFICIAL DO MP BELO HORIZONTE - COMARCA; CAO-DH CONT EXT ATIV POLIC E AP COMUNIT 12.343,61 4.937,44 0,00 0,00 0,00 0,00 0,00 2.105,00 19.386,05 3.641,92 4.920,93 0,00 0,00 8.562,85 10.823,20 31/08/2023
753 410100 DIANA GORDILHO SILVEIRA SENA ANALISTA DO MP BELO HORIZONTE - COMARCA; BH-14PJ DEFESA CONSUMIDOR-GAB 112PJ 18.130,77 3.626,15 0,00 0,00 0,00 0,00 0,00 2.105,00 23.861,92 3.262,06 4.201,13 0,00 0,00 7.463,19 16.398,73 31/08/2023
754 553000 DIANA MARIA MARQUES ANALISTA DO MP BETIM - COMARCA; BETIM-PJ-07PJ 12.343,61 2.468,72 0,00 0,00 0,00 0,00 0,00 2.105,00 16.917,33 2.344,71 2.824,56 0,00 0,00 5.169,27 11.748,06 31/08/2023
755 520000 DIARLE TOSTE DOS SANTOS ANALISTA DO MP RIO POMBA - COMARCA; RIO POMBA-PJ-UNPJ 12.343,61 2.468,72 0,00 0,00 0,00 0,00 917,17 2.105,00 17.834,50 3.176,44 3.498,40 0,00 0,00 6.674,84 11.159,66 31/08/2023
756 539800 DIEGO CAMARGOS RODRIGUES OFICIAL DO MP CONTAGEM - COMARCA; CONTAGEM-PJ-05PJ 7.506,70 1.501,34 0,00 0,00 0,00 0,00 530,11 2.105,00 11.643,15 1.819,91 2.282,80 0,00 0,00 4.102,71 7.540,44 31/08/2023
757 607300 DIEGO CERVEIRA DE SOUZA ANALISTA DO MP PATOS DE MINAS - COMARCA; COORD REG BACIAS PARACATU,URUCUIA E ABAETE 12.343,61 1.234,36 0,00 0,00 0,00 0,00 858,16 2.105,00 16.541,13 982,16 4.005,46 0,00 0,00 4.987,62 11.553,51 31/08/2023
758 446900 DIEGO DE FREITAS OFICIAL DO MP UBERABA - COMARCA; UBERABA-PJ-06PJ 10.516,49 2.103,30 0,00 0,00 0,00 0,00 773,83 2.105,00 15.498,62 2.670,21 3.546,60 0,00 0,00 6.216,81 9.281,81 31/08/2023
759 288800 DILENE NEPOMUCENO ALVES OFICIAL DO MP BELO HORIZONTE - COMARCA; DIRETORIA DE PESSOAL ADMINISTRATIVO - DPAD 12.343,61 3.703,08 0,00 0,00 0,00 0,00 772,64 2.105,00 18.924,33 3.459,39 4.645,16 0,00 0,00 8.104,55 10.819,78 31/08/2023
760 681200 DILLIANY PAULA LOPES SERRANO ASSESSOR PROMOTOR JUSTICA RESPLENDOR - COMARCA; RESPLENDOR-PJ-UNPJ 0,00 0,00 13.924,53 0,00 0,00 0,00 458,30 -158,64 14.224,19 876,95 3.072,38 0,00 0,00 3.949,33 10.274,86 31/08/2023
761 270101 DILSON DO AMARAL ANALISTA DO MP RIO CASCA - COMARCA; RIO CASCA-PJ-UNPJ 12.343,61 3.703,08 0,00 0,00 520,00 0,00 715,29 2.105,00 19.386,98 3.463,50 4.626,60 0,00 0,00 8.090,10 11.296,88 31/08/2023
762 466000 DIMITRI GUDE MARCIAL ANALISTA DO MP NANUQUE - COMARCA; NANUQUE-PJ-02PJ 12.343,61 2.468,72 0,00 0,00 0,00 0,00 917,17 4.005,00 19.734,50 3.176,44 4.067,99 0,00 0,00 7.244,43 12.490,07 31/08/2023
763 516300 DINORA APARECIDA MACEDO BRANDAO ANALISTA DO MP BELO HORIZONTE - COMARCA; BH-19PJ SAUDE-SECRETARIA 150PJ 12.343,61 2.468,72 0,00 0,00 0,00 0,00 811,36 2.105,00 17.728,69 3.168,35 4.379,34 0,00 0,00 7.547,69 10.181,00 31/08/2023
764 511700 DIOGENES HENRIQUES PEREIRA LOURENCO ANALISTA DO MP BELO HORIZONTE - COMARCA; BH-03PJ EMPRESARIAL-SECRETARIA 12.343,61 2.468,72 0,00 0,00 0,00 0,00 917,17 3.055,00 18.784,50 982,16 4.313,62 0,00 0,00 5.295,78 13.488,72 31/08/2023
765 604100 DIOGO CESAR DE OLIVEIRA HONORIO ASSESSOR ADMINISTRATIVO III PIUMHI - COMARCA; PIUMHI-PJ-02PJ 0,00 0,00 10.858,90 0,00 0,00 0,00 589,19 2.105,00 13.553,09 876,95 3.780,11 0,00 0,00 4.657,06 8.896,03 31/08/2023
766 259600 DIOGO MESQUITA MAIA ANALISTA DO MP BELO HORIZONTE - COMARCA; DIRET DE APOIO AS PROCURADORIAS DE JUSTICA 22.191,68 19.972,51 0,00 191,21 0,00 8.333,34 318,16 5.575,83 56.582,73 5.795,34 9.400,14 4.574,23 0,00 19.769,71 36.813,02 31/08/2023
767 386700 DIRCIMAR FERNANDES CARNEIRO OFICIAL DO MP BELO HORIZONTE - COMARCA; BH-16PJ HABITACAO URBANISMO-GAB 117PJ 12.343,61 8.640,53 0,00 0,00 0,00 0,00 0,00 2.105,00 23.089,14 3.138,41 4.022,62 0,00 0,00 7.161,03 15.928,11 31/08/2023
768 216700 DOMICIO VALDETE PEREIRA OFICIAL DO MP TEÓFILO OTONI - COMARCA; COORD REG PJ DEF EDU DIR CRIAN ADOL JEQUI MUC 20.533,67 8.213,47 0,00 0,00 0,00 0,00 0,00 2.105,00 30.852,14 4.380,49 5.711,59 0,00 0,00 10.092,08 20.760,06 31/08/2023
769 192701 DONIZETTI APARECIDO AMORIM ANALISTA DO MP PRATÁPOLIS - COMARCA; PRATAPOLIS-PJ-UNPJ 12.343,61 4.937,44 0,00 0,00 0,00 0,00 871,02 2.105,00 20.257,07 3.742,35 5.013,78 0,00 0,00 8.756,13 11.500,94 31/08/2023
770 558700 DORCILIA FATIMA DE OLIVEIRA OFICIAL DO MP DIVINÓPOLIS - COMARCA; DIVINOPOLIS-PJ-02PJ 7.506,70 1.501,34 0,00 0,00 0,00 2.971,48 1.218,00 2.105,00 15.302,52 1.914,03 2.821,83 0,00 0,00 4.735,86 10.566,66 31/08/2023
771 555300 DOUGLAS CUNHA DE SOUZA ANALISTA DO MP VARZEA DA PALMA - COMARCA; VARZEA DA PALMA-PJ-01PJ 12.343,61 2.468,72 0,00 0,00 0,00 0,00 0,00 3.055,00 17.867,33 982,16 2.488,64 0,00 0,00 3.470,80 14.396,53 31/08/2023
772 265900 DOUGLAS GOMES MOREIRA ANALISTA DO MP BELO HORIZONTE - COMARCA; CENTRAL DE APOIO TECNICO-SETOR DE ENGENHARIA 23.070,31 9.228,12 0,00 0,00 0,00 0,00 0,00 2.105,00 34.403,43 5.422,82 7.320,73 0,00 0,00 12.743,55 21.659,88 31/08/2023
773 241000 DOUGLAS MEIRELLES DE CASTRO OFICIAL DO MP CONCEIÇÃO DO RIO VERDE - COMARCA; CONCEICAO DO RIO VERDE-PJ-UNPJ 17.559,01 8.779,51 0,00 0,00 0,00 0,00 0,00 2.105,00 28.443,52 3.995,11 5.207,34 0,00 0,00 9.202,45 19.241,07 31/08/2023
774 534900 DOUGLAS SILVA E SOUZA ANALISTA DO MP CAMPOS GERAIS - COMARCA; CAMPOS GERAIS-PJ-01PJ 12.343,61 2.468,72 0,00 0,00 0,00 0,00 938,63 2.105,00 17.855,96 982,16 4.648,93 0,00 0,00 5.631,09 12.224,87 31/08/2023
775 638900 DOUGLAS WALLAS CONCEICAO NEVES OFICIAL DO MP RIBEIRÃO DAS NEVES - COMARCA; RIBEIRAO DAS NEVES-PJ-03PJ 6.603,76 660,38 0,00 0,00 0,00 0,00 421,15 2.105,00 9.790,29 982,16 1.779,02 0,00 0,00 2.761,18 7.029,11 31/08/2023
776 146800 DUCINALVA AMARAL LOPES REIS OFICIAL DO MP PARAISÓPOLIS - COMARCA; PARAISOPOLIS-PJ-UNPJ 23.070,31 18.456,25 0,00 77,67 0,00 6.649,66 477,24 7.311,24 56.042,37 5.795,34 9.659,48 3.936,60 0,00 19.391,42 36.650,95 31/08/2023
777 122500 DUILIO CARLOS FERREIRA UTSCH OFICIAL DO MP CONCEIÇÃO DO MATO DENTRO - COMARCA; CONCEICAO DO MATO DENTRO-PJ-UNPJ 20.533,67 18.480,31 0,00 0,00 0,00 9.986,06 477,24 7.311,24 56.788,52 5.795,34 9.452,28 1.424,02 0,00 16.671,64 40.116,88 31/08/2023
778 201800 DULCINEIA ANDRE DE SOUZA OFICIAL DO MP JEQUITINHONHA - COMARCA; JEQUITINHONHA-PJ-SECRETARIA 20.533,67 8.213,47 0,00 0,00 0,00 0,00 0,00 2.105,00 30.852,14 4.380,49 5.659,46 0,00 0,00 10.039,95 20.812,19 31/08/2023
779 395800 DUVIDIER MEDIRCIO JUNIOR ANALISTA DO MP BELO HORIZONTE - COMARCA; CAO-PATRIMONIO PUBLICO 19.751,60 5.925,48 0,00 0,00 0,00 0,00 0,00 2.105,00 27.782,08 3.889,28 5.106,69 0,00 0,00 8.995,97 18.786,11 31/08/2023
780 604800 ECIA RAMILIS ISSA DE ABREU ANALISTA DO MP BRASÍLIA DE MINAS - COMARCA; BRASILIA DE MINAS-PJ-01PJ 12.343,61 1.234,36 0,00 0,00 0,00 0,00 0,00 3.055,00 16.632,97 2.281,35 3.220,50 0,00 0,00 5.501,85 11.131,12 31/08/2023
781 273000 EDELFINA APARECIDA GUIMARAES OFICIAL DO MP CACHOEIRA DE MINAS - COMARCA; CACHOEIRA DE MINAS-PJ-UNPJ 13.588,97 10.871,18 0,00 0,00 0,00 0,00 0,00 2.105,00 26.565,15 3.912,00 5.211,91 0,00 0,00 9.123,91 17.441,24 31/08/2023
782 523300 EDER DOS SANTOS PATRICIO ANALISTA DO MP NOVA SERRANA - COMARCA; NOVA SERRANA-PJ-03PJ 12.343,61 2.468,72 0,00 0,00 0,00 0,00 936,15 3.055,00 18.803,48 982,16 4.408,37 0,00 0,00 5.390,53 13.412,95 31/08/2023
783 356700 EDER JOSE PACHECO OFICIAL DO MP CAMPO BELO - COMARCA; CAMPO BELO-PJ-04PJ 12.343,61 3.703,08 0,00 0,00 0,00 0,00 2.825,11 2.105,00 20.976,80 3.459,39 5.111,85 0,00 0,00 8.571,24 12.405,56 31/08/2023
784 507900 EDERSON SILVA LOPES OFICIAL DO MP BELO HORIZONTE - COMARCA; LABORATORIO TECNOLOGIA INTELIGENCIA 9.097,81 1.819,56 0,00 0,00 0,00 0,00 667,97 2.105,00 13.690,34 2.283,59 2.792,45 0,00 0,00 5.076,04 8.614,30 31/08/2023
785 296200 EDGARD GOULART MATOSINHO DE LAET JR ANALISTA DO MP GOVERNADOR VALADARES - COMARCA; GOVERNADOR VALADARES-PJ-12PJ 22.191,68 6.657,50 0,00 0,00 0,00 0,00 0,00 2.105,00 30.954,18 4.396,82 5.735,16 0,00 0,00 10.131,98 20.822,20 31/08/2023
786 295000 EDILA MARIA DA SILVEIRA OFICIAL DO MP FORMIGA - COMARCA; FORMIGA-PJ-01PJ 12.343,61 3.703,08 0,00 0,00 0,00 0,00 0,00 2.105,00 18.151,69 2.348,42 3.421,21 0,00 0,00 5.769,63 12.382,06 31/08/2023
787 332300 EDILA MARILAC MIRANDA PRADO OFICIAL DO MP DIAMANTINA - COMARCA; DIAMANTINA-PJ-01PJ 12.343,61 6.171,81 0,00 0,00 0,00 0,00 938,14 5.905,00 25.358,56 4.025,32 5.382,42 0,00 0,00 9.407,74 15.950,82 31/08/2023
788 376600 EDILANE CONSOLACAO ROSA NAZARETH ANALISTA DO MP BETIM - COMARCA; BETIM-PJ-10PJ 18.720,84 5.616,25 0,00 0,00 0,00 0,00 0,00 2.105,00 26.442,09 982,16 4.673,91 0,00 0,00 5.656,07 20.786,02 31/08/2023
789 309800 EDILZA DOS REIS OFICIAL DO MP UBERLÂNDIA - COMARCA; UBERLANDIA-PJ-03PJ 12.343,61 3.703,08 0,00 0,00 0,00 0,00 993,57 2.105,00 19.145,26 3.459,39 4.593,02 0,00 0,00 8.052,41 11.092,85 31/08/2023
790 200500 EDINEIA MARIA DE OLIVEIRA ANTUNES OFICIAL DO MP MONTES CLAROS - COMARCA; MONTES CLAROS-PJ-10PJ 20.533,67 10.266,84 0,00 0,00 0,00 0,00 0,00 2.105,00 32.905,51 4.709,03 6.290,20 0,00 0,00 10.999,23 21.906,28 31/08/2023
791 427700 EDISANGELA SOARES LOPES OFICIAL DO MP PIRAPORA - COMARCA; PIRAPORA-PJ-02PJ 7.506,70 1.501,34 0,00 0,00 0,00 0,00 457,17 2.105,00 11.570,21 1.845,90 2.335,20 0,00 0,00 4.181,10 7.389,11 31/08/2023
792 555400 EDISON MONTEIRO SAMPAIO NETO ANALISTA DO MP BELO HORIZONTE - COMARCA; BH-12PJ JUIZO CRIMINAL-GAB 094PJ 12.343,61 2.468,72 0,00 0,00 0,00 0,00 0,00 2.105,00 16.917,33 2.223,15 2.701,20 0,00 0,00 4.924,35 11.992,98 31/08/2023
793 517700 EDMILSON TADEU FERNANDES OFICIAL DO MP POUSO ALEGRE - COMARCA; GAECO REGIONAL DE POUSO ALEGRE 9.393,95 1.878,79 0,00 0,00 0,00 0,00 689,68 2.105,00 14.067,42 2.365,04 3.017,85 0,00 0,00 5.382,89 8.684,53 31/08/2023
794 358400 EDNA APARECIDA SILVA FERREIRA OFICIAL DO MP CORONEL FABRICIANO - COMARCA; CORONEL FABRICIANO-PJ-02PJ 13.588,97 4.076,69 0,00 0,00 0,00 0,00 0,97 2.105,00 19.771,63 3.209,35 4.394,62 0,00 0,00 7.603,97 12.167,66 31/08/2023
795 331800 EDNA MARCIA CAMILO DA SILVA OFICIAL DO MP SETE LAGOAS - COMARCA; SETE LAGOAS-PJ-SEC CRIMINAIS 12.343,61 3.703,08 0,00 0,00 0,00 0,00 772,64 2.105,00 18.924,33 3.459,39 4.593,02 0,00 0,00 8.052,41 10.871,92 31/08/2023
796 327900 EDRIEL SANTANA PEREIRA OFICIAL DO MP TUPACIGUARA - COMARCA; TUPACIGUARA-PJ-02PJ 12.343,61 3.703,08 0,00 0,00 0,00 0,00 993,57 3.143,08 20.183,34 3.459,39 4.645,16 0,00 0,00 8.104,55 12.078,79 31/08/2023
797 482400 EDSON GARCIA OFICIAL DO MP MACHADO - COMARCA; MACHADO-PJ-02PJ 7.506,70 1.501,34 0,00 0,00 343,30 0,00 478,37 2.960,00 12.789,71 1.971,70 2.323,23 0,00 0,00 4.294,93 8.494,78 31/08/2023
798 225601 EDSON LABRE FILHO ANALISTA DO MP VARGINHA - COMARCA; VARGINHA-PJ-01PJ 22.191,68 8.876,67 0,00 0,00 0,00 0,00 0,00 2.105,00 33.173,35 4.751,88 6.299,93 0,00 0,00 11.051,81 22.121,54 31/08/2023
799 602700 EDSON NOGUEIRA BUENO OFICIAL DO MP PITANGUI - COMARCA; PITANGUI-PJ-02PJ 7.506,70 750,67 0,00 0,00 0,00 0,00 369,87 2.105,00 10.732,24 1.660,72 2.241,03 0,00 0,00 3.901,75 6.830,49 31/08/2023
800 716500 EDUARDA CORREA MOREIRA ASSESSOR ADMINISTRATIVO I BELO HORIZONTE - COMARCA; DIRET DE FORMACAO, APERFEIC. E POS-GRADUACAO 0,00 0,00 4.872,71 0,00 0,00 0,00 228,69 3.055,00 8.156,40 876,95 1.824,69 0,00 0,00 2.701,64 5.454,76 31/08/2023
801 414400 EDUARDO ABRANTES CAMPOS ANALISTA DO MP SÃO JOÃO DEL REI - COMARCA; SAO JOAO DEL REI-PJ-02PJ 18.130,77 3.626,15 0,00 0,00 0,00 0,00 0,00 2.105,00 23.861,92 3.262,06 4.201,13 0,00 0,00 7.463,19 16.398,73 31/08/2023
802 476800 EDUARDO ALVES DE MOURA ANALISTA DO MP UBERLÂNDIA - COMARCA; UBERLANDIA-PJ-02PJ 12.343,61 2.468,72 0,00 0,00 0,00 0,00 917,17 3.055,00 18.784,50 982,16 4.157,21 0,00 0,00 5.139,37 13.645,13 31/08/2023
803 390800 EDUARDO AMORIM PETTERSEN OFICIAL DO MP CARANGOLA - COMARCA; CARANGOLA-PJ-SECRETARIA 11.212,54 3.363,76 0,00 0,00 0,00 0,00 842,35 2.388,29 17.806,94 3.076,17 4.217,58 0,00 0,00 7.293,75 10.513,19 31/08/2023
804 461600 EDUARDO ANTONIO DE ASSIS FARIA ASSESSOR ADMINISTRATIVO III BELO HORIZONTE - COMARCA; ASSESS EXECUTIVA DO CONSELHO SUPERIOR DO MP 0,00 0,00 10.858,90 0,00 0,00 0,00 564,43 2.105,00 13.528,33 876,95 3.642,64 0,00 0,00 4.519,59 9.008,74 31/08/2023
805 248800 EDUARDO DE CASTRO AMORIM ANALISTA DO MP BELO HORIZONTE - COMARCA; SUPER DE GESTAO DE PESSOAS-LOTACAO TEMPORARIA 23.070,31 9.228,12 0,00 0,00 0,00 0,00 84,59 2.105,00 34.488,02 5.686,95 7.913,54 0,00 0,00 13.600,49 20.887,53 31/08/2023
806 209100 EDUARDO DE SOUZA MAIA ANALISTA DO MP BELO HORIZONTE - COMARCA; SUPER DE GESTAO DE PESSOAS-LOTACAO TEMPORARIA 23.070,31 9.228,12 0,00 0,00 0,00 0,00 0,00 2.105,00 34.403,43 5.348,01 7.108,45 0,00 0,00 12.456,46 21.946,97 31/08/2023
807 633900 EDUARDO GONCALVES PIRES OFICIAL DO MP BELO HORIZONTE - COMARCA; DIRETORIA DE PAGAMENTO DE PESSOAL-DPAG 8.264,07 3.305,63 0,00 0,00 0,00 0,00 0,00 2.105,00 13.674,70 2.298,76 2.992,65 0,00 0,00 5.291,41 8.383,29 31/08/2023
808 350500 EDUARDO GONCALVES RIBEIRO OFICIAL DO MP VESPASIANO - COMARCA; VESPASIANO-PJ-SECRETARIA 11.577,56 3.473,27 3.004,68 0,00 0,00 0,00 0,00 2.105,00 20.160,51 3.062,72 4.888,88 0,00 0,00 7.951,60 12.208,91 31/08/2023
809 115800 EDUARDO HENRIQUE DE CAMPOS MAIA OFICIAL DO MP BELO HORIZONTE - COMARCA; DIV FISCAL ADM CONT TERCEIRIZACAO 22.191,68 15.534,18 0,00 0,00 0,00 0,00 275,66 5.112,20 43.113,72 5.795,34 9.097,60 135,90 0,00 15.028,84 28.084,88 31/08/2023
810 392600 EDUARDO HENRIQUE DOS SANTOS COSTA ELIAZAR OFICIAL DO MP MATOZINHOS - COMARCA; MATOZINHOS-PJ-01PJ 10.858,90 3.257,67 0,00 0,00 0,00 0,00 797,23 2.105,00 17.018,80 2.941,77 3.763,66 0,00 0,00 6.705,43 10.313,37 31/08/2023
811 99101 EDUARDO JOSE DE FREITAS NUNES ASSESSOR ADMINISTRATIVO II BELO HORIZONTE - COMARCA; PROC JUST ATUACAO TRIBUNAIS SUPERIORES-GAB007 0,00 3.753,35 7.506,70 0,00 0,00 0,00 518,96 2.105,00 13.884,01 876,95 4.264,03 0,00 0,00 5.140,98 8.743,03 31/08/2023
812 407500 EDUARDO MASCARENHAS CURI AZEVEDO ANALISTA DO MP BELO HORIZONTE - COMARCA; DIR CONTEUDO JORNALISTICO 12.343,61 2.468,72 0,00 0,00 0,00 0,00 0,00 3.055,00 17.867,33 3.481,27 4.761,97 0,00 0,00 8.243,24 9.624,09 31/08/2023
813 601300 EDUARDO TRAD VIEIRA OFICIAL DO MP BELO HORIZONTE - COMARCA; SUPER DE GESTAO DE PESSOAS-LOTACAO TEMPORARIA 7.506,70 750,67 0,00 0,00 0,00 0,00 390,16 2.105,00 10.752,53 1.673,82 2.071,88 0,00 0,00 3.745,70 7.006,83 31/08/2023
814 257600 EDUARDO VALADARES CABRAL ANALISTA DO MP BELO HORIZONTE - COMARCA; COORD DE INCLUSAO E MOBILIZACAO SOCIAIS 23.070,31 9.228,12 0,00 0,00 0,00 0,00 0,00 2.105,00 34.403,43 5.686,95 7.913,54 0,00 0,00 13.600,49 20.802,94 31/08/2023
815 746800 EDUARDO XAVIER ARAUJO OFICIAL DO MP RIBEIRÃO DAS NEVES - COMARCA; RIBEIRAO DAS NEVES-PJ-02PJ 4.570,25 0,00 0,00 0,00 0,00 0,00 0,00 2.105,00 6.675,25 526,88 257,78 0,00 0,00 784,66 5.890,59 31/08/2023
816 545700 EDVAIR FERREIRA DE CARVALHO OFICIAL DO MP ARAGUARI - COMARCA; ARAGUARI-PJ-06PJ 7.506,70 1.501,34 0,00 0,00 0,00 0,00 440,80 2.105,00 11.553,84 1.951,09 2.338,16 0,00 0,00 4.289,25 7.264,59 31/08/2023
817 401700 EDWANIA AMORIM DO CARMO OFICIAL DO MP BELO HORIZONTE - COMARCA; BH-12PJ JUIZO CRIMINAL-SECRETARIA 12.343,61 3.703,08 0,00 0,00 0,00 0,00 1.239,34 2.105,00 19.391,03 2.545,92 3.664,87 0,00 0,00 6.210,79 13.180,24 31/08/2023
818 303600 EFIGENIO SARAIVA LOPES ANALISTA DO MP BELO HORIZONTE - COMARCA; DIRETORIA DE PAGAMENTO DE PESSOAL-DPAG 23.070,31 6.921,09 5.538,92 0,00 0,00 0,00 0,00 2.105,00 37.635,32 5.098,68 8.323,82 0,00 0,00 13.422,50 24.212,82 31/08/2023
819 286000 ELAINE APARECIDA SILVA BERZOINI OFICIAL DO MP JUIZ DE FORA - COMARCA; JUIZ DE FORA-PJ-07PJ 12.343,61 3.703,08 0,00 0,00 0,00 0,00 772,64 2.105,00 18.924,33 3.459,39 4.645,16 0,00 0,00 8.104,55 10.819,78 31/08/2023
820 509000 ELAINE CANDIDA PONTES OFICIAL DO MP BELO HORIZONTE - COMARCA; BH-02PJ FAMILIA-SECRETARIA 10.341,72 2.068,34 0,00 0,00 0,00 0,00 3.240,43 2.105,00 17.755,49 2.618,98 4.265,16 0,00 0,00 6.884,14 10.871,35 31/08/2023
821 283601 ELAINE CRISTINA MEQUELINO DUARTE ANALISTA DO MP ALFENAS - COMARCA; ALFENAS-PJ-02PJ 18.720,84 6.739,50 0,00 0,00 0,00 0,00 0,00 2.105,00 27.565,34 3.854,60 5.211,97 0,00 0,00 9.066,57 18.498,77 31/08/2023
822 535500 ELAINE DE OLIVEIRA CAMPOS REIS OFICIAL DO MP SANTA LUZIA - COMARCA; SANTA LUZIA-PJ-SECRETARIA 7.506,70 1.501,34 0,00 0,00 0,00 0,00 414,08 2.105,00 11.527,12 1.819,91 2.200,92 0,00 0,00 4.020,83 7.506,29 31/08/2023
823 455700 ELAINE DE OLIVEIRA CASTRO ANALISTA DO MP POMPÉU - COMARCA; POMPEU-PJ-UNPJ 12.343,61 2.468,72 0,00 0,00 0,00 0,00 732,70 3.055,00 18.600,03 3.176,44 4.120,13 0,00 0,00 7.296,57 11.303,46 31/08/2023
824 367200 ELAINE MUNIZ BARBOSA ANALISTA DO MP BELO HORIZONTE - COMARCA; DIRETORIA DE SISTEMAS DE INFORMACAO 20.533,67 6.160,10 0,00 0,00 0,00 0,00 0,00 3.055,00 29.748,77 4.051,95 5.289,40 0,00 0,00 9.341,35 20.407,42 31/08/2023
825 679200 ELAINE RIBEIRO CHAVES ASSESSOR PROCURADOR JUSTICA BELO HORIZONTE - COMARCA; GABINETE DE PROCURADOR DE JUSTIÇA - SALA 614 0,00 0,00 8.810,89 0,00 0,00 0,00 484,18 3.439,40 12.734,47 876,95 2.793,07 0,00 0,00 3.670,02 9.064,45 31/08/2023
826 176900 ELAINE RIBEIRO TAVEIRA OFICIAL DO MP BELO HORIZONTE - COMARCA; DIVISAO FROTA 17.005,40 6.802,16 0,00 0,00 0,00 0,00 0,00 2.105,00 25.912,56 3.590,16 4.674,83 0,00 0,00 8.264,99 17.647,57 31/08/2023
827 496200 ELAINE SABRINA MOREIRA SCHUWARTEN ANALISTA DO MP CORONEL FABRICIANO - COMARCA; CORONEL FABRICIANO-PJ-SECRETARIA 13.588,97 2.717,79 0,00 0,00 0,00 0,00 0,00 2.105,00 18.411,76 3.164,05 4.221,34 0,00 0,00 7.385,39 11.026,37 31/08/2023
828 489200 ELAINE VICENTINO ANALISTA DO MP BELO HORIZONTE - COMARCA; CENTRAL DE APOIO TECNICO-SETOR CONTABIL 12.343,61 4.937,44 0,00 0,00 0,00 0,00 0,00 2.105,00 19.386,05 2.940,91 3.746,35 0,00 0,00 6.687,26 12.698,79 31/08/2023
829 731400 ELBERT MENDES PINHEIRO ASSESSOR PROMOTOR JUSTICA BELO HORIZONTE - COMARCA; COORD ESTADUAL DAS PJS DE HAB. E URBANISMO 0,00 0,00 8.810,89 0,00 0,00 0,00 168,19 2.105,00 11.084,08 876,95 2.757,84 0,00 0,00 3.634,79 7.449,29 31/08/2023
830 244500 ELCI ALVES DE SOUZA ASSESSOR ADMINISTRATIVO II BELO HORIZONTE - COMARCA; CAO-CONFLITOS AGRARIOS-SECRETARIA 0,00 3.002,68 7.506,70 0,00 0,00 0,00 508,06 2.105,00 13.122,44 876,95 3.908,69 0,00 0,00 4.785,64 8.336,80 31/08/2023
831 472500 ELCI VAZ DE OLIVEIRA FILHO ANALISTA DO MP PIUMHI - COMARCA; PIUMHI-PJ-02PJ 12.343,61 6.171,81 0,00 0,00 0,00 0,00 915,72 2.105,00 21.536,14 4.025,32 5.486,69 0,00 0,00 9.512,01 12.024,13 31/08/2023
832 385200 ELCI VIANA REIS OFICIAL DO MP RIO PARDO DE MINAS - COMARCA; RIO PARDO DE MINAS-PJ-SECRETARIA 12.343,61 6.171,81 0,00 0,00 0,00 0,00 0,00 2.105,00 20.620,42 2.743,42 3.452,34 0,00 0,00 6.195,76 14.424,66 31/08/2023
833 289801 ELCIO JOSE DOS SANTOS ANALISTA DO MP BELO HORIZONTE - COMARCA; DIVISAO DE SERVICOS 12.343,61 3.703,08 5.538,92 0,00 0,00 0,00 389,60 2.105,00 24.080,21 3.373,94 6.746,77 0,00 0,00 10.120,71 13.959,50 31/08/2023
834 319600 ELEN TULER DE ALBERGARIA ANALISTA DO MP BELO HORIZONTE - COMARCA; BH-19PJ SAUDE-SECRETARIA 130PJ 23.070,31 11.535,16 0,00 0,00 0,00 0,00 0,00 2.105,00 36.710,47 5.717,14 7.745,65 0,00 0,00 13.462,79 23.247,68 31/08/2023
835 205500 ELIANA ALVES DE SOUSA OFICIAL DO MP GOVERNADOR VALADARES - COMARCA; GOVERNADOR VALADARES-PJ-07PJ 12.343,61 4.937,44 0,00 0,00 0,00 0,00 854,57 2.105,00 20.240,62 3.742,35 5.065,92 0,00 0,00 8.808,27 11.432,35 31/08/2023
836 628800 ELIANA APARECIDA PEREIRA ANALISTA DO MP EXTREMA - COMARCA; EXTREMA-PJ-01PJ 10.516,49 1.051,65 0,00 0,00 0,00 0,00 549,99 2.105,00 14.223,13 2.429,44 3.130,19 0,00 0,00 5.559,63 8.663,50 31/08/2023
837 301700 ELIANA DA SILVEIRA ANALISTA DO MP BELO HORIZONTE - COMARCA; BH-11PJ COMB CRIME ORGANIZ-GAB 081PJ 21.346,53 6.403,96 0,00 0,00 0,00 0,00 23,25 2.105,00 29.878,74 4.221,03 6.069,97 0,00 0,00 10.291,00 19.587,74 31/08/2023
838 251500 ELIANA DE LIMA MILAGRES FONSECA ANALISTA DO MP CONTAGEM - COMARCA; CONTAGEM-PJ-16PJ 23.070,31 9.228,12 0,00 0,00 0,00 0,00 42,30 2.105,00 34.445,73 5.686,95 7.861,40 0,00 0,00 13.548,35 20.897,38 31/08/2023
839 503900 ELIANA DIAS DUTRA FERREIRA OFICIAL DO MP BELO HORIZONTE - COMARCA; DIRETORIA GESTAO COMPRAS LICITACOES 10.516,49 2.103,30 0,00 0,00 0,00 0,00 0,00 2.105,00 14.724,79 2.150,92 3.019,56 0,00 0,00 5.170,48 9.554,31 31/08/2023
840 413900 ELIANA PINTO DE OLIVEIRA NEVES ANALISTA DO MP CAMPO BELO - COMARCA; CAMPO BELO-PJ-04PJ 17.559,01 3.511,80 0,00 0,00 0,00 0,00 0,00 2.105,00 23.175,81 3.152,28 4.042,64 0,00 0,00 7.194,92 15.980,89 31/08/2023
841 228200 ELIANA RODRIGUES DA CUNHA PINHEIRO OFICIAL DO MP BELO HORIZONTE - COMARCA; DIRETORIA DE PROJETOS DE EDIFICACOES 17.559,01 7.023,60 0,00 280,95 0,00 7.686,34 45,07 2.105,00 34.699,97 4.276,05 7.001,96 0,00 0,00 11.278,01 23.421,96 31/08/2023
842 386600 ELIANA SABINO CHAVES PESSOA ANALISTA DO MP CARATINGA - COMARCA; CARATINGA-PJ-06PJ 18.130,77 12.691,55 0,00 155,52 0,00 8.760,30 0,00 2.105,00 41.843,14 4.712,52 7.539,04 0,00 0,00 12.251,56 29.591,58 31/08/2023
843 677500 ELIANA SILVA ANDRADE ASSESSOR PROMOTOR JUSTICA TRÊS CORACOES - COMARCA; TRES CORACOES-PJ-06PJ 0,00 0,00 8.810,89 0,00 0,00 0,00 431,19 2.105,00 11.347,08 876,95 2.845,21 0,00 0,00 3.722,16 7.624,92 31/08/2023
844 297400 ELIANE AUGUSTA RIBEIRO COSTA ANALISTA DO MP CONSELHEIRO LAFAIETE - COMARCA; CONSELHEIRO LAFAIETE-PJ-05PJ 23.070,31 6.921,09 0,00 0,00 0,00 0,00 0,00 2.105,00 32.096,40 4.579,57 5.999,02 0,00 0,00 10.578,59 21.517,81 31/08/2023
845 510600 ELIANE CAROLINA MAIA ANALISTA DO MP IGARAPÉ - COMARCA; IGARAPE-PJ-03PJ 12.343,61 3.703,08 0,00 0,00 0,00 0,00 892,88 2.105,00 19.044,57 3.373,94 4.353,12 0,00 0,00 7.727,06 11.317,51 31/08/2023
846 262600 ELIANE FERREIRA SOARES ASSESSOR ADMINISTRATIVO II BELO HORIZONTE - COMARCA; BH-18PJ DIREITOS HUMANOS-SECRETARIA 0,00 3.753,35 7.506,70 0,00 0,00 0,00 1.250,03 2.105,00 14.615,08 876,95 3.944,11 0,00 0,00 4.821,06 9.794,02 31/08/2023
847 204400 ELIANE GLAUCE DE QUEIROS MAIA OFICIAL DO MP GUANHÃES - COMARCA; GUANHAES-PJ-02PJ 20.533,67 8.213,47 0,00 0,00 0,00 0,00 0,00 2.105,00 30.852,14 4.380,49 5.815,87 0,00 0,00 10.196,36 20.655,78 31/08/2023
848 91800 ELIANE KAPLER ALVES OFICIAL DO MP BELO HORIZONTE - COMARCA; DIVISAO DE CONTROLE IMOBILIARIO 23.070,31 16.149,22 0,00 0,00 0,00 7.616,52 619,66 5.575,82 53.031,53 5.795,34 9.926,45 1.629,57 0,00 17.351,36 35.680,17 31/08/2023
849 334200 ELIANE MARCIA DE OLIVEIRA BRITO OFICIAL DO MP BELO HORIZONTE - COMARCA; BH-08PJ JUIZADO ESPECIAL-SECRETARIA 7.506,70 2.252,01 0,00 0,00 0,00 0,00 482,65 2.105,00 12.346,36 2.017,98 2.501,76 0,00 0,00 4.519,74 7.826,62 31/08/2023
850 365900 ELIANE MARIA DE OLIVEIRA FERREIRA OFICIAL DO MP SETE LAGOAS - COMARCA; SETE LAGOAS-PJ-SEC CRIMINAIS 12.343,61 8.640,53 0,00 0,00 0,00 0,00 3.384,44 2.105,00 26.473,58 4.815,31 6.627,24 0,00 0,00 11.442,55 15.031,03 31/08/2023
851 320600 ELIANE STADLER DE SOUZA OFICIAL DO MP MONTES CLAROS - COMARCA; MONTES CLAROS-PJ-13PJ 11.577,56 3.473,27 0,00 0,00 0,00 0,00 0,00 2.105,00 17.155,83 3.160,91 4.152,20 0,00 0,00 7.313,11 9.842,72 31/08/2023
852 448900 ELIAS PEREIRA OTONI ASSESSOR ADMINISTRATIVO II BELO HORIZONTE - COMARCA; BH-18PJ DIREITOS HUMANOS-SECRETARIA 0,00 0,00 7.506,70 0,00 0,00 0,00 356,70 2.105,00 9.968,40 876,95 2.214,15 0,00 0,00 3.091,10 6.877,30 31/08/2023
853 495400 ELICA SOUZA GASPARONI MATTOS OFICIAL DO MP UBÁ - COMARCA; UBA-PJ-06PJ 10.516,49 2.103,30 0,00 0,00 0,00 0,00 0,00 2.105,00 14.724,79 2.001,58 2.843,25 0,00 0,00 4.844,83 9.879,96 31/08/2023
854 86600 ELIENE FERREIRA DA SILVA OFICIAL DO MP BELO HORIZONTE - COMARCA; BH-22PJ PES COM DEF E IDOSOS-SECRETARIA 25.920,35 20.736,29 0,00 0,00 0,00 5.795,34 318,16 5.575,83 58.345,97 5.795,34 9.295,87 9.066,68 0,00 24.157,89 34.188,08 31/08/2023
855 183800 ELIENE MARIA CUNHA OFICIAL DO MP BELO HORIZONTE - COMARCA; DIRETORIA DE PESSOAL ADMINISTRATIVO - DPAD 21.346,53 8.538,61 0,00 0,00 0,00 0,00 0,00 2.105,00 31.990,14 4.562,57 6.443,88 0,00 0,00 11.006,45 20.983,69 31/08/2023
856 172300 ELINA APARECIDA SILVA ASSESSOR ADMINISTRATIVO I BELO HORIZONTE - COMARCA; BH-19PJ SAUDE-SECRETARIA 130PJ 0,00 1.949,08 4.872,71 0,00 0,00 0,00 322,43 2.105,00 9.249,22 876,95 1.989,65 0,00 0,00 2.866,60 6.382,62 31/08/2023
857 492501 ELINE CAMPOS DA FONSECA CUNHA ANALISTA DO MP PONTE NOVA - COMARCA; PONTE NOVA-PJ-05PJ 12.343,61 2.468,72 0,00 0,00 0,00 0,00 917,17 2.105,00 17.834,50 3.176,44 4.224,40 0,00 0,00 7.400,84 10.433,66 31/08/2023
858 618900 ELISA MOURA VIEIRA MARCATTI OFICIAL DO MP BELO HORIZONTE - COMARCA; GRUPO ESP PROM JUST DEF PROB ADM PAT PUB 7.506,70 750,67 0,00 0,00 0,00 0,00 401,94 3.055,00 11.714,31 1.673,82 1.990,00 0,00 0,00 3.663,82 8.050,49 31/08/2023
859 256500 ELISABETE NOGUEIRA ANALISTA DO MP RIBEIRÃO DAS NEVES - COMARCA; RIBEIRAO NEVES-SEC PJ EXECUCAO PENAL 18.720,84 9.360,42 0,00 0,00 0,00 0,00 0,00 2.105,00 30.186,26 4.861,56 6.580,33 0,00 0,00 11.441,89 18.744,37 31/08/2023
860 355000 ELISANGELA DARLANTONI RIBEIRO OFICIAL DO MP ARAXÁ - COMARCA; ARAXA-PJ-05PJ 11.954,43 3.586,33 0,00 0,00 0,00 0,00 284,91 5.213,15 21.038,82 3.334,94 4.583,10 0,00 0,00 7.918,04 13.120,78 31/08/2023
861 604400 ELISANGELA DEMASI FERREIRA MOREIRA ANALISTA DO MP CABO VERDE - COMARCA; CABO VERDE-PJ-UNPJ 12.343,61 1.234,36 0,00 0,00 0,00 0,00 64,63 2.105,00 15.747,60 982,16 3.128,41 0,00 0,00 4.110,57 11.637,03 31/08/2023
862 323800 ELISANGELA GONCALVES DE JESUS OFICIAL DO MP BELO HORIZONTE - COMARCA; DIRETORIA DE PESSOAL ADMINISTRATIVO - DPAD 12.343,61 3.703,08 0,00 0,00 0,00 0,00 993,57 2.105,00 19.145,26 3.459,39 4.593,02 0,00 0,00 8.052,41 11.092,85 31/08/2023
863 507400 ELISANGELA MIGUEL DA ROCHA SILVA ASSESSOR ADMINISTRATIVO II BELO HORIZONTE - COMARCA; CGMP-DIR INSP CORR PROCED PROC DISC 0,00 0,00 7.506,70 0,00 0,00 0,00 398,57 2.105,00 10.010,27 876,95 2.288,64 0,00 0,00 3.165,59 6.844,68 31/08/2023
864 261400 ELISANGELA REZENDE MENDES OFICIAL DO MP POUSO ALEGRE - COMARCA; POUSO ALEGRE-PJ-05PJ 12.343,61 4.937,44 0,00 0,00 0,00 0,00 772,64 2.105,00 20.158,69 3.656,89 4.930,30 0,00 0,00 8.587,19 11.571,50 31/08/2023
865 534100 ELISANGELA ROSINE SILVA OFICIAL DO MP UBERABA - COMARCA; UBERABA-PJ-06PJ 7.506,70 1.501,34 0,00 0,00 0,00 0,00 578,40 2.105,00 11.691,44 1.990,17 2.446,73 0,00 0,00 4.436,90 7.254,54 31/08/2023
866 634300 ELIUDE GRACA DAMASIO ROSARIO FRANCELINO OFICIAL DO MP BELO HORIZONTE - COMARCA; BH-18PJ VIOLENCIA DOMESTICA-SECRETARIA 6.603,76 660,38 0,00 0,00 0,00 0,00 380,13 4.005,00 11.649,27 1.571,37 1.832,24 0,00 0,00 3.403,61 8.245,66 31/08/2023
867 461700 ELIZABETH ALEIXO DA PAZ ANALISTA DO MP JUIZ DE FORA - COMARCA; JUIZ DE FORA-PJ-18PJ 12.343,61 2.468,72 0,00 0,00 0,00 0,00 917,17 2.105,00 17.834,50 3.176,44 4.224,40 0,00 0,00 7.400,84 10.433,66 31/08/2023
868 227300 ELIZABETH COIMBRA FELIX OFICIAL DO MP JABOTICATUBAS - COMARCA; JABOTICATUBAS-PJ-UNPJ 18.130,77 9.065,39 0,00 0,00 0,00 0,00 39,89 2.105,00 29.341,05 4.712,52 6.357,17 0,00 0,00 11.069,69 18.271,36 31/08/2023
869 354800 ELIZABETH DOS REIS OFICIAL DO MP BELO HORIZONTE - COMARCA; DIVISAO DE MATERIAIS 12.343,61 3.703,08 0,00 0,00 0,00 0,00 793,51 2.105,00 18.945,20 3.459,39 4.593,02 0,00 0,00 8.052,41 10.892,79 31/08/2023
870 612000 ELIZABETH MARIA DE QUEIROZ TANIGUCHI OFICIAL DO MP BELO HORIZONTE - COMARCA; SUPERINTENDENCIA GESTÃO DE PESSOAS 6.818,83 681,88 0,00 0,00 279,00 0,00 384,16 2.105,00 10.268,87 1.553,60 1.808,92 0,00 0,00 3.362,52 6.906,35 31/08/2023
871 452800 ELIZANGELA MARIA DAVI OFICIAL DO MP ARCOS - COMARCA; ARCOS-PJ-01PJ 7.506,70 1.501,34 0,00 0,00 0,00 0,00 445,55 2.105,00 11.558,59 1.845,90 2.193,73 0,00 0,00 4.039,63 7.518,96 31/08/2023
872 496300 ELIZANGELA MARQUES PINTO COELHO OFICIAL DO MP BELO HORIZONTE - COMARCA; DIRETORIA DE PESSOAL ADMINISTRATIVO - DPAD 10.516,49 2.103,30 0,00 0,00 0,00 0,00 0,00 2.105,00 14.724,79 2.001,58 2.740,68 0,00 0,00 4.742,26 9.982,53 31/08/2023
873 422500 ELIZETE FORTES DA CUNHA ANALISTA DO MP RIBEIRÃO DAS NEVES - COMARCA; RIBEIRAO DAS NEVES-PJ-07PJ 17.947,40 3.626,15 0,00 0,00 0,00 0,00 0,00 2.105,00 23.678,55 3.262,06 4.350,14 0,00 0,00 7.612,20 16.066,35 31/08/2023
874 506100 ELLEM CRISTINA ROCHA FONSECA BOWEN ANALISTA DO MP GOVERNADOR VALADARES - COMARCA; COORD REG PJ DEF EDU DIR CRIANCA ADOL RIODOCE 12.343,61 2.468,72 0,00 0,00 0,00 0,00 790,87 4.005,00 19.608,20 3.176,44 4.224,40 0,00 0,00 7.400,84 12.207,36 31/08/2023
875 468200 ELLEN CRISTINA BERNARDES DARE ANALISTA DO MP TRÊS PONTAS - COMARCA; TRES PONTAS-PJ-02PJ 12.343,61 2.468,72 0,00 0,00 0,00 0,00 917,17 3.055,00 18.784,50 3.176,44 4.172,26 0,00 0,00 7.348,70 11.435,80 31/08/2023
876 418800 ELLEN CRISTINA DE QUEIROZ FERREIRA ANALISTA DO MP BELO HORIZONTE - COMARCA; CENTRAL DE APOIO TECNICO-SETOR CONTABIL 17.559,01 3.511,80 0,00 0,00 0,00 0,00 0,00 3.530,00 24.600,81 982,16 3.247,58 0,00 0,00 4.229,74 20.371,07 31/08/2023
877 328401 ELLEN CRISTINA FERREIRA MORAIS MONTEIRO ANALISTA DO MP CAMANDUCAIA - COMARCA; CAMANDUCAIA-PJ-UNPJ 17.559,01 4.565,34 0,00 0,00 0,00 0,00 0,00 2.105,00 24.229,35 3.320,84 4.181,73 0,00 0,00 7.502,57 16.726,78 31/08/2023
878 556100 ELLEN CRISTINE BIANCHIN DA SILVA OFICIAL DO MP SÃO GONÇALO DO SAPUCAÍ - COMARCA; SAO GONCALO DO SAPUCAI-PJ-02PJ 7.506,70 1.501,34 0,00 0,00 0,00 0,00 457,80 2.105,00 11.570,84 1.793,93 2.111,26 0,00 0,00 3.905,19 7.665,65 31/08/2023
879 714500 ELLEN PROENCA CARVALHO DE ARAUJO ASSESSOR PROMOTOR JUSTICA MARIANA - COMARCA; MARIANA-PJ-02PJ 0,00 0,00 8.810,89 0,00 0,00 0,00 424,25 2.105,00 11.340,14 876,95 2.845,21 0,00 0,00 3.722,16 7.617,98 31/08/2023
880 447100 ELLEN ROSANA DE MACEDO BORGES OFICIAL DO MP UBERLÂNDIA - COMARCA; UBERLANDIA-PJ-17PJ 10.858,90 2.171,78 0,00 0,00 0,00 0,00 797,23 2.105,00 15.932,91 2.768,03 3.617,09 0,00 0,00 6.385,12 9.547,79 31/08/2023
881 477700 ELMA JACOB OFICIAL DO MP BELO HORIZONTE - COMARCA; COORD DE GABINETE DO PGJ 10.516,49 8.413,20 0,00 222,15 0,00 6.748,36 0,00 2.105,00 28.005,20 2.809,70 4.320,70 0,00 0,00 7.130,40 20.874,80 31/08/2023
882 123300 ELMA PAULA DOS SANTOS COELHO OFICIAL DO MP BELO HORIZONTE - COMARCA; BH-19PJ SAUDE-SECRETARIA 130PJ 23.070,31 23.070,31 0,00 0,00 0,00 5.795,34 0,00 2.105,00 54.040,96 5.795,34 9.452,28 8.550,66 0,00 23.798,28 30.242,68 31/08/2023
883 728200 ELMITA XISTO DO VALLE ASSESSOR ADMINISTRATIVO I BELO HORIZONTE - COMARCA; DIRET DE FORMACAO, APERFEIC. E POS-GRADUACAO 0,00 0,00 4.872,71 0,00 0,00 0,00 139,72 2.105,00 7.117,43 876,95 1.206,21 0,00 0,00 2.083,16 5.034,27 31/08/2023
884 356500 ELOISA CARDOSO SILVA FRANCA OFICIAL DO MP PEÇANHA - COMARCA; PECANHA-PJ-SECRETARIA 7.506,70 2.252,01 0,00 0,00 0,00 0,00 482,49 2.105,00 12.346,20 2.017,98 2.546,39 0,00 0,00 4.564,37 7.781,83 31/08/2023
885 251901 ELOISA COSTA E SILVA ANALISTA DO MP BELO HORIZONTE - COMARCA; CENT ESTAD COOPERACAO TECNICO-JURIDICA 12.343,61 4.937,44 0,00 0,00 0,00 0,00 0,00 2.105,00 19.386,05 3.622,15 5.213,43 0,00 0,00 8.835,58 10.550,47 31/08/2023
886 400400 ELOIZA MARIA FERRI PIRES DA SILVA OFICIAL DO MP BELO HORIZONTE - COMARCA; ASSESSORIA DE COMUNICACAO INTEGRADA 10.858,90 3.257,67 4.020,58 0,00 0,00 0,00 745,70 2.105,00 20.987,85 2.934,66 5.109,91 0,00 0,00 8.044,57 12.943,28 31/08/2023
887 258000 ELSO CECIANO PALMEIRA OFICIAL DO MP BELO HORIZONTE - COMARCA; DIRET DE PESSOAL DO MINISTERIO PUBLICO - DPMP 15.949,86 12.759,89 5.928,90 0,00 0,00 0,00 0,00 2.105,00 36.743,65 4.374,51 7.437,68 0,00 0,00 11.812,19 24.931,46 31/08/2023
888 206900 ELVIRA RITA DOS SANTOS ANALISTA DO MP BELO HORIZONTE - COMARCA; CENTRAL DE APOIO TECNICO-SETOR CONTABIL 23.070,31 9.228,12 0,00 0,00 0,00 9.243,20 546,29 8.064,54 50.152,46 5.329,92 8.652,33 0,00 0,00 13.982,25 36.170,21 31/08/2023
889 506800 ELVIS FERREIRA DA SILVA ANALISTA DO MP BELO HORIZONTE - COMARCA; DIRETORIA DE SISTEMAS DE INFORMACAO 12.343,61 2.468,72 0,00 0,00 0,00 0,00 917,17 3.055,00 18.784,50 3.176,44 4.067,99 0,00 0,00 7.244,43 11.540,07 31/08/2023
890 602400 ELZA MARIA MOREIRA MUNIZ ANALISTA DO MP RIO PARANAÍBA - COMARCA; RIO PARANAIBA-PJ-UNPJ 12.343,61 2.468,72 0,00 0,00 0,00 0,00 64,63 2.105,00 16.981,96 2.630,20 3.319,25 0,00 0,00 5.949,45 11.032,51 31/08/2023
891 368401 ELZIRA SIMOES DOS SANTOS ASSESSOR DE GABINETE I BELO HORIZONTE - COMARCA; ASSESSORIA DE COMUNICACAO INTEGRADA 0,00 7.252,31 18.130,77 0,00 0,00 0,00 186,14 4.135,65 29.704,87 876,95 7.969,50 0,00 0,00 8.846,45 20.858,42 31/08/2023
892 437400 EMANOELLE DA SILVA RODRIGUES OFICIAL DO MP UNAÍ - COMARCA; UNAI-PJ-03PJ 10.015,59 2.003,12 0,00 0,00 0,00 0,00 735,32 3.055,00 15.809,03 2.536,04 3.220,00 0,00 0,00 5.756,04 10.052,99 31/08/2023
893 458900 EMANUELLE CONRAD SILVA FREDERICO NAVES ANALISTA DO MP ALFENAS - COMARCA; ALFENAS-PJ-05PJ 17.559,01 3.511,80 0,00 0,00 0,00 0,00 0,00 3.055,00 24.125,81 3.152,28 3.990,50 0,00 0,00 7.142,78 16.983,03 31/08/2023
894 284100 EMERSON MAGNO ALMEIDA PEDROSA DA FONSECA ANALISTA DO MP BELO HORIZONTE - COMARCA; CENTRAL DE APOIO TECNICO-SETOR CONTABIL 23.070,31 6.921,09 0,00 0,00 0,00 0,00 0,00 3.055,00 33.046,40 4.579,57 2.681,31 0,00 0,00 7.260,88 25.785,52 31/08/2023
895 179900 EMERSON MORAIS DIAS OFICIAL DO MP BELO HORIZONTE - COMARCA; SUPERINTENDÊNCIA DE ENGENHARIA E ARQUITETURA 21.346,53 8.538,61 0,00 0,00 0,00 0,00 0,00 2.105,00 31.990,14 4.562,57 6.078,75 0,00 0,00 10.641,32 21.348,82 31/08/2023
896 488700 EMERSON SIQUEIRA DE SOUSA TEIXEIRA ANALISTA DO MP ITANHOMI - COMARCA; ITANHOMI-PJ-UNPJ 12.343,61 3.209,34 0,00 0,00 0,00 0,00 892,41 2.105,00 18.550,36 3.294,94 4.239,07 0,00 0,00 7.534,01 11.016,35 31/08/2023
897 194200 EMILIA ALVES FERREIRA RAMOS OFICIAL DO MP UBERLÂNDIA - COMARCA; UBERLANDIA-PJ-SEC CIVEIS CRIMINAIS 14.960,00 5.984,00 0,00 0,00 0,00 0,00 0,00 2.105,00 23.049,00 3.131,99 4.013,34 0,00 0,00 7.145,33 15.903,67 31/08/2023
898 679500 EMILY DIAS LEMOS E SILVA ASSESSOR PROCURADOR JUSTICA BELO HORIZONTE - COMARCA; GABINETE DE PROCURADOR DE JUSTIÇA - SALA 307 0,00 0,00 8.810,89 0,00 0,00 0,00 458,30 4.005,00 13.274,19 876,95 2.740,94 0,00 0,00 3.617,89 9.656,30 31/08/2023
899 620700 EMILY FONTANA DE SIQUEIRA ANALISTA DO MP BELO HORIZONTE - COMARCA; BH-18PJ VIOLENCIA DOMESTICA-SECRETARIA 11.577,56 1.157,76 0,00 0,00 0,00 0,00 603,76 4.005,00 17.344,08 2.700,31 3.464,27 0,00 0,00 6.164,58 11.179,50 31/08/2023
900 297000 ENEIDA SOARES COSTA MELO ANALISTA DO MP PIUMHI - COMARCA; PIUMHI-PJ-01PJ 23.070,31 6.921,09 0,00 0,00 0,00 0,00 0,00 2.105,00 32.096,40 4.579,57 6.103,29 0,00 0,00 10.682,86 21.413,54 31/08/2023
901 276000 ENEZIO RODRIGUES DE SOUZA FILHO OFICIAL DO MP UBERLÂNDIA - COMARCA; UBERLANDIA-PJ-10PJ 12.343,61 3.703,08 0,00 0,00 0,00 0,00 772,64 2.105,00 18.924,33 3.459,39 4.645,16 0,00 0,00 8.104,55 10.819,78 31/08/2023
902 387700 ENI MARIA DOS REIS OFICIAL DO MP POUSO ALEGRE - COMARCA; POUSO ALEGRE-PJ-07PJ 12.343,61 3.703,08 0,00 0,00 0,00 0,00 0,00 2.105,00 18.151,69 2.348,42 3.379,73 0,00 0,00 5.728,15 12.423,54 31/08/2023
903 605100 ENIA MAIA ASSESSOR ADMINISTRATIVO IV BELO HORIZONTE - COMARCA; DIRETORIA DE ORCAMENTO-DIOR/SPC 14.488,22 1.448,82 0,00 0,00 0,00 0,00 979,26 2.105,00 19.021,30 2.205,51 4.945,69 0,00 0,00 7.151,20 11.870,10 31/08/2023
904 612200 ENILDO GOMES MEIRA FILHO ANALISTA DO MP BELO HORIZONTE - COMARCA; BH-23PJ INFRACIONAL-ASS JURIDICA 11.577,56 1.157,76 0,00 0,00 0,00 0,00 2.219,86 3.146,60 18.101,78 3.188,87 4.065,34 0,00 0,00 7.254,21 10.847,57 31/08/2023
905 553700 ENIVALDO NOVATO PUBLIO ANALISTA DO MP DIVINÓPOLIS - COMARCA; DIVINOPOLIS-PJ-09PJ 12.343,61 2.468,72 0,00 0,00 0,00 0,00 0,00 2.105,00 16.917,33 2.385,94 2.937,25 0,00 0,00 5.323,19 11.594,14 31/08/2023
906 680600 ENZO JOSE FERES SOUZA JABER ASSESSOR PROMOTOR JUSTICA NOVO CRUZEIRO - COMARCA; NOVO CRUZEIRO-PJ-SECRETARIA 0,00 0,00 8.810,89 0,00 0,00 0,00 459,68 2.105,00 11.375,57 876,95 2.932,58 0,00 0,00 3.809,53 7.566,04 31/08/2023
907 417300 ERIC BARATTI DA SILVA ANALISTA DO MP FRUTAL - COMARCA; FRUTAL-PJ-02PJ 13.588,97 2.717,79 0,00 0,00 0,00 0,00 0,00 3.055,00 19.361,76 2.930,02 4.066,86 0,00 0,00 6.996,88 12.364,88 31/08/2023
908 637600 ERIC DA ROCHA CHEHUEN ANALISTA DO MP LIMA DUARTE - COMARCA; LIMA DUARTE-PJ-UNPJ 11.212,54 1.121,25 0,00 0,00 0,00 0,00 643,58 2.105,00 15.082,37 982,16 4.168,68 0,00 0,00 5.150,84 9.931,53 31/08/2023
909 398900 ERIC TEIXEIRA SILVA OFICIAL DO MP UBERLÂNDIA - COMARCA; UBERLANDIA-PJ-SEC CIVEIS CRIMINAIS 11.954,43 3.586,33 0,00 0,00 0,00 0,00 692,39 2.105,00 18.338,15 3.252,83 4.491,39 0,00 0,00 7.744,22 10.593,93 31/08/2023
910 703600 ERICA CORDEIRO SANTOS ASSESSOR PROMOTOR JUSTICA MINAS NOVAS - COMARCA; MINAS NOVAS-PJ-UNPJ 0,00 0,00 8.810,89 0,00 0,00 0,00 424,25 2.105,00 11.340,14 876,95 2.845,21 0,00 0,00 3.722,16 7.617,98 31/08/2023
911 274200 ERICA DE SOUZA ANDRADE OFICIAL DO MP CURVELO - COMARCA; CURVELO-PJ-03PJ 14.960,00 4.488,00 0,00 0,00 0,00 0,00 0,00 2.105,00 21.553,00 2.892,63 3.615,63 0,00 0,00 6.508,26 15.044,74 31/08/2023
912 225700 ERICA GOMES DO COUTO OFICIAL DO MP BELO HORIZONTE - COMARCA; BH-21PJ TUTELA FUNDACOES-SECRETARIA 18.720,84 7.488,34 0,00 0,00 0,00 0,00 0,00 4.005,00 30.214,18 3.974,42 5.229,60 0,00 0,00 9.204,02 21.010,16 31/08/2023
913 632600 ERICA LEONOR MARTINS OFICIAL DO MP RESENDE COSTA - COMARCA; RESENDE COSTA-PJ-UNPJ 7.270,07 727,01 0,00 0,00 0,00 0,00 442,03 2.105,00 10.544,11 1.791,76 2.236,99 0,00 0,00 4.028,75 6.515,36 31/08/2023
914 524800 ERICA MACHADO DA COSTA E SOUZA ANALISTA DO MP BELO HORIZONTE - COMARCA; ASSESS TECNICO-JUR JUNTO AS PROC. DE JUST 13.588,97 2.717,79 0,00 0,00 0,00 0,00 7.053,24 2.105,00 25.465,00 3.099,16 6.128,82 0,00 0,00 9.227,98 16.237,02 31/08/2023
915 249500 ERICA RODRIGUES ANDRADE OFICIAL DO MP SÃO FRANCISCO - COMARCA; SAO FRANCISCO-PJ-02PJ 12.343,61 4.937,44 0,00 0,00 0,00 0,00 45,26 2.105,00 19.431,31 2.940,91 3.798,49 0,00 0,00 6.739,40 12.691,91 31/08/2023
916 260800 ERICA VIANA GIARDINI DE OLIVEIRA OFICIAL DO MP BELO HORIZONTE - COMARCA; DIRETORIA GESTAO COMPRAS LICITACOES 13.160,57 5.264,23 4.940,75 0,00 0,00 0,00 896,94 2.105,00 26.367,49 3.616,96 6.681,01 0,00 0,00 10.297,97 16.069,52 31/08/2023
917 299800 ERICH DOUGLAS RIBEIRO GARCIA ANALISTA DO MP BELO HORIZONTE - COMARCA; CENTRAL DE APOIO TECNICO-SETOR CONTABIL 22.191,68 6.657,50 0,00 0,00 0,00 0,00 0,00 2.105,00 30.954,18 4.396,82 5.839,44 0,00 0,00 10.236,26 20.717,92 31/08/2023
918 365000 ERICK EDUARDO JOSE DA SILVA OFICIAL DO MP JUIZ DE FORA - COMARCA; JUIZ DE FORA-PJ-12PJ 7.506,70 2.252,01 0,00 0,00 0,00 0,00 469,85 2.105,00 12.333,56 2.017,98 2.501,76 0,00 0,00 4.519,74 7.813,82 31/08/2023
919 227400 ERIKA DE LAET GOULART BOECHAT OFICIAL DO MP BELO HORIZONTE - COMARCA; BH-17PJ PATRIMONIO PUBLICO-SECRETARIA 18.720,84 7.488,34 0,00 0,00 0,00 0,00 41,19 2.105,00 28.355,37 4.573,49 6.213,98 0,00 0,00 10.787,47 17.567,90 31/08/2023
920 681301 ERIKA FERNANDA ELISEU FERREIRA ASSESSOR PROCURADOR JUSTICA BELO HORIZONTE - COMARCA; GABINETE DE PROCURADOR DE JUSTIÇA - SALA 411 0,00 0,00 8.810,89 0,00 0,00 0,00 465,15 2.105,00 11.381,04 876,95 2.963,94 0,00 0,00 3.840,89 7.540,15 31/08/2023
921 285100 ERIKA FERREIRA DA SILVA OFICIAL DO MP JUIZ DE FORA - COMARCA; JUIZ DE FORA-PJ-11PJ 12.343,61 3.703,08 0,00 0,00 0,00 0,00 1.001,15 2.105,00 19.152,84 3.459,39 4.645,16 0,00 0,00 8.104,55 11.048,29 31/08/2023
922 420100 ERIKA JEANINE VERSIANI DE CASTRO ANALISTA DO MP BELO HORIZONTE - COMARCA; CAO-EDUCACAO 18.130,77 3.626,15 0,00 0,00 0,00 0,00 0,00 2.105,00 23.861,92 3.262,06 4.201,13 0,00 0,00 7.463,19 16.398,73 31/08/2023
923 677100 ERIKA LAYS CARDOSO FERNANDES ASSESSOR PROMOTOR JUSTICA GRAO MOGOL - COMARCA; GRAO MOGOL-PJ-UNPJ 0,00 0,00 8.810,89 0,00 0,00 0,00 449,41 2.105,00 11.365,30 876,95 2.845,21 0,00 0,00 3.722,16 7.643,14 31/08/2023
924 606900 ERIKA MARIA BARBOSA ANALISTA DO MP BELO HORIZONTE - COMARCA; CAO-SAUDE 11.577,56 1.157,76 0,00 0,00 0,00 0,00 0,00 2.105,00 14.840,32 1.899,31 2.609,49 0,00 0,00 4.508,80 10.331,52 31/08/2023
925 491000 ERIKA ROCHA PEREIRA E SILVA COORDENADOR II BELO HORIZONTE - COMARCA; DIR GOVERNANCA TECNOLOGIA INFORMACAO 20.533,67 4.106,73 0,00 0,00 0,00 0,00 58,64 2.105,00 26.804,04 3.535,77 6.861,10 0,00 1.500,64 11.897,51 14.906,53 31/08/2023
926 283201 ERIKA STEHLING COORDENADOR I BELO HORIZONTE - COMARCA; CENTRAL DE APOIO TECNICO-SETOR DE ENGENHARIA 16.469,17 4.940,75 0,00 0,00 0,00 0,00 1.052,23 2.105,00 24.567,15 3.716,69 6.528,38 0,00 0,00 10.245,07 14.322,08 31/08/2023
927 254000 ERLANDIA DA SILVA MENDES OFICIAL DO MP IPATINGA - COMARCA; IPATINGA-PJ-03PJ 17.559,01 8.779,51 0,00 280,94 0,00 7.978,46 38,63 2.105,00 36.741,55 4.557,00 7.328,43 0,00 0,00 11.885,43 24.856,12 31/08/2023
928 348500 ERNILANDIA DE OLIVEIRA DIAS OFICIAL DO MP MONTES CLAROS - COMARCA; MONTES CLAROS-PJ-16PJ 12.343,61 3.703,08 0,00 0,00 0,00 0,00 0,00 2.105,00 18.151,69 2.348,42 3.421,21 0,00 0,00 5.769,63 12.382,06 31/08/2023
929 199300 ERTON PORTINARI DE ANDRADE OFICIAL DO MP SETE LAGOAS - COMARCA; SETE LAGOAS-PJ-05PJ 20.533,67 10.266,84 0,00 0,00 0,00 0,00 0,00 2.105,00 32.905,51 5.037,57 6.485,22 0,00 0,00 11.522,79 21.382,72 31/08/2023
930 618800 ESLY DE CARLA AYALLA BARBOSA MENDES OFICIAL DO MP NOVA LIMA - COMARCA; NOVA LIMA-PJ-SECRETARIA 6.818,83 681,88 0,00 0,00 0,00 0,00 355,59 2.105,00 9.961,30 1.500,36 1.732,07 0,00 0,00 3.232,43 6.728,87 31/08/2023
931 537000 ESTANISLAU CORREIA ALMEIDA JUNIOR OFICIAL DO MP UBERLÂNDIA - COMARCA; UBERLANDIA-PJ-25PJ 7.506,70 1.501,34 0,00 0,00 0,00 0,00 570,57 2.105,00 11.683,61 1.819,91 2.200,92 0,00 0,00 4.020,83 7.662,78 31/08/2023
932 692100 ESTEFANIA FARIA FERREIRA ASSESSOR PROCURADOR JUSTICA BELO HORIZONTE - COMARCA; GABINETE DE PROCURADOR DE JUSTIÇA - SALA 814 0,00 0,00 8.810,89 0,00 0,00 0,00 490,50 3.630,03 12.931,42 876,95 2.932,58 0,00 0,00 3.809,53 9.121,89 31/08/2023
933 326900 ESTER ALICE PIMENTA OFICIAL DO MP BELO HORIZONTE - COMARCA; COORD DE INCLUSAO E MOBILIZACAO SOCIAIS 12.343,61 3.703,08 0,00 0,00 0,00 0,00 993,57 2.105,00 19.145,26 3.459,39 4.645,16 0,00 0,00 8.104,55 11.040,71 31/08/2023
934 503700 ESTHER GONCALVES FONSECA ANALISTA DO MP BELO HORIZONTE - COMARCA; DIR CRIACAO E MIDIAS 12.343,61 2.468,72 0,00 0,00 0,00 0,00 721,00 2.105,00 17.638,33 3.176,44 4.224,40 0,00 0,00 7.400,84 10.237,49 31/08/2023
935 475600 ETIENE DE FATIMA OLIVEIRA PEREIRA ANALISTA DO MP PATROCÍNIO - COMARCA; PATROCINIO-PJ-04PJ 12.343,61 2.468,72 0,00 0,00 0,00 0,00 713,23 2.105,00 17.630,56 982,16 4.346,47 0,00 0,00 5.328,63 12.301,93 31/08/2023
936 428800 EUGENIA RODRIGUES TRAJANO BORGES ANALISTA DO MP UBERABA - COMARCA; UBERABA-PJ-10PJ 17.559,01 3.511,80 0,00 0,00 0,00 0,00 0,00 3.055,00 24.125,81 3.152,28 4.042,64 0,00 0,00 7.194,92 16.930,89 31/08/2023
937 272700 EUGENIO DE BARCELOS FILHO OFICIAL DO MP FRUTAL - COMARCA; FRUTAL-PJ-SECRETARIA 12.343,61 3.703,08 0,00 0,00 0,00 0,00 0,00 2.105,00 18.151,69 2.348,42 3.421,21 0,00 0,00 5.769,63 12.382,06 31/08/2023
938 254100 EULALIA ALVES MIRANDA LUCAS OFICIAL DO MP ALMENARA - COMARCA; ALMENARA-PJ-02PJ 15.949,86 7.974,93 0,00 0,00 0,00 0,00 0,00 2.105,00 26.029,79 3.608,91 4.597,63 0,00 0,00 8.206,54 17.823,25 31/08/2023
939 641200 EUNICE ELVIRA DA SILVA MATOS OFICIAL DO MP BELO HORIZONTE - COMARCA; BH-14PJ DEFESA CONSUMIDOR-SECRETARIA 6.603,76 660,38 0,00 0,00 0,00 0,00 345,45 2.105,00 9.714,59 1.446,14 1.651,43 0,00 0,00 3.097,57 6.617,02 31/08/2023
940 557900 EURIPEDES JOSUE PERES OFICIAL DO MP IBIÁ - COMARCA; IBIA-PJ-UNPJ 7.506,70 1.501,34 0,00 0,00 0,00 0,00 1.231,67 2.105,00 12.344,71 1.914,03 2.418,69 0,00 0,00 4.332,72 8.011,99 31/08/2023
941 225800 EURO CESAR VIEIRA BARBOSA ANALISTA DO MP BELO HORIZONTE - COMARCA; BH-17PJ PATRIMONIO PUBLICO-SECRETARIA 23.070,31 9.228,12 0,00 0,00 0,00 0,00 0,00 2.105,00 34.403,43 5.348,01 7.108,45 0,00 0,00 12.456,46 21.946,97 31/08/2023
942 199400 EUSTAQUIO ADAILTON LIMA E SILVA OFICIAL DO MP MONTES CLAROS - COMARCA; MONTES CLAROS-PJ-15PJ 20.533,67 14.373,58 0,00 0,00 0,00 0,00 0,00 2.105,00 37.012,25 5.366,11 7.082,44 0,00 0,00 12.448,55 24.563,70 31/08/2023
943 548000 EVA VILMA LEAO REIS JULIO OFICIAL DO MP BELO HORIZONTE - COMARCA; BH-07PJ 01 TRIBUNAL JURI-SECRETARIA 7.506,70 3.002,68 0,00 0,00 0,00 0,00 516,81 2.105,00 13.131,19 2.190,05 2.757,64 0,00 0,00 4.947,69 8.183,50 31/08/2023
944 517000 EVALDO SENA COSTA FILHO ANALISTA DO MP CONTAGEM - COMARCA; CONTAGEM-PJ-20PJ 12.343,61 4.937,44 0,00 0,00 0,00 0,00 443,55 6.943,69 24.668,29 3.271,63 4.282,03 0,00 0,00 7.553,66 17.114,63 31/08/2023
945 217500 EVELANGE LEAO RABELO ASSESSOR ADMINISTRATIVO II BELO HORIZONTE - COMARCA; CAO-PESSOAS IDOSAS E PESSOAS COM DEFICIENCIA 0,00 3.002,68 7.506,70 0,00 0,00 0,00 499,36 2.105,00 13.113,74 876,95 3.531,24 0,00 0,00 4.408,19 8.705,55 31/08/2023
946 679600 EVERTON BARBOSA DA SILVA ASSESSOR PROCURADOR JUSTICA BELO HORIZONTE - COMARCA; GABINETE DE PROCURADOR DE JUSTIÇA - SALA 510 0,00 0,00 8.810,89 0,00 0,00 0,00 424,25 2.105,00 11.340,14 876,95 2.845,21 0,00 0,00 3.722,16 7.617,98 31/08/2023
947 540400 EVIE SARAMELLA DE RESENDE OFICIAL DO MP BARBACENA - COMARCA; BARBACENA-PJ-08PJ 7.506,70 1.501,34 0,00 0,00 0,00 0,00 397,60 2.105,00 11.510,64 1.793,93 2.163,40 0,00 0,00 3.957,33 7.553,31 31/08/2023
948 469000 EWERTON CARDOSO DE SA RODRIGUES ANALISTA DO MP CAMPO BELO - COMARCA; CAMPO BELO-PJ-02PJ 12.343,61 2.468,72 0,00 0,00 0,00 0,00 919,52 2.105,00 17.836,85 3.176,44 4.120,13 0,00 0,00 7.296,57 10.540,28 31/08/2023
949 368900 FABIANA BARBOSA SIQUEIRA OFICIAL DO MP BELO HORIZONTE - COMARCA; CAO-ORDEM ECONOMICA E TRIBUTARIA-SECRETARIA 13.588,97 4.076,69 0,00 0,00 0,00 0,00 0,00 2.105,00 19.770,66 3.173,84 4.395,49 0,00 0,00 7.569,33 12.201,33 31/08/2023
950 273800 FABIANA CARNEIRO AMORIM OFICIAL DO MP BELO HORIZONTE - COMARCA; BH-23PJ CIVEL-COORD ADM CIVEL 15.447,01 4.634,10 4.346,47 0,00 0,00 0,00 0,00 2.105,00 26.532,58 2.993,93 5.189,30 0,00 0,00 8.183,23 18.349,35 31/08/2023
951 519300 FABIANA DE OLIVEIRA LOUREIRO ANALISTA DO MP BELO HORIZONTE - COMARCA; BH-09PJ AUDITORIA MILITAR-SECRETARIA 12.343,61 2.468,72 0,00 0,00 0,00 0,00 802,72 2.105,00 17.720,05 3.176,44 4.224,40 0,00 0,00 7.400,84 10.319,21 31/08/2023
952 363400 FABIANA DOURADO DUPIN VIEGAS ANALISTA DO MP BELO HORIZONTE - COMARCA; GABINETE DE PROCURADOR DE JUSTIÇA - SALA 705 21.346,53 6.403,96 0,00 0,00 0,00 0,00 0,00 2.105,00 29.855,49 4.221,03 5.920,97 0,00 0,00 10.142,00 19.713,49 31/08/2023
953 410800 FABIANA DUARTE QUITITE ANALISTA DO MP BELO HORIZONTE - COMARCA; BH-15PJ M AMB PAT HIST CULT-GAB 116PJ 18.130,77 3.626,15 0,00 0,00 0,00 0,00 0,00 2.105,00 23.861,92 3.262,06 4.201,13 0,00 0,00 7.463,19 16.398,73 31/08/2023
954 419500 FABIANA EULALIA DOS SANTOS ANALISTA DO MP SÃO JOÃO DEL REI - COMARCA; SAO JOAO DEL REI-PJ-01PJ 18.130,77 3.626,15 0,00 0,00 0,00 0,00 0,00 2.105,00 23.861,92 3.262,06 4.452,70 0,00 0,00 7.714,76 16.147,16 31/08/2023
955 725200 FABIANA LOPES DE JESUS ASSESSOR PROMOTOR JUSTICA CONTAGEM - COMARCA; CONTAGEM-PJ-01PJ 0,00 0,00 8.810,89 0,00 0,00 0,00 363,81 2.105,00 11.279,70 876,95 2.757,84 0,00 0,00 3.634,79 7.644,91 31/08/2023
956 700300 FABIANA MARCIA DE SOUZA ASSESSOR ADMINISTRATIVO II BELO HORIZONTE - COMARCA; DIRET DE CONTROLE E DE MANUTENCAO DE IMOVEIS 0,00 0,00 7.506,70 0,00 0,00 0,00 365,45 3.227,55 11.099,70 876,95 2.392,87 0,00 0,00 3.269,82 7.829,88 31/08/2023
957 331500 FABIANA PACHECO OFICIAL DO MP GUAXUPÉ - COMARCA; GUAXUPE-PJ-01PJ 12.343,61 3.703,08 0,00 0,00 0,00 0,00 793,64 4.005,00 20.845,33 3.459,39 4.540,89 0,00 0,00 8.000,28 12.845,05 31/08/2023
958 510700 FABIANA PEREIRA SANTOS BORGES ANALISTA DO MP BELO HORIZONTE - COMARCA; DIRETORIA DE SISTEMAS DE INFORMACAO 12.343,61 2.468,72 5.538,92 0,00 0,00 0,00 1.039,56 2.105,00 23.495,81 3.176,44 6.409,50 0,00 0,00 9.585,94 13.909,87 31/08/2023
959 181700 FABIANA SOUZA FERREIRA OFICIAL DO MP BELO HORIZONTE - COMARCA; BH-19PJ SAUDE-SECRETARIA 150PJ 7.506,70 3.002,68 0,00 0,00 0,00 0,00 506,01 2.105,00 13.120,39 2.190,05 2.653,36 0,00 0,00 4.843,41 8.276,98 31/08/2023
960 272900 FABIANA STOCKLER LEITE OFICIAL DO MP LAJINHA - COMARCA; LAJINHA-PJ-SECRETARIA 12.343,61 6.171,81 0,00 0,00 0,00 0,00 1.146,36 2.105,00 21.766,78 4.025,32 5.434,55 0,00 0,00 9.459,87 12.306,91 31/08/2023
961 225500 FABIANE DE FATIMA PORTELLA ANALISTA DO MP BELO HORIZONTE - COMARCA; BH-18PJ DIREITOS HUMANOS-SECRETARIA 23.070,31 9.228,12 0,00 0,00 0,00 0,00 0,00 2.105,00 34.403,43 4.948,70 6.636,22 0,00 0,00 11.584,92 22.818,51 31/08/2023
962 433800 FABIANE DINIZ MATTOS ANALISTA DO MP BELO HORIZONTE - COMARCA; BH-23PJ INFRACIONAL-ASS JURIDICA 18.130,77 3.626,15 0,00 0,00 0,00 0,00 3.356,78 5.905,00 31.018,70 3.799,14 5.349,23 0,00 0,00 9.148,37 21.870,33 31/08/2023
963 455000 FABIANO CARVALHO DA SILVA ANALISTA DO MP LAVRAS - COMARCA; LAVRAS-PJ-05PJ 12.343,61 2.468,72 0,00 0,00 0,00 0,00 938,50 2.105,00 17.855,83 3.176,44 4.371,28 0,00 0,00 7.547,72 10.308,11 31/08/2023
964 498800 FABIANO FURTADO PESSOA COELHO ANALISTA DO MP BELO HORIZONTE - COMARCA; DIRETORIA DE REDES E BANCOS DE DADOS 12.343,61 2.468,72 0,00 0,00 0,00 0,00 873,81 2.105,00 17.791,14 3.176,44 4.638,43 0,00 0,00 7.814,87 9.976,27 31/08/2023
965 663000 FABIANO MARQUES CORREA ASSESSOR ADMINISTRATIVO II BELO HORIZONTE - COMARCA; DIRETORIA DE SUPORTE E MANUTENCAO 0,00 0,00 7.506,70 0,00 0,00 0,00 434,93 3.729,12 11.670,75 876,95 2.392,87 0,00 0,00 3.269,82 8.400,93 31/08/2023
966 394600 FABIANO PALHARES SILVA ANALISTA DO MP BELO HORIZONTE - COMARCA; CENTRAL DE APOIO TECN-SETOR DE MEIO AMBIENTE 18.720,84 5.616,25 0,00 0,00 0,00 0,00 0,00 2.105,00 26.442,09 3.674,88 5.069,55 0,00 0,00 8.744,43 17.697,66 31/08/2023
967 676600 FABIANO RESENDE VELOSO ASSESSOR PROCURADOR JUSTICA BELO HORIZONTE - COMARCA; GABINETE DE PROCURADOR DE JUSTIÇA - SALA 1002 0,00 0,00 8.810,89 0,00 0,00 0,00 424,25 2.105,00 11.340,14 876,95 2.845,21 0,00 0,00 3.722,16 7.617,98 31/08/2023
968 444400 FABIANO SARAIVA MEDEIROS ANALISTA DO MP BETIM - COMARCA; BETIM-PJ-11PJ 17.559,01 3.511,80 0,00 0,00 0,00 0,00 0,00 2.105,00 23.175,81 3.152,28 3.938,36 0,00 0,00 7.090,64 16.085,17 31/08/2023
969 408700 FABIANO SOARES PORTILHO ANALISTA DO MP JUIZ DE FORA - COMARCA; GAECO REGIONAL DA ZONA DA MATA-JUIZ DE FORA 18.130,77 3.626,15 0,00 0,00 0,00 0,00 0,00 2.105,00 23.861,92 3.433,60 4.700,37 0,00 0,00 8.133,97 15.727,95 31/08/2023
970 442600 FABIO CARVALHO VIEIRA ANALISTA DO MP MONTES CLAROS - COMARCA; MONTES CLAROS-PJ-06PJ 12.343,61 2.468,72 0,00 0,00 0,00 0,00 713,23 2.105,00 17.630,56 3.176,44 4.224,40 0,00 0,00 7.400,84 10.229,72 31/08/2023
971 716600 FABIO DAMASCENA MONTEIRO DE CARVALHO ASSESSOR PROMOTOR JUSTICA JACINTO - COMARCA; JACINTO-PJ-UNPJ 0,00 0,00 8.810,89 0,00 0,00 0,00 421,34 2.105,00 11.337,23 876,95 2.845,21 0,00 0,00 3.722,16 7.615,07 31/08/2023
972 702700 FABIO JUNIOR COSTA BARREIROS ASSESSOR ADMINISTRATIVO II BELO HORIZONTE - COMARCA; DIVISAO DE MANUTENCAO PREDIAL 0,00 0,00 7.506,70 0,00 0,00 0,00 271,88 4.005,00 11.783,58 876,95 1.225,19 0,00 0,00 2.102,14 9.681,44 31/08/2023
973 240101 FABIO JUNQUEIRA DE ASSIS FONSECA OFICIAL DO MP BELO HORIZONTE - COMARCA; BH-17PJ PATRIMONIO PUBLICO-SECRETARIA 10.341,72 3.102,52 0,00 0,00 0,00 0,00 832,82 2.105,00 16.382,06 2.862,82 3.758,05 0,00 0,00 6.620,87 9.761,19 31/08/2023
974 271500 FABIO LUIZ VIEIRA OFICIAL DO MP SANTA VITÓRIA - COMARCA; SANTA VITORIA-PJ-UNPJ 12.343,61 3.703,08 0,00 0,00 0,00 0,00 993,57 2.105,00 19.145,26 3.459,39 4.593,02 0,00 0,00 8.052,41 11.092,85 31/08/2023
975 213100 FABIO PRATES GONCALVES ASSESSOR ADMINISTRATIVO IV BELO HORIZONTE - COMARCA; DIR RELACOES INSTITUCIONAIS 0,00 5.795,29 14.488,22 0,00 0,00 0,00 284,02 2.105,00 22.672,53 876,95 7.322,72 0,00 0,00 8.199,67 14.472,86 31/08/2023
976 436700 FABIO SANTIAGO DE CARVALHO OFICIAL DO MP POÇO FUNDO - COMARCA; POCO FUNDO-PJ-UNPJ 11.212,54 2.242,51 0,00 0,00 0,00 0,00 817,66 2.105,00 16.377,71 2.857,96 3.902,53 0,00 0,00 6.760,49 9.617,22 31/08/2023
977 208400 FABIOLA DE SOUSA CARDOSO ANALISTA DO MP BELO HORIZONTE - COMARCA; CGMP-DIR ESTAGIO PROBATORIO E ORIENT 23.070,31 9.228,12 6.160,10 0,00 0,00 0,00 -11.266,65 2.105,00 29.296,88 5.795,34 12.541,68 868,57 0,00 19.205,59 10.091,29 31/08/2023
978 392200 FABIOLA LEROY COSTA ANALISTA DO MP ESMERALDAS - COMARCA; ESMERALDAS-PJ-01PJ 12.343,61 3.703,08 0,00 0,00 0,00 0,00 732,70 4.005,00 20.784,39 3.373,94 4.509,54 0,00 0,00 7.883,48 12.900,91 31/08/2023
979 409000 FABIOLA MONTEIRO DE CARVALHO CASTRO ANALISTA DO MP BOM SUCESSO - COMARCA; BOM SUCESSO-PJ-UNPJ 15.447,01 3.089,40 0,00 0,00 0,00 0,00 0,00 2.105,00 20.641,41 3.067,61 3.920,40 0,00 0,00 6.988,01 13.653,40 31/08/2023
980 525800 FABRICIA ALVES DANTAS OFICIAL DO MP MONTES CLAROS - COMARCA; MONTES CLAROS-PJ-01PJ 9.699,77 1.939,95 0,00 0,00 0,00 0,00 708,53 2.105,00 14.453,25 2.442,82 3.212,56 0,00 0,00 5.655,38 8.797,87 31/08/2023
981 263400 FABRICIA PINTO TEIXEIRA SANTIAGO OFICIAL DO MP BELO HORIZONTE - COMARCA; CAO-FUNDACOES-SECRETARIA 17.559,01 7.023,60 0,00 0,00 0,00 0,00 0,00 2.105,00 26.687,61 3.714,17 4.749,59 0,00 0,00 8.463,76 18.223,85 31/08/2023
982 420800 FABRICIO BERNARDES DE OLIVEIRA OFICIAL DO MP ITURAMA - COMARCA; ITURAMA-PJ-02PJ 11.212,54 2.242,51 0,00 0,00 0,00 0,00 817,66 3.055,00 17.327,71 2.857,96 3.850,39 0,00 0,00 6.708,35 10.619,36 31/08/2023
983 474000 FABRICIO DE FREITAS SALES ANALISTA DO MP MONTES CLAROS - COMARCA; COORD REG DEF ORDEM ECON TRIB MONTES CLAROS 12.343,61 2.468,72 0,00 0,00 0,00 0,00 917,17 2.105,00 17.834,50 3.176,44 4.224,40 0,00 0,00 7.400,84 10.433,66 31/08/2023
984 510100 FABRICIO FURTADO ASSIS DO CARMO ANALISTA DO MP BELO HORIZONTE - COMARCA; SERVICO MEDICO-DEPTO PERIC MEDICA SAUDE OCUP 12.343,61 2.468,72 0,00 0,00 0,00 0,00 1.972,17 4.005,00 20.789,50 3.176,44 4.701,46 0,00 0,00 7.877,90 12.911,60 31/08/2023
985 519600 FABRICIO GONTIJO SALVATI ANALISTA DO MP BELO HORIZONTE - COMARCA; CENTRAL DE APOIO TECNICO 12.343,61 2.468,72 0,00 0,00 0,00 0,00 892,41 2.105,00 17.809,74 3.176,44 4.224,40 0,00 0,00 7.400,84 10.408,90 31/08/2023
986 637400 FABRICIO HENRIQUE DA SILVA PASSOS ANALISTA DO MP BELO HORIZONTE - COMARCA; DIR CRIACAO E MIDIAS 12.343,61 1.234,36 4.020,58 0,00 0,00 0,00 2.687,56 2.105,00 22.391,11 2.893,48 6.049,33 0,00 0,00 8.942,81 13.448,30 31/08/2023
987 428200 FABRICIO ORZIL VIANA ANALISTA DO MP SANTA LUZIA - COMARCA; SANTA LUZIA-PJ-04PJ 12.343,61 2.468,72 0,00 0,00 0,00 0,00 936,61 2.105,00 17.853,94 3.176,44 4.224,40 0,00 0,00 7.400,84 10.453,10 31/08/2023
988 455600 FABRICIO PAIVA DA ROCHA ANALISTA DO MP SÃO JOÃO DEL REI - COMARCA; SAO JOAO DEL REI-PJ-06PJ 12.343,61 2.468,72 0,00 0,00 0,00 0,00 917,17 3.055,00 18.784,50 3.176,44 4.172,26 0,00 0,00 7.348,70 11.435,80 31/08/2023
989 511500 FABRICIO RENE CARDOSO DE PADUA ANALISTA DO MP SÃO SEBASTIÃO DO PARAÍSO - COMARCA; SAO SEBASTIAO DO PARAISO-PJ-03PJ 12.343,61 2.468,72 0,00 0,00 0,00 0,00 994,93 2.105,00 17.912,26 3.176,44 4.224,40 0,00 0,00 7.400,84 10.511,42 31/08/2023
990 496100 FABRICIO RESENDE GONCALVES OFICIAL DO MP ENTRE-RIOS DE MINAS - COMARCA; ENTRE RIOS DE MINAS-PJ-UNPJ 9.699,77 1.939,95 0,00 0,00 0,00 0,00 546,98 2.105,00 14.291,70 2.442,82 3.264,70 0,00 0,00 5.707,52 8.584,18 31/08/2023
991 650300 FABRICIO ROBERTO AZEVEDO OFICIAL DO MP NOVA SERRANA - COMARCA; NOVA SERRANA-PJ-04PJ 6.097,80 609,78 0,00 0,00 0,00 0,00 323,73 2.105,00 9.136,31 1.314,89 1.531,88 0,00 0,00 2.846,77 6.289,54 31/08/2023
992 514900 FADUA MARIA DRUMOND CHEQUER ANALISTA DO MP BETIM - COMARCA; BETIM-PJ-12PJ 12.343,61 2.468,72 0,00 0,00 0,00 0,00 913,61 2.105,00 17.830,94 3.176,44 4.267,01 0,00 0,00 7.443,45 10.387,49 31/08/2023
993 282500 FANNY FERREIRA MELO OFICIAL DO MP ARAXÁ - COMARCA; ARAXA-PJ-03PJ 13.160,57 3.948,17 0,00 0,00 0,00 0,00 0,00 2.105,00 19.213,74 3.482,45 4.881,46 0,00 0,00 8.363,91 10.849,83 31/08/2023
994 692500 FARID JUNIOR NUNES DA SILVA ASSESSOR PROCURADOR JUSTICA BELO HORIZONTE - COMARCA; GABINETE DE PROCURADOR DE JUSTIÇA - SALA 912 0,00 0,00 8.810,89 0,00 0,00 0,00 469,85 2.105,00 11.385,74 876,95 2.740,94 0,00 0,00 3.617,89 7.767,85 31/08/2023
995 744000 FARLEY LOPES DE ALCANTARA OFICIAL DO MP RIBEIRÃO DAS NEVES - COMARCA; RIBEIRAO DAS NEVES-PJ-SEC CIVEL 4.570,25 0,00 0,00 0,00 0,00 0,00 0,00 3.055,00 7.625,25 526,88 257,78 0,00 0,00 784,66 6.840,59 31/08/2023
996 382800 FATIMA DE OLIVEIRA COELHO E SILVA OFICIAL DO MP BELO HORIZONTE - COMARCA; DIRETORIA DE ADMINISTRACAO FINANCEIRA 11.212,54 4.485,02 4.020,58 0,00 0,00 0,00 289,20 5.259,90 25.267,24 3.097,73 5.438,58 0,00 367,80 8.904,11 16.363,13 31/08/2023
997 398601 FELIPE ANTONIO HORTA DE PAULA ANALISTA DO MP BELO HORIZONTE - COMARCA; PROC. JUSTICA DIR. DIFUSOS E COLETIVOS-SEC 12.343,61 3.209,34 0,00 0,00 0,00 0,00 0,00 2.105,00 17.657,95 2.500,73 3.101,96 0,00 0,00 5.602,69 12.055,26 31/08/2023
998 430900 FELIPE BOY VIEIRA ANALISTA DO MP BELO HORIZONTE - COMARCA; DIRETORIA DE SEGURANCA 15.949,86 3.189,97 6.160,10 0,00 0,00 0,00 0,00 2.105,00 27.404,93 982,16 5.245,70 0,00 0,00 6.227,86 21.177,07 31/08/2023
999 631700 FELIPE DE MORAIS SIMOES COELHO ANALISTA DO MP BELO HORIZONTE - COMARCA; BH-18PJ VIOLENCIA DOMESTICA-SECRETARIA 10.516,49 1.051,65 0,00 0,00 0,00 0,00 564,78 2.105,00 14.237,92 2.429,44 3.182,33 0,00 0,00 5.611,77 8.626,15 31/08/2023
1000 549100 FELIPE FERNANDES ALVIM ANALISTA DO MP LAJINHA - COMARCA; LAJINHA-PJ-UNPJ 12.343,61 2.468,72 0,00 0,00 0,00 0,00 0,00 3.055,00 17.867,33 2.382,23 2.930,88 0,00 0,00 5.313,11 12.554,22 31/08/2023
1001 693100 FELIPE FROIS DO AMARAL ASSESSOR PROMOTOR JUSTICA RIBEIRÃO DAS NEVES - COMARCA; RIBEIRAO NEVES-SEC PJ EXECUCAO PENAL 0,00 0,00 8.810,89 0,00 0,00 0,00 469,62 2.105,00 11.385,51 876,95 2.880,45 0,00 0,00 3.757,40 7.628,11 31/08/2023
1002 620100 FELIPE GOMES DE AZEVEDO OFICIAL DO MP BELO HORIZONTE - COMARCA; DIVISAO DE SERVICOS 6.818,83 681,88 4.020,58 0,00 0,00 0,00 562,80 2.105,00 14.189,09 1.500,36 3.232,73 0,00 448,37 5.181,46 9.007,63 31/08/2023
1003 601600 FELIPE RODRIGUES DE SIQUEIRA ANALISTA DO MP BELO HORIZONTE - COMARCA; BH-02PJ FAMILIA-SECRETARIA 12.343,61 1.234,36 0,00 0,00 0,00 0,00 64,63 2.105,00 15.747,60 982,16 2.424,25 0,00 0,00 3.406,41 12.341,19 31/08/2023
1004 628900 FELIX FERNANDO JUNIO VIEIRA ANALISTA DO MP BELO HORIZONTE - COMARCA; BH-21PJ TUTELA DAS FUNDACOES-ASS CURADORES 11.577,56 1.852,41 0,00 0,00 0,00 0,00 779,19 3.055,00 17.264,16 2.811,46 3.572,59 0,00 0,00 6.384,05 10.880,11 31/08/2023
1005 544500 FELLIPE LEMOS MARCONDES BUENO ANALISTA DO MP SÃO SEBASTIÃO DO PARAÍSO - COMARCA; SAO SEBASTIAO DO PARAISO-PJ-04PJ 12.343,61 2.468,72 0,00 0,00 0,00 0,00 908,34 2.105,00 17.825,67 3.266,00 4.341,46 0,00 0,00 7.607,46 10.218,21 31/08/2023
1006 688500 FELLIPE TADEU DE ANDRADE RAMOS ASSESSOR PROCURADOR JUSTICA BELO HORIZONTE - COMARCA; GABINETE DE PROCURADOR DE JUSTIÇA - SALA 907 0,00 0,00 8.810,89 0,00 0,00 0,00 469,62 2.105,00 11.385,51 876,95 2.932,58 0,00 0,00 3.809,53 7.575,98 31/08/2023
1007 612600 FERNANDA ADRIANA DE PAULA GUIDO ANALISTA DO MP BELO HORIZONTE - COMARCA; CENT ESTAD COOPERACAO TECNICO-JURIDICA 11.577,56 1.157,76 0,00 0,00 473,71 0,00 851,57 3.675,57 17.736,17 2.790,66 3.646,84 0,00 0,00 6.437,50 11.298,67 31/08/2023
1008 508400 FERNANDA AGANETTI MATTOS DE OLIVEIRA ANALISTA DO MP BELO HORIZONTE - COMARCA; CENT ESTAD COOPERACAO TECNICO-JURIDICA 12.343,61 2.468,72 0,00 0,00 0,00 0,00 713,23 4.005,00 19.530,56 982,16 4.827,83 0,00 0,00 5.809,99 13.720,57 31/08/2023
1009 453600 FERNANDA ALBERNAZ RABELO ANALISTA DO MP BELO HORIZONTE - COMARCA; GABINETE DE PROCURADOR DE JUSTIÇA - SALA 616 12.343,61 2.468,72 0,00 0,00 0,00 0,00 713,23 3.055,00 18.580,56 3.176,44 4.224,40 0,00 0,00 7.400,84 11.179,72 31/08/2023
1010 255600 FERNANDA ALINA DE ALMEIDA ANDRADE OFICIAL DO MP BELO HORIZONTE - COMARCA; SUPER DE GESTAO DE PESSOAS-LOTACAO TEMPORARIA 12.343,61 4.937,44 0,00 0,00 0,00 0,00 58,60 2.105,00 19.444,65 4.094,62 5.675,41 0,00 0,00 9.770,03 9.674,62 31/08/2023
1011 443200 FERNANDA ALMEIDA LOPES ANALISTA DO MP CONTAGEM - COMARCA; CONTAGEM-PJ-10PJ 17.559,01 3.511,80 0,00 0,00 0,00 0,00 309,04 8.326,33 29.706,18 3.152,28 3.938,36 0,00 0,00 7.090,64 22.615,54 31/08/2023
1012 281100 FERNANDA ANANIAS MEIRA ANALISTA DO MP BELO HORIZONTE - COMARCA; BH-23PJ INFRACIONAL-ASS JURIDICA 22.191,68 6.657,50 0,00 0,00 0,00 0,00 4.451,02 2.105,00 35.405,20 5.108,98 6.867,63 0,00 0,00 11.976,61 23.428,59 31/08/2023
1013 539000 FERNANDA BARBOSA ALVES ANALISTA DO MP UBERLÂNDIA - COMARCA; GAECO REGIONAL DE UBERLANDIA 12.343,61 2.468,72 0,00 0,00 520,00 0,00 728,01 3.055,00 19.115,34 3.323,31 4.424,21 0,00 0,00 7.747,52 11.367,82 31/08/2023
1014 451200 FERNANDA BLOISE PRADO OFICIAL DO MP BELO HORIZONTE - COMARCA; GAECO - SECRETARIA 10.516,49 2.103,30 0,00 0,00 0,00 0,00 773,50 2.105,00 15.498,29 2.670,21 3.546,60 0,00 0,00 6.216,81 9.281,48 31/08/2023
1015 427900 FERNANDA BRAGA CARNEIRO BICALHO ANALISTA DO MP PEÇANHA - COMARCA; PECANHA-PJ-SECRETARIA 12.343,61 2.468,72 0,00 0,00 0,00 0,00 732,72 2.105,00 17.650,05 3.176,44 4.172,26 0,00 0,00 7.348,70 10.301,35 31/08/2023
1016 507100 FERNANDA CABRINI VAZ MOTA ANALISTA DO MP BELO HORIZONTE - COMARCA; DIVISAO DE MATERIAIS 12.343,61 2.468,72 4.020,58 0,00 0,00 0,00 1.171,33 4.005,00 24.009,24 982,16 5.718,60 0,00 0,00 6.700,76 17.308,48 31/08/2023
1017 259800 FERNANDA CALZAVARA DE SOUSA OFICIAL DO MP BELO HORIZONTE - COMARCA; DIRET DE INFORMACAO E CONHECIMENTO-DINC/CEAF 17.559,01 7.023,60 6.160,10 0,00 0,00 0,00 2.738,90 3.055,00 36.536,61 3.714,17 7.248,95 0,00 0,00 10.963,12 25.573,49 31/08/2023
1018 494400 FERNANDA CAMPOS BARATA OFICIAL DO MP JUIZ DE FORA - COMARCA; JUIZ DE FORA-PJ-08PJ 7.506,70 1.501,34 0,00 0,00 0,00 0,00 495,13 2.105,00 11.608,17 1.845,90 2.245,87 0,00 0,00 4.091,77 7.516,40 31/08/2023
1019 555600 FERNANDA CAROLINE RIBEIRO ANALISTA DO MP BELO HORIZONTE - COMARCA; DIRETORIA GESTAO CONTRATOS CONVENIOS 12.343,61 2.468,72 0,00 0,00 0,00 0,00 0,00 2.105,00 16.917,33 2.385,94 2.936,23 0,00 0,00 5.322,17 11.595,16 31/08/2023
1020 692000 FERNANDA CESAR SILVA ASSESSOR PROCURADOR JUSTICA BELO HORIZONTE - COMARCA; GABINETE DE PROCURADOR DE JUSTIÇA - SALA 809 0,00 0,00 8.810,89 0,00 0,00 0,00 456,13 2.105,00 11.372,02 876,95 2.845,21 0,00 0,00 3.722,16 7.649,86 31/08/2023
1021 294500 FERNANDA COSTA FLORES OFICIAL DO MP PARÁ DE MINAS - COMARCA; PARA DE MINAS-PJ-04PJ 13.160,57 3.948,17 0,00 0,00 0,00 0,00 0,00 2.105,00 19.213,74 2.977,42 3.959,84 0,00 0,00 6.937,26 12.276,48 31/08/2023
1022 344500 FERNANDA CRISTINA DE SOUZA PAZ ASSESSOR ADMINISTRATIVO II BELO HORIZONTE - COMARCA; CENTRAL DE APOIO TECN-SETOR DE MEIO AMBIENTE 0,00 0,00 7.506,70 0,00 0,00 0,00 366,53 2.105,00 9.978,23 876,95 2.214,15 0,00 0,00 3.091,10 6.887,13 31/08/2023
1023 538100 FERNANDA CRISTINA DOS SANTOS ROSA OFICIAL DO MP BELO HORIZONTE - COMARCA; SUPERINTENDENCIA LOGISTICA SERVICOS 7.506,70 3.002,68 0,00 0,00 0,00 0,00 475,62 2.105,00 13.090,00 2.404,29 3.128,30 0,00 0,00 5.532,59 7.557,41 31/08/2023
1024 337800 FERNANDA CRISTINA ROLAND CLIMACO MENDES COORDENADOR II BELO HORIZONTE - COMARCA; DIRETORIA DE PAGAMENTO DE PESSOAL-DPAG 20.533,67 6.160,10 0,00 0,00 0,00 0,00 0,00 2.105,00 28.798,77 3.455,95 6.048,84 0,00 911,70 10.416,49 18.382,28 31/08/2023
1025 545400 FERNANDA CUNHA GUIMARAES ANALISTA DO MP BELO HORIZONTE - COMARCA; CAO-VIOLENCIA DOMESTICA E FAMILIAR 12.343,61 2.468,72 0,00 0,00 0,00 0,00 900,32 2.105,00 17.817,65 3.266,00 4.476,11 0,00 0,00 7.742,11 10.075,54 31/08/2023
1026 429801 FERNANDA CUNHA PINHEIRO DA SILVA ANALISTA DO MP BELO HORIZONTE - COMARCA; ASSESSORIA DE COMUNICACAO INTEGRADA 12.343,61 2.468,72 0,00 0,00 0,00 0,00 743,57 2.105,00 17.660,90 3.176,44 4.120,13 0,00 0,00 7.296,57 10.364,33 31/08/2023
1027 408000 FERNANDA DAS NEVES RAMOS ANALISTA DO MP BELO HORIZONTE - COMARCA; SUPER DE GESTAO DE PESSOAS-LOTACAO TEMPORARIA 18.130,77 3.626,15 0,00 0,00 0,00 0,00 0,00 2.105,00 23.861,92 3.262,06 4.452,70 0,00 0,00 7.714,76 16.147,16 31/08/2023
1028 496000 FERNANDA DE ALMEIDA VIANA ANALISTA DO MP BELO HORIZONTE - COMARCA; PROC JUST ATUACAO TRIBUNAIS SUPERIORES-GAB002 12.343,61 2.468,72 0,00 0,00 0,00 0,00 917,17 4.005,00 19.734,50 3.176,44 4.120,13 0,00 0,00 7.296,57 12.437,93 31/08/2023
1029 266700 FERNANDA DE CASTRO LUCAS OFICIAL DO MP BELO HORIZONTE - COMARCA; DIRET DE DESENV DE RECURSOS HUMANOS-DDRH 17.559,01 7.023,60 6.160,10 0,00 0,00 0,00 2.282,42 3.055,00 36.080,13 3.714,17 7.123,42 0,00 0,00 10.837,59 25.242,54 31/08/2023
1030 433200 FERNANDA DE FIGUEIREDO NORTE ANALISTA DO MP BELO HORIZONTE - COMARCA; ASSESS JUR DO CONS SUPERIOR DO MINISTERIO PUB 18.130,77 3.626,15 0,00 0,00 0,00 0,00 0,00 2.105,00 23.861,92 3.459,95 4.634,13 0,00 0,00 8.094,08 15.767,84 31/08/2023
1031 419200 FERNANDA DE MIRANDA MARTINS SIMOES ANALISTA DO MP UBERLÂNDIA - COMARCA; UBERLANDIA-PJ-17PJ 18.130,77 3.626,15 0,00 0,00 0,00 0,00 0,00 3.055,00 24.811,92 3.262,06 4.201,13 0,00 0,00 7.463,19 17.348,73 31/08/2023
1032 441400 FERNANDA DE MORAIS PINTO ANALISTA DO MP BELO HORIZONTE - COMARCA; PROC. JUSTICA DIR. DIFUSOS E COLETIVOS-SEC 17.559,01 3.511,80 0,00 0,00 0,00 0,00 0,00 2.105,00 23.175,81 3.152,28 4.042,64 0,00 0,00 7.194,92 15.980,89 31/08/2023
1033 432200 FERNANDA DE MOURA GUIMARAES ANALISTA DO MP BELO HORIZONTE - COMARCA; BH-26 CRIME CONT CRIAN ADOL-SECRETARIA 17.559,01 3.511,80 0,00 0,00 0,00 0,00 0,00 2.105,00 23.175,81 3.152,28 4.042,64 0,00 0,00 7.194,92 15.980,89 31/08/2023
1034 461800 FERNANDA DE OLIVEIRA SANTOS ANALISTA DO MP JUIZ DE FORA - COMARCA; JUIZ DE FORA-PJ-21PJ 14.960,00 3.889,60 0,00 0,00 0,00 0,00 0,00 3.055,00 21.904,60 2.796,88 4.132,79 0,00 0,00 6.929,67 14.974,93 31/08/2023
1035 432500 FERNANDA DE PAULA PINTO ANALISTA DO MP BELO HORIZONTE - COMARCA; PROC JUST ATUACAO TRIBUNAIS SUPERIORES-GAB003 17.559,01 3.511,80 0,00 0,00 0,00 0,00 0,00 3.055,00 24.125,81 3.152,28 4.042,64 0,00 0,00 7.194,92 16.930,89 31/08/2023
1036 431600 FERNANDA DIAS BARBOSA PEREIRA ANALISTA DO MP BELO HORIZONTE - COMARCA; BH-02PJ FAMILIA-SECRETARIA 17.559,01 3.511,80 0,00 0,00 0,00 0,00 0,00 3.055,00 24.125,81 3.152,28 3.886,22 0,00 0,00 7.038,50 17.087,31 31/08/2023
1037 162200 FERNANDA FERNANDES MONTEIRO ASSESSOR ADMINISTRATIVO II BELO HORIZONTE - COMARCA; BH-18PJ VIOLENCIA DOMESTICA-SECRETARIA 0,00 3.753,35 7.506,70 0,00 0,00 0,00 548,29 2.105,00 13.913,34 876,95 4.090,94 0,00 0,00 4.967,89 8.945,45 31/08/2023
1038 512800 FERNANDA FERREIRA BARBOSA MOREIRA ANALISTA DO MP IPATINGA - COMARCA; IPATINGA-PJ-05PJ 12.343,61 2.468,72 0,00 0,00 0,00 0,00 1.256,35 9.929,93 25.998,61 982,16 4.313,62 0,00 0,00 5.295,78 20.702,83 31/08/2023
1039 329200 FERNANDA GABRIEL GUZELLA OFICIAL DO MP BELO HORIZONTE - COMARCA; DIRET DE PLANOS PROJETOS E PROGRAMAS INST 12.343,61 3.703,08 0,00 0,00 0,00 0,00 1.014,65 2.105,00 19.166,34 3.459,39 4.804,28 0,00 0,00 8.263,67 10.902,67 31/08/2023
1040 324200 FERNANDA GEORGIA NEVES ZAHAN OFICIAL DO MP IPANEMA - COMARCA; IPANEMA-PJ-01PJ 12.343,61 9.874,89 0,00 0,00 0,00 0,00 0,00 2.105,00 24.323,50 3.739,45 5.110,70 0,00 0,00 8.850,15 15.473,35 31/08/2023
1041 548200 FERNANDA GONCALVES DE CARVALHO ZUZA OFICIAL DO MP TUPACIGUARA - COMARCA; TUPACIGUARA-PJ-01PJ 7.506,70 1.501,34 0,00 0,00 0,00 0,00 511,42 2.105,00 11.624,46 1.793,93 2.163,40 0,00 0,00 3.957,33 7.667,13 31/08/2023
1042 355400 FERNANDA HELENA BASQUES OFICIAL DO MP SABARÁ - COMARCA; SABARA-PJ-SECRETARIA 12.343,61 3.703,08 3.004,68 0,00 0,00 0,00 994,73 2.105,00 22.151,10 3.459,39 5.630,57 0,00 0,00 9.089,96 13.061,14 31/08/2023
1043